[[{"header":{"parameterUnit":"m.s-1","parameterCategory":1,"la1":30.6,"la2":28.766,"lo1":-90.7593,"lo2":-88.6598,"dy":0.0162,"dx":0.0183,"nx":116,"ny":114,"refTime":"2024-03-05T18:00:00:Z","depth":0,"parameterNumber":2,"parameterNumberName":"U-component_of_WINDS"},"data":[0.0,0.0,0.0,0.0,0.0,0.0,0.0,0.0,0.0,0.0,0.0,0.0,0.0,0.0,0.0,0.0,0.0,0.0,0.0,0.0,0.0,0.0,0.0,0.0,0.0,0.0,0.0,0.0,0.0,0.0,0.0,0.0,0.0,0.0,0.0,0.0,0.0,0.0,0.0,0.0,0.0,0.0,0.0,0.0,0.0,0.0,0.0,0.0,0.0,0.0,0.0,0.0,0.0,0.0,0.0,0.0,0.0,0.0,0.0,0.0,0.0,0.0,0.0,0.0,0.0,0.0,0.0,0.0,0.0,0.0,0.0,0.0,0.0,0.0,0.0,0.0,0.0,0.0,0.0,0.0,0.0,0.0,0.0,0.0,0.0,0.0,0.0,0.0,0.0,0.0,0.0,0.0,0.0,0.0,0.0,0.0,0.0,0.0,0.0,0.0,0.0,0.0,0.0,0.0,0.0,0.0,0.0,0.0,0.0,0.0,0.0,0.0,0.0,0.0,0.0,0.0,0.0,0.0,0.0,0.0,0.0,0.0,0.0,0.0,0.0,0.0,0.0,0.0,0.0,0.0,0.0,0.0,0.0,0.0,0.0,0.0,0.0,0.0,0.0,0.0,0.0,0.0,0.0,0.0,0.0,0.0,0.0,0.0,0.0,0.0,0.0,0.0,0.0,0.0,0.0,0.0,0.0,0.0,0.0,0.0,0.0,0.0,0.0,0.0,0.0,0.0,0.0,0.0,0.0,0.0,0.0,0.0,0.0,0.0,0.0,0.0,0.0,0.0,0.0,0.0,0.0,0.0,0.0,0.0,0.0,0.0,0.0,0.0,0.0,0.0,0.0,0.0,0.0,0.0,0.0,0.0,0.0,0.0,0.0,0.0,0.0,0.0,0.0,0.0,0.0,0.0,0.0,0.0,0.0,0.0,0.0,0.0,0.0,0.0,0.0,0.0,0.0,0.0,0.0,0.0,0.0,0.0,0.0,0.0,0.0,0.0,0.0,0.0,0.0,0.0,0.0,0.0,0.0,0.0,0.0,0.0,0.0,0.0,0.0,0.0,0.0,0.0,0.0,0.0,0.0,0.0,0.0,0.0,0.0,0.0,0.0,0.0,0.0,0.0,0.0,0.0,0.0,0.0,0.0,0.0,0.0,0.0,0.0,0.0,0.0,0.0,0.0,0.0,0.0,0.0,0.0,0.0,0.0,0.0,0.0,0.0,0.0,0.0,0.0,0.0,0.0,0.0,0.0,0.0,0.0,0.0,0.0,0.0,0.0,0.0,0.0,0.0,0.0,0.0,0.0,0.0,0.0,0.0,0.0,0.0,0.0,0.0,0.0,0.0,0.0,0.0,0.0,0.0,0.0,0.0,0.0,0.0,0.0,0.0,0.0,0.0,0.0,0.0,0.0,0.0,0.0,0.0,0.0,0.0,0.0,0.0,0.0,0.0,0.0,0.0,0.0,0.0,0.0,0.0,0.0,0.0,0.0,0.0,0.0,0.0,0.0,0.0,0.0,0.0,0.0,0.0,0.0,0.0,0.0,0.0,0.0,0.0,0.0,0.0,0.0,0.0,0.0,0.0,0.0,0.0,0.0,0.0,0.0,0.0,0.0,0.0,0.0,0.0,0.0,0.0,0.0,0.0,0.0,0.0,0.0,0.0,0.0,0.0,0.0,0.0,0.0,0.0,0.0,0.0,0.0,0.0,0.0,0.0,0.0,0.0,0.0,0.0,0.0,0.0,0.0,0.0,0.0,0.0,0.0,0.0,0.0,0.0,0.0,0.0,0.0,0.0,0.0,0.0,0.0,0.0,0.0,0.0,0.0,0.0,0.0,0.0,0.0,0.0,0.0,0.0,0.0,0.0,0.0,0.0,0.0,0.0,0.0,0.0,0.0,0.0,0.0,0.0,0.0,0.0,0.0,0.0,0.0,0.0,0.0,0.0,0.0,0.0,0.0,0.0,0.0,0.0,0.0,0.0,0.0,0.0,0.0,0.0,0.0,0.0,0.0,0.0,0.0,0.0,0.0,0.0,0.0,0.0,0.0,0.0,0.0,0.0,0.0,0.0,0.0,0.0,0.0,0.0,0.0,0.0,0.0,0.0,0.0,0.0,0.0,0.0,0.0,0.0,0.0,0.0,0.0,0.0,0.0,0.0,0.0,0.0,0.0,0.0,0.0,0.0,0.0,0.0,0.0,0.0,0.0,0.0,0.0,0.0,0.0,0.0,0.0,0.0,0.0,0.0,0.0,0.0,0.0,0.0,0.0,0.0,0.0,0.0,0.0,0.0,0.0,0.0,0.0,0.0,0.0,0.0,0.0,0.0,0.0,0.0,0.0,0.0,0.0,0.0,0.0,0.0,0.0,0.0,0.0,0.0,0.0,0.0,0.0,0.0,0.0,0.0,0.0,0.0,0.0,0.0,0.0,0.0,0.0,0.0,0.0,0.0,0.0,0.0,0.0,0.0,0.0,0.0,0.0,0.0,0.0,0.0,0.0,0.0,0.0,0.0,0.0,0.0,0.0,0.0,0.0,0.0,0.0,0.0,0.0,0.0,0.0,0.0,0.0,0.0,0.0,0.0,0.0,0.0,0.0,0.0,0.0,0.0,0.0,0.0,0.0,0.0,0.0,0.0,0.0,0.0,0.0,0.0,0.0,0.0,0.0,0.0,0.0,0.0,0.0,0.0,0.0,0.0,0.0,0.0,0.0,0.0,0.0,0.0,0.0,0.0,0.0,0.0,0.0,0.0,0.0,0.0,0.0,0.0,0.0,0.0,0.0,0.0,0.0,0.0,0.0,0.0,0.0,0.0,0.0,0.0,0.0,0.0,0.0,0.0,0.0,0.0,0.0,0.0,0.0,0.0,0.0,0.0,0.0,0.0,0.0,0.0,0.0,0.0,0.0,0.0,0.0,0.0,0.0,0.0,0.0,0.0,0.0,0.0,0.0,0.0,0.0,0.0,0.0,0.0,0.0,0.0,0.0,0.0,0.0,0.0,0.0,0.0,0.0,0.0,0.0,0.0,0.0,0.0,0.0,0.0,0.0,0.0,0.0,0.0,0.0,0.0,0.0,0.0,0.0,0.0,0.0,0.0,0.0,0.0,0.0,0.0,0.0,0.0,0.0,0.0,0.0,0.0,0.0,0.0,0.0,0.0,0.0,0.0,0.0,0.0,0.0,0.0,0.0,0.0,0.0,0.0,0.0,0.0,0.0,0.0,0.0,0.0,0.0,0.0,0.0,0.0,0.0,0.0,0.0,0.0,0.0,0.0,0.0,0.0,0.0,0.0,0.0,0.0,0.0,0.0,0.0,0.0,0.0,0.0,0.0,0.0,0.0,0.0,0.0,0.0,0.0,0.0,0.0,0.0,0.0,0.0,0.0,0.0,0.0,0.0,0.0,0.0,0.0,0.0,0.0,0.0,0.0,0.0,0.0,0.0,0.0,0.0,0.0,0.0,0.0,0.0,0.0,0.0,0.0,0.0,0.0,0.0,0.0,0.0,0.0,0.0,0.0,0.0,0.0,0.0,0.0,0.0,0.0,0.0,0.0,0.0,0.0,0.0,0.0,0.0,0.0,0.0,0.0,0.0,0.0,0.0,0.0,0.0,0.0,0.0,0.0,0.0,0.0,0.0,0.0,0.0,0.0,0.0,0.0,0.0,0.0,0.0,0.0,0.0,0.0,0.0,0.0,0.0,0.0,0.0,0.0,0.0,0.0,0.0,0.0,0.0,0.0,0.0,0.0,0.0,0.0,0.0,0.0,0.0,0.0,0.0,0.0,0.0,0.0,0.0,0.0,0.0,0.0,0.0,0.0,0.0,0.0,0.0,0.0,0.0,0.0,0.0,0.0,0.0,0.0,0.0,0.0,0.0,0.0,0.0,0.0,0.0,0.0,0.0,0.0,0.0,0.0,0.0,0.0,0.0,0.0,0.0,0.0,0.0,0.0,0.0,0.0,0.0,0.0,0.0,0.0,0.0,0.0,0.0,0.0,0.0,0.0,0.0,0.0,0.0,0.0,0.0,0.0,0.0,0.0,0.0,0.0,0.0,0.0,0.0,0.0,0.0,0.0,0.0,0.0,0.0,0.0,0.0,0.0,0.0,0.0,0.0,0.0,0.0,0.0,0.0,0.0,0.0,0.0,0.0,0.0,0.0,0.0,0.0,0.0,0.0,0.0,0.0,0.0,0.0,0.0,0.0,0.0,0.0,0.0,0.0,0.0,0.0,0.0,0.0,0.0,0.0,0.0,0.0,0.0,0.0,0.0,0.0,0.0,0.0,0.0,0.0,0.0,0.0,0.0,0.0,0.0,0.0,0.0,0.0,0.0,0.0,0.0,0.0,0.0,0.0,0.0,0.0,0.0,0.0,0.0,0.0,0.0,0.0,0.0,0.0,0.0,0.0,0.0,0.0,0.0,0.0,0.0,0.0,0.0,0.0,0.0,0.0,0.0,0.0,0.0,0.0,0.0,0.0,0.0,0.0,0.0,0.0,0.0,0.0,0.0,0.0,0.0,0.0,0.0,0.0,0.0,0.0,0.0,0.0,0.0,0.0,0.0,0.0,0.0,0.0,0.0,0.0,0.0,0.0,0.0,0.0,0.0,0.0,0.0,0.0,0.0,0.0,0.0,0.0,0.0,0.0,0.0,0.0,0.0,0.0,0.0,0.0,0.0,0.0,0.0,0.0,0.0,0.0,0.0,0.0,0.0,0.0,0.0,0.0,0.0,0.0,0.0,0.0,0.0,0.0,0.0,0.0,0.0,0.0,0.0,0.0,0.0,0.0,0.0,0.0,0.0,0.0,0.0,0.0,0.0,0.0,0.0,0.0,0.0,0.0,0.0,0.0,0.0,0.0,0.0,0.0,0.0,0.0,0.0,0.0,0.0,0.0,0.0,0.0,0.0,0.0,0.0,0.0,0.0,0.0,0.0,0.0,0.0,0.0,0.0,0.0,0.0,0.0,0.0,0.0,0.0,0.0,0.0,0.0,0.0,0.0,0.0,0.0,0.0,0.0,0.0,0.0,0.0,0.0,0.0,0.0,0.0,0.0,0.0,0.0,0.0,0.0,0.0,0.0,0.0,0.0,0.0,0.0,0.0,0.0,0.0,0.0,0.0,0.0,0.0,0.0,0.0,0.0,0.0,0.0,0.0,0.0,0.0,0.0,0.0,0.0,0.0,0.0,0.0,0.0,0.0,0.0,0.0,0.0,0.0,0.0,0.0,0.0,0.0,0.0,0.0,0.0,0.0,0.0,0.0,0.0,0.0,0.0,0.0,0.0,0.0,0.0,0.0,0.0,0.0,0.0,0.0,0.0,0.0,0.0,0.0,0.0,0.0,0.0,0.0,0.0,0.0,0.0,0.0,0.0,0.0,0.0,0.0,0.0,0.0,0.0,0.0,0.0,0.0,0.0,0.0,0.0,0.0,0.0,0.0,0.0,0.0,0.0,0.0,0.0,0.0,0.0,0.0,0.0,0.0,0.0,0.0,0.0,0.0,0.0,0.0,0.0,0.0,0.0,0.0,0.0,0.0,0.0,0.0,0.0,0.0,0.0,0.0,0.0,0.0,0.0,0.0,0.0,0.0,0.0,0.0,0.0,0.0,0.0,0.0,0.0,0.0,0.0,0.0,0.0,0.0,0.0,0.0,0.0,0.0,0.0,0.0,0.0,0.0,0.0,0.0,0.0,0.0,0.0,0.0,0.0,0.0,0.0,0.0,0.0,0.0,0.0,0.0,0.0,0.0,0.0,0.0,0.0,0.0,0.0,0.0,0.0,0.0,0.0,0.0,0.0,0.0,0.0,0.0,0.0,0.0,0.0,0.0,0.0,0.0,0.0,0.0,0.0,0.0,0.0,0.0,0.0,0.0,0.0,0.0,0.0,0.0,0.0,0.0,0.0,0.0,0.0,0.0,0.0,0.0,0.0,0.0,0.0,0.0,0.0,0.0,0.0,0.0,0.0,0.0,0.0,0.0,0.0,0.0,0.0,0.0,0.0,0.0,0.0,0.0,0.0,0.0,0.0,0.0,0.0,0.0,0.0,0.0,0.0,0.0,0.0,0.0,0.0,0.0,0.0,0.0,0.0,0.0,0.0,0.0,0.0,-4.8633,-4.5209,0.0,0.0,0.0,0.0,0.0,0.0,0.0,0.0,0.0,0.0,0.0,0.0,0.0,0.0,0.0,0.0,0.0,0.0,0.0,0.0,0.0,0.0,0.0,0.0,0.0,0.0,0.0,0.0,0.0,0.0,0.0,0.0,0.0,0.0,-0.5381,-1.0976,-1.5325,-1.8271,-2.2246,-2.6613,-3.121,-2.7949,-2.7187,-2.8524,0.0,0.0,0.0,0.0,0.0,0.0,0.0,0.0,0.0,0.0,0.0,0.0,0.0,0.0,0.0,0.0,0.0,0.0,0.0,0.0,0.0,0.0,0.0,0.0,0.0,0.0,0.0,0.0,0.0,0.0,0.0,0.0,0.0,0.0,0.0,0.0,0.0,0.0,0.0,0.0,0.0,0.0,0.0,0.0,0.0,0.0,0.0,0.0,0.0,0.0,0.0,0.0,0.0,0.0,0.0,0.0,0.0,0.0,0.0,0.0,0.0,0.0,0.0,0.0,0.0,0.0,0.0,0.0,0.0,0.0,-5.1451,-4.9187,0.0,0.0,0.0,0.0,0.0,0.0,0.0,0.0,0.0,0.0,0.0,0.0,0.0,0.0,0.0,0.0,0.0,0.0,0.0,0.0,0.0,0.0,0.0,-0.0787,0.0712,0.2052,0.2156,0.2665,0.0,0.0,0.0,0.0,0.0,-0.4775,-1.1322,-1.5991,-1.9366,-2.1417,-2.647,-3.1073,-3.519,-3.5295,-3.4262,-3.2174,-3.0079,0.0,0.0,0.0,0.0,0.0,0.0,0.0,0.0,0.0,0.0,0.0,0.0,0.0,0.0,0.0,0.0,0.0,0.0,0.0,0.0,0.0,0.0,0.0,0.0,0.0,0.0,0.0,0.0,0.0,0.0,0.0,0.0,0.0,0.0,0.0,0.0,0.0,0.0,0.0,0.0,0.0,0.0,0.0,0.0,0.0,0.0,0.0,0.0,0.0,0.0,0.0,0.0,0.0,0.0,0.0,0.0,0.0,0.0,0.0,0.0,0.0,0.0,0.0,-5.3736,-5.4723,-5.5228,-5.4347,-5.5761,-5.8678,-5.4315,-5.3851,-5.5697,-4.9381,0.0,0.0,0.0,0.0,0.0,0.0,0.0,0.0,0.0,0.0,0.0,0.0,0.0,0.0,0.0,0.0,0.0,0.0,0.0,0.0,-1.1082,-0.8405,-0.5806,-0.3802,-0.2924,-0.2441,-0.2258,-0.2316,-0.259,-0.3066,-0.66,-1.147,-1.7585,-1.8548,-2.0955,-2.5003,-3.2765,-3.7305,-3.8723,-3.9303,-3.9509,-3.9215,-3.6007,-3.5002,-3.549,0.0,0.0,0.0,0.0,0.0,0.0,0.0,0.0,0.0,0.0,0.0,0.0,0.0,0.0,0.0,0.0,0.0,0.0,0.0,0.0,0.0,0.0,0.0,0.0,0.0,0.0,0.0,0.0,0.0,0.0,0.0,0.0,0.0,0.0,0.0,0.0,0.0,0.0,0.0,0.0,0.0,-4.719,-4.8905,0.0,0.0,0.0,0.0,0.0,0.0,0.0,0.0,0.0,0.0,0.0,0.0,0.0,-4.9525,-4.9557,-5.4357,-5.673,-5.6613,-6.0375,-6.2194,-6.2236,-6.1229,-6.0888,-6.0943,-5.9488,0.0,-5.6774,-5.5912,0.0,0.0,0.0,0.0,0.0,0.0,0.0,0.0,0.0,0.0,0.0,0.0,0.0,0.0,0.0,0.0,0.0,0.0,0.0,0.0,0.0,-1.273,-1.2117,-1.2441,-1.331,-1.3257,-1.1816,-1.1938,-1.1335,-0.9697,-1.1832,-1.5087,-1.9416,-2.1563,-2.6176,-3.3413,-3.7031,-4.0474,-4.3699,-4.3531,-4.404,-4.5149,-4.3548,-4.068,-3.6884,-3.4761,0.0,0.0,0.0,0.0,0.0,0.0,0.0,0.0,0.0,0.0,0.0,0.0,0.0,0.0,0.0,0.0,0.0,0.0,0.0,0.0,0.0,0.0,0.0,0.0,0.0,0.0,0.0,0.0,0.0,0.0,0.0,0.0,0.0,0.0,0.0,0.0,0.0,0.0,0.0,-4.3517,-4.5913,-4.6488,-4.5362,-4.3393,0.0,0.0,0.0,0.0,0.0,0.0,0.0,0.0,0.0,-5.2944,-5.3904,-5.5274,-5.7115,-5.9785,-6.1238,-6.1585,-6.2951,-6.3806,-6.4122,-6.2444,-6.1834,-6.2026,-6.0887,-5.9932,-5.8907,-5.6355,-5.2944,-4.9062,0.0,0.0,0.0,0.0,-4.5295,-4.6013,0.0,0.0,0.0,0.0,0.0,0.0,0.0,0.0,0.0,0.0,0.0,0.0,-1.5105,-1.6041,-1.7431,-1.9509,-2.1864,-2.216,-1.9726,-1.9986,-1.8892,-1.5903,-1.6441,-1.8074,-2.0693,-2.5484,-3.1933,-4.01,-4.097,-4.3501,-4.7454,-4.684,-4.7306,-4.8708,-4.8613,-4.5328,-3.9879,-3.8704,-3.6288,-3.3098,0.0,0.0,0.0,0.0,0.0,0.0,0.0,0.0,0.0,0.0,0.0,0.0,0.0,0.0,0.0,0.0,0.0,0.0,0.0,0.0,0.0,0.0,0.0,0.0,0.0,0.0,0.0,0.0,0.0,0.0,0.0,0.0,0.0,0.0,0.0,0.0,0.0,-4.4353,-4.6211,-4.5299,-4.6778,-4.5954,0.0,0.0,0.0,0.0,0.0,0.0,-5.1528,-5.1932,-5.4005,-5.8175,-5.9134,-6.0815,-6.3374,-6.4052,-6.4527,-6.4752,-6.4134,-6.399,-6.4205,-6.2273,-6.167,-6.2011,-6.0762,-6.0146,-5.9788,-5.6832,-5.489,-5.3459,-5.0947,-4.9309,-4.8514,-4.9442,-4.9923,-5.0566,0.0,0.0,0.0,0.0,0.0,0.0,0.0,0.0,0.0,0.0,0.0,-1.6525,-1.6591,-1.8908,-2.1112,-2.2711,-2.5135,-2.5666,-2.345,-2.3772,-2.2821,-2.0124,-2.0313,-2.122,-2.2717,-3.0722,-3.7218,-4.1954,-4.5296,-4.7415,-4.8427,-4.8515,-4.8625,-4.8708,-4.8699,-4.8386,-4.7699,-4.4163,-4.2092,-4.07,-3.4891,0.0,0.0,0.0,0.0,0.0,0.0,0.0,0.0,0.0,0.0,0.0,0.0,0.0,0.0,0.0,0.0,0.0,0.0,0.0,0.0,0.0,0.0,0.0,0.0,0.0,0.0,0.0,0.0,0.0,0.0,0.0,0.0,0.0,0.0,0.0,0.0,0.0,0.0,-4.907,-5.1743,0.0,0.0,0.0,0.0,-4.9003,-4.9281,-5.1615,-5.6732,-5.7135,-5.9228,-6.3566,-6.4487,-6.4926,-6.4986,-6.5652,-6.5526,-6.4614,-6.4576,-6.4128,-6.3334,-6.2022,-6.1202,-6.071,-5.9367,-5.8547,-5.8263,-5.9751,-5.7564,-5.323,-5.3552,-5.1257,-4.8281,-5.1992,-5.3779,-5.4871,0.0,0.0,0.0,0.0,0.0,0.0,0.0,0.0,-0.8463,-0.974,-1.2692,-1.583,-1.8853,-1.9833,-2.1675,-2.5371,-2.7596,-2.8444,-2.733,-2.6298,-2.4327,-2.1164,-2.1101,-2.4068,-3.0408,-3.6524,-4.184,-4.6359,-4.7525,-4.8818,-5.0231,-4.9752,-4.9859,-5.0425,-5.0424,-5.0347,-4.9995,-4.7255,-4.4723,-4.2362,-4.01,-3.7055,0.0,0.0,0.0,0.0,0.0,0.0,0.0,0.0,0.0,0.0,0.0,0.0,0.0,0.0,0.0,0.0,0.0,0.0,0.0,0.0,0.0,0.0,0.0,0.0,0.0,0.0,0.0,0.0,0.0,0.0,0.0,0.0,0.0,0.0,0.0,0.0,0.0,-5.0067,-5.3818,0.0,-5.0774,-5.2018,-5.3416,-5.4284,-5.6423,-5.9022,-6.1995,-6.2406,-6.3472,-6.5537,-6.5868,-6.5933,-6.5755,-6.5353,-6.4956,-6.4589,-6.3512,-6.2682,-6.2021,-6.07,-5.9862,-5.9328,-5.7543,-5.6975,-5.7244,-5.6905,-5.6762,-5.6781,-5.7336,-5.6541,-5.5267,-5.6731,-5.7203,-5.7323,0.0,0.0,0.0,0.0,0.0,0.0,0.0,0.0,-0.9472,-1.1295,-1.1673,-1.348,-1.7926,-1.9315,-2.1599,-2.5716,-2.8111,-2.8902,-2.7769,-2.6723,-2.4546,-2.0934,-2.29,-2.802,-3.6481,-4.0471,-4.4511,-4.861,-4.8876,-4.9625,-5.0775,-5.0542,-5.0741,-5.1406,-5.1052,-5.0863,-5.0594,-4.88,-4.697,-4.5142,-4.4136,-4.1303,-3.7538,0.0,0.0,0.0,0.0,0.0,0.0,0.0,0.0,0.0,0.0,0.0,0.0,0.0,0.0,0.0,0.0,0.0,0.0,0.0,0.0,0.0,0.0,0.0,0.0,0.0,0.0,0.0,0.0,0.0,0.0,0.0,0.0,0.0,0.0,-5.0892,-5.4364,-5.0713,-5.5544,-5.764,-5.3518,-5.6185,-5.8511,-5.9488,-6.173,-6.3729,-6.518,-6.5504,-6.5907,-6.6393,-6.6102,-6.5873,-6.5677,-6.4646,-6.3949,-6.3512,-6.2373,-6.1467,-6.0693,-5.9374,-5.846,-5.785,-5.6151,-5.5542,-5.5662,-5.4919,-5.5687,-5.7418,-5.8502,-5.8988,-5.9054,-5.9193,-5.8992,-5.8663,0.0,0.0,0.0,0.0,0.0,0.0,-0.458,-0.6881,-0.8686,-0.869,-0.8466,-0.979,-1.3621,-1.7359,-2.0828,-2.381,-2.6462,-2.703,-2.464,-2.5003,-2.3656,-1.9803,-2.6016,-3.2929,-4.0079,-4.2344,-4.5133,-4.8516,-4.9469,-4.9952,-4.9957,-5.0772,-5.1229,-5.1328,-5.0412,-4.9996,-4.9991,-4.8919,-4.8949,-4.942,-4.6765,-4.5273,-4.4056,0.0,0.0,0.0,0.0,0.0,0.0,0.0,0.0,0.0,0.0,0.0,0.0,0.0,0.0,0.0,0.0,0.0,0.0,0.0,0.0,0.0,0.0,0.0,0.0,0.0,0.0,0.0,0.0,0.0,0.0,0.0,0.0,0.0,-4.9224,-5.2455,-5.4041,-5.1393,-5.7336,-6.0485,-5.7503,-6.0103,-6.2715,-6.4501,-6.4628,-6.508,-6.607,-6.629,-6.6396,-6.6416,-6.5576,-6.4997,-6.4805,-6.3763,-6.2631,-6.1401,-6.13,-6.0608,-5.9302,-5.798,-5.7037,-5.6387,-5.5075,-5.4075,-5.3556,-5.4219,-5.4499,-5.473,-5.6753,-5.8033,-5.8762,-5.8939,-5.8998,-5.8942,0.0,0.0,0.0,0.0,0.0,0.0,-0.4525,-0.5179,-0.5698,-0.5678,-0.6916,-0.8895,-1.1589,-1.5049,-1.868,-2.2755,-2.5218,-2.602,-2.4787,-2.4363,-2.3236,-2.1226,-2.774,-3.3593,-3.8292,-4.2777,-4.6201,-4.8516,-4.8772,-4.8896,-4.8943,-4.9792,-5.0197,-5.0219,-4.997,-5.0217,-5.0699,-4.9165,-4.9367,-5.0608,-4.8904,-4.706,-4.5167,0.0,0.0,0.0,0.0,0.0,0.0,0.0,0.0,0.0,0.0,0.0,0.0,0.0,0.0,0.0,0.0,0.0,0.0,0.0,0.0,0.0,0.0,0.0,0.0,0.0,0.0,0.0,0.0,0.0,0.0,0.0,-4.934,-5.2045,-5.2233,-5.6395,-5.898,-5.7859,-6.0566,-6.2401,-6.2372,-6.3199,-6.4196,-6.5462,-6.5551,-6.5759,-6.6299,-6.6384,-6.6423,-6.6552,-6.5624,-6.4996,-6.4784,-6.2891,-6.1743,-6.1373,-5.9351,-5.824,-5.799,-5.6014,-5.5124,-5.5027,-5.3052,-5.2432,-5.2648,-5.1713,-5.1983,-5.3225,-5.5389,-5.6154,-5.6099,-5.6195,-5.6282,-5.642,0.0,0.0,0.0,0.0,0.0,0.0,-0.4505,-0.4505,-0.4789,-0.5501,-0.4896,-0.597,-1.0101,-1.2881,-1.5893,-1.9651,-2.1445,-2.2332,-2.2266,-2.0933,-2.0736,-2.2116,-2.6791,-3.2028,-3.7783,-4.1879,-4.5258,-4.7922,-4.7798,-4.7722,-4.7675,-4.841,-4.8759,-4.8839,-4.8977,-4.9322,-4.9742,-4.8928,-4.9179,-5.0117,-4.9451,-4.858,-4.7606,-4.6879,-4.5972,-4.5291,-4.6416,-4.6964,-4.7109,-4.6753,0.0,0.0,0.0,0.0,0.0,0.0,0.0,0.0,0.0,0.0,0.0,0.0,0.0,0.0,0.0,0.0,0.0,0.0,0.0,0.0,0.0,0.0,0.0,0.0,-5.2982,-5.5478,-5.6756,-5.9176,-6.0831,-6.0908,-6.2034,-6.3215,-6.4294,-6.437,-6.4803,-6.5808,-6.5897,-6.6013,-6.6256,-6.6361,-6.6273,-6.5976,-6.5039,-6.4193,-6.3474,-6.1396,-6.0162,-5.9744,-5.7756,-5.6649,-5.6237,-5.4559,-5.3632,-5.3117,-5.1479,-5.0806,-5.0966,-5.0366,-5.0595,-5.1617,0.0,0.0,0.0,0.0,-5.5097,-5.5123,0.0,0.0,0.0,0.0,0.0,0.0,-0.4497,-0.4212,-0.4577,-0.61,-0.3109,-0.2927,-0.8543,-1.0596,-1.2744,-1.5486,-1.6624,-1.7681,-1.8702,-1.6437,-1.6775,-2.0758,-2.3275,-2.8312,-3.6297,-3.9942,-4.3293,-4.6324,-4.648,-4.6433,-4.626,-4.6849,-4.7155,-4.7261,-4.7559,-4.7796,-4.7998,-4.8322,-4.8613,-4.8801,-4.8968,-4.9581,-5.021,-4.8578,-4.8739,-4.9821,-4.8945,-4.9526,-5.0693,-5.0486,0.0,0.0,0.0,0.0,0.0,0.0,0.0,0.0,0.0,0.0,0.0,0.0,0.0,0.0,0.0,0.0,0.0,0.0,0.0,0.0,0.0,0.0,0.0,0.0,-5.7262,-5.9869,-6.1374,-6.1006,-6.0786,-6.152,-6.2328,-6.3215,-6.4294,-6.437,-6.4799,-6.5859,-6.5923,-6.5951,-6.6126,-6.6182,0.0,0.0,0.0,-6.2992,-6.1674,-5.9766,-5.8348,-5.7373,-5.6319,-5.5296,-5.4325,-5.3302,-5.2243,-5.1104,-5.023,-4.955,-4.9052,-4.9695,-5.0051,-5.036,-5.2448,-5.3744,-5.4491,-5.4606,-5.4613,-5.4596,0.0,0.0,0.0,0.0,0.0,0.0,-0.4497,-0.2456,-0.0965,-0.1317,-0.3921,-0.5601,-0.517,-0.7127,-0.9801,-1.3093,-1.4871,-1.6576,-1.8367,-1.5652,-1.2474,-0.8999,-1.5825,-2.1549,-2.5535,-3.7084,-4.2553,-4.1519,-4.4255,-4.5304,-4.4819,-4.5542,-4.5782,-4.5658,-4.5685,-4.6501,-4.7834,-4.7373,-4.8009,-4.9264,-4.8527,-4.8617,-4.9214,-4.9671,-5.0976,-5.2878,-5.5433,-5.7117,-5.8,-5.7061,-5.5139,-5.2562,-4.9094,-4.608,0.0,0.0,0.0,0.0,0.0,0.0,0.0,0.0,0.0,0.0,0.0,0.0,0.0,0.0,0.0,0.0,0.0,0.0,0.0,-5.5037,-5.807,-6.0493,-6.1447,-6.1484,-6.141,-6.1557,-6.2328,-6.3215,-6.4294,-6.437,-6.4856,-6.5968,-6.5967,-6.6024,-6.6352,-6.5543,-6.5141,-6.5273,-6.3672,-6.2524,-6.1867,-5.9621,-5.7862,-5.6645,-5.4216,0.0,-5.2661,-5.0749,-5.0017,-5.0209,-4.9494,-4.9135,-4.9018,-4.9154,-4.9898,-5.1004,-5.1963,-5.2815,-5.3419,-5.2873,-5.3223,-5.3829,0.0,0.0,0.0,0.0,0.0,0.0,-0.2348,-0.0949,0.0237,0.1028,-0.0285,-0.1662,-0.2668,-0.3906,-0.6051,-0.9275,-1.1812,-1.3159,-1.3216,-1.0528,-0.7651,-0.4807,-0.9212,-1.4084,-1.8976,-2.8671,-3.5183,-3.8177,-4.1739,-4.3828,-4.453,-4.4836,-4.4632,-4.3964,-4.4107,-4.4677,-4.5554,-4.6847,-4.7375,-4.7391,-4.7844,-4.681,-4.5369,-4.8657,-5.1401,-5.3927,-5.7411,-5.9682,-6.0996,-6.0613,-5.8973,-5.6585,-5.3828,-5.0629,-4.7159,0.0,0.0,0.0,0.0,0.0,0.0,0.0,0.0,0.0,0.0,0.0,0.0,0.0,0.0,-4.6389,-4.7868,0.0,-5.4375,-5.751,-5.9707,-6.1419,-6.2456,-6.2376,-6.2034,-6.163,-6.2328,-6.3215,-6.4294,-6.437,-6.4828,-6.5936,-6.5947,-6.5843,-6.5743,-6.5551,-6.5059,-6.4181,-6.3486,-6.2514,-6.125,-5.8899,-5.7095,-5.5797,-5.3387,-5.1828,-5.1105,-4.9973,-4.9514,-4.948,-4.9182,-4.9018,-4.9018,-4.9018,-4.9649,-5.0564,-5.093,-5.1692,-5.2571,-5.2265,-5.2354,-5.261,0.0,0.0,0.0,0.0,0.0,0.0,0.0,-0.0,0.0639,0.2432,0.3723,0.3267,-0.0075,-0.0896,-0.2524,-0.5661,-0.8731,-0.9387,-0.6692,-0.4564,-0.279,-0.1658,-0.2232,-0.5686,-1.2505,-1.8135,-2.531,-3.4098,-3.8426,-4.1574,-4.3624,-4.4109,-4.379,-4.2755,-4.3066,-4.3186,-4.3441,-4.658,-4.6891,-4.5316,-4.4986,-4.2494,-3.9439,-4.3876,-4.8398,-5.291,-5.6688,-5.9484,-6.1443,-6.2048,-6.0934,-5.9045,-5.7785,-5.4819,-5.0894,-4.5975,-4.445,0.0,0.0,0.0,0.0,0.0,0.0,0.0,0.0,-4.22,-4.3251,-4.6768,-4.7965,-4.9196,-5.1936,-5.3421,-5.5674,-5.9924,-6.1171,-6.2057,-6.3416,-6.3215,-6.2767,-6.2225,-6.263,-6.3271,-6.4138,-6.4332,-6.4731,-6.5586,-6.5611,-6.5427,-6.5026,-6.529,-6.467,-6.3036,-6.3046,-6.2301,-6.0627,-5.8415,-5.652,-5.4975,-5.3077,-5.1309,-4.9814,-4.9814,-4.9514,-4.9018,-4.9018,-4.9018,-4.9018,-4.9018,-4.9413,-4.9998,-5.0084,-5.094,-5.2025,-5.2023,-5.1912,-5.1825,0.0,0.0,0.0,0.0,0.0,0.0,0.0,0.0,0.0998,0.385,0.4395,0.4356,0.3853,0.175,-0.0866,-0.3866,-0.7149,-0.6901,-0.1626,-0.0616,0.1826,0.642,0.6586,0.3844,-0.1855,-0.7444,-1.5589,-2.6612,-3.3171,-3.7653,-4.0145,-4.2626,-4.3521,-4.3051,-4.3098,-4.3171,-4.3465,-4.6327,-4.683,-4.5041,-3.6868,-3.2578,-3.1104,-3.1522,-3.8537,-4.8841,-5.3681,-5.7118,-5.9536,-6.0957,-5.9784,-5.768,-5.7343,-5.6106,-5.3397,-4.6186,-4.375,-4.1596,-3.3619,-3.382,-3.7421,-4.2002,-4.3355,-4.597,0.0,-5.4857,-5.3529,-5.6178,-5.7341,-5.774,-5.7297,-5.7917,-5.9183,-6.1168,-6.1532,-6.2057,-6.3416,-6.3543,-6.3701,-6.4196,-6.3834,-6.3587,-6.368,-6.4099,-6.4476,-6.4711,-6.4641,-6.4615,-6.4644,-6.3606,-6.3,-6.299,-6.1898,-6.1056,-6.0594,-5.9048,-5.6904,-5.4301,-5.2971,-5.1145,-4.9086,-4.9086,-4.9052,-4.9018,-4.9018,-4.9018,-4.9018,-4.9018,-4.9413,-5.0017,-5.0438,-5.1138,-5.1901,-5.1806,-5.2085,-5.2445,0.0,0.0,0.0,0.0,0.0,0.0,0.0,0.0,0.0,0.1686,0.3409,0.4479,0.4481,0.3544,0.2371,0.112,-0.1376,-0.0559,0.4953,0.4226,0.4516,0.6784,0.557,0.2795,-0.1724,-0.9397,-1.4682,-1.7291,-2.7855,-3.5249,-3.9591,-4.3245,-4.444,-4.3407,-4.2598,-4.2714,-4.363,-4.518,-4.564,-4.4221,-3.0717,-2.295,-1.9267,-1.7902,-2.1921,-3.043,-4.6277,-5.3609,0.0,-5.6233,-5.4842,-5.3135,-5.404,-5.2625,-4.9463,-4.384,-4.2446,-4.2336,-4.0367,-3.9792,-4.0701,-4.4722,-4.7038,-4.9496,-5.3971,-5.4523,-5.508,-5.8501,-5.8962,-5.8505,-5.78,-5.777,-5.8276,-5.9699,-6.0711,-6.2004,-6.3917,-6.4179,-6.4415,-6.5089,-6.4862,-6.4671,-6.4671,-6.4514,-6.4552,-6.4877,-6.4575,-6.4405,-6.4487,-6.4241,-6.3736,-6.3029,-6.2557,-6.19,-6.1035,-5.9203,-5.7262,-5.5221,-5.3676,-5.1809,-4.9678,-5.0079,-4.9746,-4.8787,-4.836,-4.7866,-4.7407,-4.836,-4.9086,-4.9637,-5.0439,-5.159,-5.286,-5.2831,-5.2561,-5.2239,0.0,0.0,0.0,0.0,0.0,0.0,0.0,0.0,0.0,0.0,0.1581,0.3588,0.4428,0.4484,0.4484,0.4484,0.3171,0.4148,0.8353,0.768,0.6497,0.5116,0.3673,0.0504,-0.4457,-1.0051,-1.1834,-0.9526,-1.7689,-2.753,-3.8788,-3.7878,-3.9298,-4.2575,-4.0849,-4.1087,-4.2787,-4.286,-4.382,-4.3669,-2.5737,-1.3866,-0.6995,-0.8126,-1.0224,-1.5731,-4.0184,-5.0011,-5.1391,-5.0966,-4.9472,-4.7947,-4.8947,-4.7441,-4.4549,-4.0373,-3.8984,-3.9429,-4.2404,-4.2759,-4.3285,-4.7078,-5.0306,-5.2824,-5.3698,-5.4769,-5.6299,-5.8984,-5.8836,-5.8065,-5.7728,-5.7192,-5.736,-5.8929,-6.0273,-6.1911,-6.4301,-6.4505,-6.4807,-6.5699,-6.5487,-6.5326,-6.5581,-6.4845,-6.4481,-6.4696,-6.4255,-6.4026,-6.4176,-6.4481,-6.4232,-6.3378,-6.3157,-6.2502,-6.1479,-5.9478,-5.7604,-5.5816,-5.4384,-5.2575,-5.0435,-5.0503,-4.983,-4.8658,-4.7901,-4.7216,-4.6679,-4.845,-4.9375,-4.978,-5.1158,-5.2619,-5.3917,-5.4205,-5.3551,-5.2723,0.0,0.0,0.0,0.0,0.0,0.0,0.0,0.0,0.0,0.0,0.0,0.0,0.0,0.4484,0.4484,0.4497,0.4421,0.5035,0.6566,0.8822,0.792,0.3007,0.321,-0.0309,-0.821,-0.4865,-0.3689,-0.4752,-0.0094,-1.1279,-3.6783,-2.2693,-2.4654,-3.995,-3.7401,-3.7842,-4.0313,-3.9164,-4.1344,-4.3699,-2.2036,-0.5538,0.499,-0.4585,-0.7855,-1.0825,-3.752,-4.6644,-4.603,-4.5852,-4.4518,-4.276,-4.1813,-4.1175,-3.9888,-3.5874,-3.2377,-3.0727,-3.5093,-3.8861,-4.3,-4.9208,-5.348,-5.6711,-5.8736,-5.9533,-5.9703,-5.8913,-5.8474,-5.8178,-5.8023,-5.7354,-5.7603,-5.9945,-6.0769,-6.1911,-6.4301,-6.4326,-6.4685,-6.6178,-6.5458,-6.5161,-6.6013,-6.507,-6.4178,-6.368,-6.3121,-6.3094,-6.3589,-6.3435,-6.3626,-6.4221,-6.2993,-6.2181,-6.1864,-6.0217,-5.8013,-5.5285,-5.4774,-5.3382,-5.1095,-4.9526,-4.876,-4.8697,-4.7914,-4.7498,-4.7534,-4.9756,-5.0625,-5.0891,-5.3278,-5.4314,-5.4607,-5.5712,-5.5359,-5.4373,0.0,0.0,0.0,0.0,0.0,0.0,0.0,0.0,0.0,0.0,0.0,0.0,0.0,0.0,0.0,0.0,0.2803,0.4016,0.5115,0.535,0.4678,0.2685,-0.0099,-0.3808,-0.8397,-0.1899,0.3871,0.8388,-0.2104,-0.8586,-1.1172,-2.0303,-2.0775,-1.4111,-1.824,-1.9786,-1.9487,-2.245,-2.5357,-2.7317,-2.0257,-1.1245,-0.1689,0.0422,-0.3816,-1.3524,0.0,-4.1854,-4.3584,-4.1556,-3.9916,-3.8728,-3.8755,-3.7124,-3.4548,-3.108,-3.1528,-3.3917,-3.759,-4.2258,-4.7084,-5.1374,-5.4187,-5.622,-5.7404,-5.8277,-5.8748,-5.8307,-5.547,-5.2834,-5.2201,-5.2253,-5.2848,-5.4288,-5.8994,-6.2954,-6.4405,-6.5064,-6.5683,-6.6322,-6.5979,-6.5799,-6.607,-6.5339,-6.4799,-6.4626,-6.4138,-6.4142,-6.4749,-6.4715,-6.4793,-6.4957,-6.4297,-6.3297,-6.1912,-6.0808,-5.8825,-5.5998,-5.4001,-5.2944,-5.2674,-5.1095,-4.9991,-4.9392,-4.8855,-4.8295,-4.7838,-4.9402,-5.0833,-5.2165,-5.3046,-5.4312,-5.559,-5.5423,-5.5467,-5.5537,0.0,0.0,0.0,0.0,0.0,0.0,0.0,0.0,0.0,0.0,0.0,0.0,0.0,0.0,0.0,0.0,0.0,0.1911,0.2629,0.2215,0.1412,0.0259,-0.3532,-0.6599,-0.869,-0.2371,0.395,0.9856,-0.1509,-0.9213,-1.3357,-1.8751,-1.6743,-0.8316,-0.3298,-0.1795,-0.3544,-1.0999,-1.7115,-2.172,-2.0867,-1.6826,-1.0768,-0.5294,-1.0616,0.0,-3.19,-3.7461,-3.9853,-3.7255,-3.5324,-3.4027,-3.3718,-3.2155,-3.0393,-3.0026,-3.2339,-3.6241,-4.1869,-4.5848,-4.9419,-5.3716,-5.5341,-5.6069,-5.6697,-5.7639,-5.822,-5.7492,-5.3748,-5.0335,-4.9412,-4.9764,-5.0117,-4.9728,-5.5581,-6.0642,-6.1984,-6.2612,-6.3779,-6.6003,-6.589,-6.5761,-6.6007,-6.5628,-6.5291,-6.513,-6.4685,-6.4724,-6.5273,-6.5412,-6.5336,-6.5149,-6.4453,-6.3274,-6.1543,-6.0516,-5.8863,-5.6523,-5.3929,-5.3011,-5.3416,-5.1863,-5.0537,-4.9503,-4.9198,-4.8857,-4.8679,-5.0214,-5.1886,-5.3478,-5.4206,-5.5359,-5.6552,-5.5943,-5.6077,-5.6459,0.0,0.0,0.0,0.0,0.0,0.0,0.0,0.0,0.0,0.0,0.0,0.0,0.0,0.0,0.0,0.0,0.0,0.0,-0.0907,-0.0745,-0.1876,-0.4423,-0.704,-0.8717,-0.9301,-0.5843,-0.2556,0.0445,0.1628,-1.1776,-3.8118,-1.7258,-1.2346,-1.9807,0.6038,1.3515,0.6065,-0.4254,-1.5311,-2.5744,-2.3062,-2.1567,-2.0845,-2.0384,-2.668,-3.5459,-3.3429,-3.3878,-3.5116,-3.3149,-3.1127,-2.9187,-2.761,-2.7171,-2.8146,-3.2763,-3.4871,-3.7701,-4.7099,-4.9229,-5.022,-5.6026,-5.691,-5.6407,-5.6781,-5.7825,-5.8144,-5.6257,-5.3048,-5.0266,-4.9068,-4.9568,-4.9306,-4.6815,-5.1527,-5.6147,-5.7935,-5.7854,-5.9758,-6.5432,-6.5335,-6.5118,-6.5807,-6.5897,-6.569,-6.5192,-6.4848,-6.4807,-6.5159,-6.5426,-6.5346,-6.4827,-6.3589,-6.2235,-6.0886,-5.9401,-5.8033,-5.6851,-5.4695,-5.355,-5.3516,-5.183,-5.044,-4.9307,-4.9219,-4.9482,-5.0106,-5.2124,-5.363,-5.478,-5.6626,-5.735,-5.7396,-5.7264,-5.7255,-5.7149,0.0,0.0,0.0,0.0,0.0,0.0,0.0,0.0,0.0,0.0,0.0,0.0,0.0,0.0,0.0,0.0,0.0,0.0,-0.5027,-0.5665,-0.6992,-0.9042,-1.0347,-1.0947,-1.0781,-0.6871,-0.4355,-0.3341,-0.4942,-0.563,-0.563,-1.2938,-1.0346,0.0494,0.1543,0.2994,0.5197,1.3318,0.5186,-1.3697,-1.9812,-2.378,-2.6123,-2.6478,-3.067,-3.6268,-3.5467,-3.4781,-3.401,-3.2568,-3.1811,-3.1765,-3.3562,-3.4831,-3.6059,-3.7859,-4.1335,-4.5196,-4.8327,-5.1706,-5.4628,-5.5906,-5.6366,-5.6575,-5.6873,-5.7044,-5.5963,-5.172,-4.7905,-4.4256,-4.0614,-4.4091,-4.7516,-4.7766,-5.6084,-6.268,-6.3159,-6.3489,-6.4247,-6.575,-6.575,-6.5688,-6.5859,-6.5897,-6.5895,-6.5843,-6.5664,-6.5712,-6.6048,-6.539,-6.4994,-6.5016,-6.3652,-6.2235,-6.0886,-5.8534,-5.7231,-5.6908,-5.5687,-5.4825,-5.4227,-5.4179,-5.3256,-5.1862,-5.1855,-5.2333,-5.3092,-5.2752,-5.3855,-5.5809,-5.6262,-5.6781,-5.7312,-5.7829,-5.8038,-5.7986,0.0,0.0,0.0,0.0,0.0,0.0,0.0,0.0,0.0,0.0,0.0,0.0,0.0,0.0,0.0,0.0,0.0,0.0,0.0,-0.8869,-0.9952,-1.175,-1.2452,-1.2998,-1.3434,-1.1306,-1.0286,-1.0563,-1.5046,-1.4964,-1.0828,-2.203,-1.9123,-0.4482,-0.3735,0.0327,0.6705,0.846,0.2272,0.0,0.0,-2.862,-3.0308,-3.1223,-3.3183,-3.552,-3.6077,-3.5801,-3.5277,-3.6098,-3.5539,-3.4788,-3.6679,-3.7923,-3.9357,-4.2691,-4.5758,-4.879,-5.2143,-5.4516,-5.6311,-5.7263,-5.689,-5.5845,-5.4127,-5.3626,-5.201,-4.6708,-4.3057,-4.0013,-3.7352,-4.2448,-4.6682,-4.5456,-5.4435,-6.1666,-6.2049,-6.235,-6.3397,-6.5628,-6.5897,-6.5897,-6.5897,-6.5943,-6.6012,-6.61,-6.6007,-6.607,-6.6242,-6.5316,-6.4636,-6.4304,-6.2583,-6.0943,-5.9365,-5.701,-5.6346,-5.7381,-5.6091,-5.5238,-5.4781,-5.5287,-5.4501,-5.2803,-5.3183,-5.3804,-5.4514,-5.3845,-5.4648,-5.6348,-5.6931,-5.7397,-5.7865,-5.8582,-5.8819,-5.8819,0.0,0.0,0.0,0.0,0.0,0.0,0.0,0.0,0.0,0.0,0.0,0.0,0.0,0.0,0.0,0.0,0.0,0.0,0.0,0.0,-1.2206,-1.3645,-1.4373,-1.5375,-1.6754,-1.7113,-1.7702,-1.8545,-2.4597,-2.9061,-3.1946,-3.4665,-3.0812,-2.1348,-1.0892,-0.1962,0.4365,-0.8817,-1.3411,-1.3155,-2.7997,-3.3612,-3.3268,0.0,-3.4595,-3.4346,-3.5674,-3.6606,-3.7629,-4.0782,-4.0263,-3.8472,-3.9473,-3.9998,-4.1443,-4.7453,-4.9271,-5.0562,-5.6553,-5.7159,-5.6671,-5.9051,-5.7838,-5.4978,-5.067,-4.9586,-4.7777,-4.189,-3.9065,-3.7412,-3.6696,-4.2193,-4.5916,-4.3101,-5.0737,-5.7533,-5.9117,-5.9303,-6.0958,-6.5394,-6.5923,-6.5923,-6.5933,-6.6007,-6.612,-6.6148,-6.6131,-6.6053,-6.5925,-6.5095,-6.4033,-6.2746,-6.0895,-5.9095,-5.7338,-5.5662,-5.5898,-5.7997,-5.6273,-5.544,-5.5417,-5.5717,-5.4863,-5.314,-5.38,-5.4497,-5.5054,-5.4987,-5.5573,-5.6673,-5.7987,-5.8557,-5.874,-5.9562,-5.9858,-5.9858,0.0,0.0,0.0,0.0,0.0,0.0,0.0,0.0,0.0,0.0,-1.1671,-1.1122,0.0,0.0,0.0,0.0,0.0,0.0,0.0,0.0,0.0,-1.6908,-1.8385,-1.9506,-2.0205,-2.0279,-2.0711,-2.1489,-2.3701,-2.5811,-2.7785,-2.9041,-2.8466,-2.6257,-2.4189,-2.1915,-1.9898,-2.326,-2.537,-2.6717,-3.0559,-3.2773,-3.3882,-3.4493,0.0,0.0,-3.4562,-3.6157,-3.8602,-4.006,-4.1545,-4.3553,-4.7637,-4.9135,-4.9949,-5.2705,-5.3711,-5.4559,-5.7339,-5.8218,-5.8356,-5.8645,-5.7931,-5.5811,-5.0837,-4.9197,-4.6512,-3.8883,-3.764,-3.721,-3.4819,-3.841,-4.3359,-4.8279,-5.3528,-5.8792,-6.3999,-6.464,-6.4956,-6.5933,-6.599,-6.5919,-6.6049,-6.609,-6.6178,-6.6322,-6.6203,-6.58,-6.5064,-6.4093,-6.2311,-5.9672,-5.9201,-5.8377,-5.7026,-5.6638,-5.7024,-5.807,-5.7098,-5.6586,-5.6622,-5.6318,-5.5654,-5.4703,-5.474,-5.519,-5.594,-5.5453,-5.6025,-5.7302,-5.8297,-5.8939,-5.9502,-6.1074,-6.1627,-6.1743,0.0,0.0,0.0,0.0,0.0,0.0,0.0,-1.0534,-1.1614,-1.3503,-1.3834,-1.3809,-1.3506,-1.3651,-1.4102,0.0,0.0,0.0,0.0,0.0,0.0,0.0,-2.0863,-2.1965,-2.2993,-2.3671,-2.3955,-2.3802,0.0,-2.6747,-2.6995,-2.7841,-2.8489,-2.8904,-2.8621,-2.8452,-2.8391,-2.9617,-3.0713,-3.1715,-3.2921,-3.3918,-3.4641,0.0,0.0,0.0,-3.4993,-3.6582,-3.9104,-4.0255,-4.2882,-4.6195,-4.9423,-5.1028,-5.2153,-5.4327,-5.5216,-5.5962,-5.8449,-5.8812,-5.8702,-5.9719,-5.8687,-5.5501,-4.8236,-4.5852,-4.2719,-3.3936,-3.3504,-3.4441,-3.3489,-3.8001,-4.2931,-4.6201,-5.2895,-5.871,-6.1636,-6.4263,-6.5943,-6.607,-6.6028,-6.6069,-6.6228,-6.6309,-6.6346,-6.624,-6.5815,-6.5349,-6.4811,-6.3444,-6.1607,-5.9228,-5.8513,-5.7863,-5.7257,-5.6176,-5.6288,-5.7461,-5.6903,-5.6633,-5.6582,-5.7088,-5.6879,-5.6109,-5.6164,-5.6446,-5.6796,-5.6638,-5.6881,-5.7542,-5.8764,-5.9627,-6.0319,-6.1627,-6.2627,-6.3474,0.0,0.0,0.0,0.0,0.0,0.0,0.0,-1.2474,-1.3484,-1.4686,-1.599,-1.6514,-1.5836,-1.5954,-1.616,0.0,0.0,0.0,0.0,0.0,0.0,0.0,0.0,0.0,-2.531,0.0,0.0,-2.6124,-2.8233,0.0,0.0,0.0,0.0,0.0,-2.958,-2.9722,-3.0351,-3.1679,-3.2526,0.0,0.0,-3.4971,-3.5303,0.0,0.0,0.0,0.0,-3.6802,-3.8567,-4.015,-4.2848,-4.5879,-4.7408,-4.9328,-5.135,-5.354,-5.4507,-5.5676,-5.9265,-5.9608,-5.9337,-6.088,-5.9471,-5.5217,-4.5616,-4.2789,-3.9563,-3.0251,-3.0115,-3.2018,-3.3017,-3.7448,-4.1431,-4.2888,-4.9699,-5.5633,-5.8045,-6.1803,-6.474,-6.5974,-6.6165,-6.6212,-6.6374,-6.636,-6.6201,-6.59,-6.4998,-6.4372,-6.4232,-6.269,-6.105,-5.9319,-5.8434,-5.7819,-5.7456,-5.6027,-5.5899,-5.7028,-5.6611,-5.6376,-5.6379,-5.7418,-5.755,-5.7033,-5.7469,-5.7681,-5.7702,-5.7889,-5.7977,-5.8076,-5.9297,-6.0307,-6.1166,-6.205,-6.3435,-6.4897,0.0,0.0,0.0,0.0,0.0,0.0,0.0,-1.4067,-1.4738,-1.6753,-1.7547,-1.8109,-1.8561,-1.7622,-1.7285,0.0,0.0,0.0,0.0,0.0,0.0,0.0,0.0,0.0,0.0,0.0,0.0,-2.8753,-2.9697,0.0,0.0,0.0,0.0,0.0,0.0,-2.9176,-2.9458,-3.0161,0.0,0.0,0.0,0.0,0.0,0.0,0.0,0.0,0.0,-3.5855,-3.6172,-3.8525,-3.98,-4.068,-4.1654,-4.4865,-4.8562,-5.0052,-5.1348,-5.3581,-5.914,-6.1197,-6.1666,-6.1283,-5.9971,-5.5918,-4.4982,-4.2342,-3.9695,-3.0909,-3.0479,-3.2208,-3.3886,-3.4071,-3.6038,-4.2276,-4.3349,-4.6977,-5.7197,-5.8948,-6.0881,-6.5567,-6.626,-6.6374,-6.6387,-6.5814,-6.5349,-6.52,-6.3457,-6.2352,-6.2367,-6.1458,-6.0142,-5.8443,-5.9004,-5.8581,-5.7075,-5.7636,-5.78,-5.7529,-5.6777,-5.6415,-5.6379,-5.6527,-5.6736,-5.7054,-5.8129,-5.8598,-5.8597,-5.8748,-5.9178,-5.9748,-5.9708,-6.0634,-6.2089,-6.2897,-6.4282,-6.5859,0.0,0.0,0.0,0.0,0.0,0.0,-1.3514,-1.4562,-1.5636,-1.6686,-1.7762,-1.8586,-1.8794,-1.9032,-1.9429,-1.9863,0.0,0.0,0.0,0.0,0.0,0.0,0.0,0.0,0.0,0.0,-2.9589,-3.045,-3.0839,0.0,0.0,0.0,0.0,0.0,0.0,-2.89,-2.9386,-3.0442,0.0,0.0,0.0,0.0,0.0,0.0,0.0,0.0,0.0,0.0,-3.5855,-3.6712,-3.7977,-3.8831,-3.682,-3.8601,-4.258,-4.8497,-5.1041,-5.3348,-5.9794,-6.2038,-6.2474,-6.2065,-5.888,-5.3621,-4.511,-4.1062,-3.7124,-2.9991,-3.0277,-3.2125,-3.3345,-3.3757,-3.4994,-3.8132,-4.1362,-4.5028,-4.9524,-5.4963,-5.9522,-6.2223,-6.4452,-6.58,-6.5892,-6.5583,-6.4857,-6.3687,-6.3219,-6.2541,-6.1497,-6.1012,-6.0258,-5.9081,-5.9335,-5.8973,-5.7774,-5.8143,-5.7531,-5.6083,-5.6311,-5.6264,-5.5988,-5.6778,-5.7468,-5.8132,-5.9071,-5.9482,-5.9482,-5.9723,-6.0165,-6.076,-6.12,-6.2277,-6.3705,-6.4551,-6.5936,-6.7513,0.0,0.0,0.0,0.0,0.0,-1.37,-1.3756,-1.5039,-1.6327,-1.7036,-1.807,-1.8768,-1.898,-2.0172,-2.0999,-2.1268,-2.1668,0.0,0.0,0.0,0.0,0.0,0.0,0.0,0.0,0.0,-3.082,-3.1751,-3.1971,-3.1846,0.0,0.0,-3.0585,-2.997,0.0,0.0,0.0,0.0,0.0,0.0,0.0,0.0,0.0,0.0,0.0,0.0,0.0,0.0,0.0,0.0,0.0,-3.7313,-3.4023,-3.4345,-3.7323,-4.4479,-4.8415,-5.1831,-5.7991,-6.1257,-6.2827,-6.256,-5.8091,-5.2099,-4.5541,-4.0437,-3.5437,-2.9616,-3.0017,-3.1698,-3.2593,-3.329,-3.4107,-3.5164,-3.885,-4.216,-4.3904,-5.008,-5.5255,-5.7485,-6.0227,-6.2299,-6.3193,-6.395,-6.3799,-6.2367,-6.2677,-6.2277,-6.0781,-6.0819,-6.0435,-5.9504,-5.9473,-5.9111,-5.8319,-5.815,-5.7149,-5.5285,-5.5768,-5.5769,-5.539,-5.6763,-5.7863,-5.8693,-5.9902,-6.0382,-6.0417,-6.0618,-6.1074,-6.1654,-6.2238,-6.3457,-6.5051,-6.5667,-6.7128,-6.8859,0.0,0.0,0.0,0.0,0.0,0.0,-1.5274,-1.5965,-1.7024,-1.8501,-1.8715,-1.898,-1.9708,-2.0815,-2.1801,-2.2511,-2.2603,0.0,0.0,0.0,0.0,0.0,0.0,0.0,0.0,0.0,-3.2237,-3.2596,-3.3403,-3.3306,-3.25,-3.25,-3.1986,-3.1162,0.0,0.0,0.0,0.0,0.0,0.0,0.0,0.0,-3.5723,0.0,0.0,0.0,0.0,0.0,0.0,0.0,0.0,0.0,0.0,-3.3166,-3.3706,-3.6656,-4.2085,-4.815,-5.2738,-5.8318,-6.2767,-6.2546,-5.8091,-5.225,-4.6231,-4.0851,-3.5587,-3.0288,-2.9907,-3.0793,-3.1747,-3.1971,-3.26,-3.4414,-3.464,-3.6635,-4.251,-4.4214,-4.6605,-5.1435,-5.3188,-5.5026,-5.7633,-6.0356,-6.1808,-6.153,-6.1403,-6.0957,-6.0056,-6.0642,-6.055,-5.9504,-5.9473,-5.9111,-5.8319,-5.7851,-5.6958,-5.5686,-5.5319,-5.4907,-5.456,-5.6247,-5.7472,-5.8418,-6.0429,-6.1289,-6.1284,-6.1444,-6.1876,-6.2471,-6.2361,-6.3763,-6.5897,-6.5897,-6.7513,-6.9552,0.0,0.0,0.0,0.0,0.0,0.0,0.0,-1.5444,-1.6083,-1.7079,-1.798,-1.8821,-1.9613,-2.1564,-2.3118,-2.385,-2.3898,0.0,0.0,0.0,0.0,0.0,0.0,0.0,0.0,-3.1994,-3.3152,-3.4046,-3.4041,-3.3792,-3.3226,-3.3069,-3.2466,-3.1588,-3.1288,-3.1105,0.0,0.0,0.0,0.0,0.0,-3.6277,-3.6579,0.0,0.0,0.0,0.0,0.0,0.0,0.0,0.0,0.0,0.0,0.0,0.0,-3.2427,-3.705,-4.2925,-4.7897,-5.1552,-5.3813,-5.3165,-4.905,-4.4368,-4.1287,-3.6489,-3.2026,-2.9732,-3.0432,-3.1728,-3.2616,-3.2898,-3.351,-3.5259,-3.5393,-3.637,-3.9443,-4.4713,-4.9269,-5.2058,-5.6946,-6.0366,-6.1032,-6.1502,-6.1641,-6.1364,-6.1976,-6.1924,-6.1066,-6.1668,-6.102,-5.8889,-5.9258,-5.8706,-5.7016,-5.7425,-5.6519,-5.4423,-5.5436,-5.5847,-5.577,-5.7175,-5.8432,-5.9637,-6.143,-6.2121,-6.2075,-6.3032,-6.3681,-6.4138,-6.4844,-6.578,-6.6859,-6.8052,-6.9013,-6.9667,0.0,0.0,0.0,0.0,0.0,0.0,0.0,-1.5234,-1.5738,-1.6765,-1.7622,-1.8621,-1.9909,-2.1584,-2.3139,-2.434,-2.4584,0.0,0.0,0.0,0.0,0.0,0.0,0.0,-3.1346,-3.2736,-3.4023,-3.5148,-3.4921,-3.4657,-3.4227,-3.3927,-3.3255,-3.2191,-3.1936,-3.1792,0.0,0.0,0.0,0.0,-3.5658,-3.6202,-3.6501,0.0,0.0,0.0,0.0,0.0,0.0,0.0,0.0,0.0,0.0,0.0,0.0,0.0,-3.3158,-3.7207,-4.2318,-4.5942,-4.817,-4.7654,-4.3774,-3.9803,-3.8787,-3.4435,-3.0464,-2.9919,-3.0639,-3.1566,-3.211,-3.231,-3.2964,-3.4676,-3.487,-3.5937,-3.9256,-4.4184,-4.8574,-5.1655,-5.6813,-6.0153,-6.0252,-6.0878,-6.1329,-6.1432,-6.2022,-6.2019,-6.1133,-6.1442,-6.0575,-5.8256,-5.88,-5.841,-5.6872,-5.6573,-5.5701,-5.4241,-5.5131,-5.5769,-5.6142,-5.7551,-5.8805,-5.997,-6.1733,-6.2454,0.0,-6.3728,-6.4725,-6.5549,-6.6162,-6.6916,-6.7841,-6.922,-6.9475,-6.9206,0.0,0.0,0.0,0.0,0.0,0.0,0.0,-1.5468,-1.5968,-1.7413,-1.77,-1.8533,-2.0557,-2.1297,-2.2393,-2.4142,0.0,0.0,0.0,0.0,0.0,0.0,0.0,0.0,-3.2375,-3.361,-3.4795,-3.5945,-3.5945,-3.5744,-3.5362,-3.5018,-3.4165,-3.2943,-3.2688,-3.2598,-3.266,0.0,0.0,0.0,-3.527,-3.5588,0.0,0.0,0.0,0.0,0.0,0.0,0.0,0.0,0.0,0.0,0.0,0.0,0.0,0.0,0.0,0.0,0.0,-4.1006,-4.4645,-4.4765,-4.1247,-3.7808,-3.7997,-3.4171,0.0,-3.0586,-3.0598,-3.0599,-3.0691,-3.0763,-3.1392,-3.3203,-3.3387,-3.5359,-4.1332,-4.3402,-4.6059,-5.081,-5.388,-5.5791,-5.6152,-5.8764,-6.0747,-6.1438,-6.1484,-6.1133,-6.0351,-6.0195,-5.9375,-5.7734,-5.8182,-5.8084,-5.7422,-5.5548,-5.4688,-5.4838,-5.4663,-5.5016,-5.588,-5.7503,-5.8775,-5.9688,-6.1582,-6.2509,-6.2729,-6.3842,-6.5191,-6.6577,-6.6524,-6.7348,-6.8684,-6.9373,-6.909,-6.8398,0.0,0.0,0.0,0.0,0.0,0.0,0.0,0.0,0.0,0.0,-1.8871,-2.0169,-2.1212,-2.2716,-2.3817,0.0,0.0,0.0,0.0,0.0,0.0,0.0,0.0,0.0,-3.2463,-3.3844,-3.5131,-3.6196,-3.6196,-3.6178,-3.6027,-3.5544,-3.4659,-3.3442,-3.3478,-3.3588,-3.3843,-3.4323,0.0,0.0,-3.5369,-3.5588,0.0,0.0,0.0,0.0,-3.573,-3.5687,0.0,0.0,0.0,0.0,0.0,0.0,0.0,0.0,-3.0802,-3.0444,-3.1845,0.0,-3.5123,-3.5139,-3.4281,-3.3395,0.0,-3.1952,-3.0533,-3.0598,-3.1119,-3.1579,-3.1598,-3.1728,-3.2421,-3.4101,-3.3777,-3.5593,-4.2101,-4.8801,-5.3338,-5.4136,-5.7,-5.7612,-5.44,-5.7145,-5.9179,-5.9244,-5.9435,-5.9478,-5.9258,-5.9375,-5.8906,-5.7734,-5.7675,-5.6913,-5.5395,-5.5396,-5.481,-5.365,-5.5386,-5.6441,-5.6818,-5.842,-5.9612,-6.0612,-6.2491,-6.3318,-6.3518,-6.5299,-6.6195,-6.6516,-6.7112,-6.7464,-6.7774,-6.8448,-6.859,-6.8321,0.0,0.0,0.0,0.0,0.0,0.0,0.0,0.0,0.0,0.0,0.0,-2.0273,-2.0856,-2.2023,0.0,0.0,0.0,0.0,0.0,0.0,0.0,0.0,0.0,-3.2182,-3.2625,-3.3977,-3.5305,-3.6555,-3.6555,-3.6555,-3.6555,-3.6156,-3.5275,-3.4078,-3.4006,-3.3846,-3.3701,-3.4544,-3.4963,-3.5102,-3.5383,0.0,0.0,0.0,0.0,0.0,-3.5841,-3.5755,0.0,-3.5621,-3.5267,-3.4786,0.0,0.0,0.0,0.0,-3.0841,-3.01,-3.019,-3.0914,-3.1652,-3.1841,-3.1884,-3.1932,-3.1994,-3.1247,-3.0564,-3.0633,-3.0975,-3.13,-3.133,-3.3063,-3.4409,-3.4093,-3.6921,-4.0688,-4.5036,-4.962,-5.31,-5.4545,-5.5911,-5.6519,-5.59,-5.7137,-5.8118,-5.8303,-5.8498,-5.8538,-5.8359,-5.8515,-5.8164,-5.7226,-5.6973,-5.6524,-5.5801,-5.536,-5.504,-5.4822,-5.5849,-5.6551,-5.7078,-5.8681,-5.9688,-6.0319,-6.2305,-6.3334,-6.3726,-6.5374,-6.6478,-6.7103,-6.739,-6.7528,-6.7592,-6.8188,-6.7667,-6.6705,0.0,0.0,0.0,0.0,0.0,0.0,0.0,0.0,0.0,0.0,0.0,0.0,0.0,0.0,0.0,0.0,0.0,0.0,0.0,0.0,0.0,0.0,-3.0699,-3.2068,-3.3007,-3.4162,-3.5441,-3.6837,-3.688,-3.6929,-3.6929,-3.664,-3.5873,-3.4693,-3.4338,-3.3873,-3.3409,-3.4566,-3.5102,-3.519,-3.5398,0.0,0.0,0.0,0.0,0.0,0.0,0.0,0.0,-3.5716,-3.5534,-3.5213,-3.4604,0.0,0.0,0.0,0.0,0.0,-3.0028,-3.1187,-3.2311,-3.1739,-3.1753,-3.1865,-3.1775,-3.1157,-3.0642,-3.0852,-3.0697,-3.08,-3.1718,-3.4348,-3.5949,-3.4495,-4.1145,-4.715,-4.91,-4.9979,-5.1268,-5.3624,-5.3726,-5.4593,-5.7059,-5.6983,-5.7021,-5.7619,-5.7779,-5.7758,-5.7493,-5.7617,-5.7344,-5.6601,-5.6285,-5.6381,-5.6921,-5.5538,-5.5434,-5.6441,-5.6241,-5.6511,-5.7183,-5.8786,-5.9566,-5.9796,-6.1677,-6.2938,-6.3708,-6.5016,-6.6406,-6.7688,-6.7516,-6.7472,-6.7514,-6.7757,-6.6436,-6.4782,0.0,0.0,0.0,0.0,0.0,0.0,0.0,0.0,0.0,0.0,0.0,0.0,0.0,0.0,0.0,0.0,0.0,0.0,0.0,0.0,0.0,-3.0555,-3.191,-3.3085,-3.3953,-3.4732,-3.558,-3.6548,-3.6842,-3.6977,-3.6969,-3.6651,-3.5873,-3.4693,-3.4338,-3.4395,-3.4791,-3.5013,-3.5223,-3.5427,-3.5493,0.0,0.0,0.0,0.0,0.0,0.0,0.0,0.0,-3.5655,-3.5088,-3.4549,-3.4855,0.0,0.0,0.0,0.0,0.0,-3.0098,-3.3738,-3.651,-3.1794,-3.1213,-3.1621,-3.0894,-3.0572,-3.0664,-3.1543,-3.1092,-3.1966,-3.6453,-3.4814,-3.4105,-3.8053,-4.4001,-4.9464,-5.3268,-5.6871,-5.7563,-5.3481,-5.5285,-5.526,-5.1197,-5.3324,-5.5093,-5.553,-5.5788,-5.6071,-5.6407,-5.666,-5.6758,-5.6601,-5.5942,-5.58,-5.6239,-5.6417,-5.6006,-5.4879,-5.7117,-5.8189,-5.8141,-5.9392,-6.0189,-6.0666,-6.1733,-6.2728,-6.3726,-6.5522,-6.6446,-6.6873,-6.7422,-6.7229,-6.6464,-6.5517,-6.4936,-6.4462,0.0,0.0,0.0,0.0,0.0,0.0,0.0,0.0,0.0,0.0,0.0,0.0,0.0,0.0,0.0,0.0,0.0,0.0,0.0,0.0,-3.1253,-3.2317,-3.3073,-3.3684,-3.4088,-3.4802,-3.5483,-3.6076,-3.624,-3.6304,-3.6292,-3.592,-3.5212,-3.4223,-3.4547,-3.4585,-3.4432,-3.5063,-3.5383,-3.5493,0.0,0.0,0.0,0.0,0.0,0.0,0.0,0.0,0.0,0.0,-3.4301,-3.3581,-3.3708,0.0,0.0,0.0,0.0,0.0,-2.9893,-3.2311,-3.4874,-3.4675,-3.7409,-3.9878,-3.9039,-3.8373,-3.7579,-3.6301,-3.5297,-3.5568,-3.8514,-3.9394,-4.21,-4.9449,-4.9411,-4.9897,-5.4112,-5.4203,-5.3502,-5.2487,-5.3062,-5.3188,-5.2196,-5.3344,-5.4345,-5.4852,-5.5267,-5.5747,-5.6285,-5.6507,-5.6561,-5.6507,-5.6092,-5.573,-5.5329,-5.5961,-5.6228,-5.6114,-5.7037,-5.7869,-5.8609,-5.9635,-6.037,-6.0858,-6.1927,-6.3053,-6.4243,-6.5373,-6.6105,-6.6486,-6.6223,-6.5961,-6.5531,-6.4359,-6.4205,-6.4462,0.0,0.0,0.0,0.0,0.0,0.0,0.0,0.0,0.0,0.0,0.0,0.0,0.0,0.0,0.0,0.0,0.0,0.0,0.0,-3.0776,-3.2317,-3.356,-3.377,-3.3964,-3.4255,-3.4772,-3.5155,-3.5412,-3.5454,-3.553,-3.5677,-3.5303,-3.4786,-3.4228,-3.4852,-3.477,-3.428,-3.5119,-3.552,-3.5522,0.0,0.0,0.0,0.0,0.0,0.0,0.0,0.0,0.0,0.0,0.0,0.0,0.0,0.0,0.0,-3.0652,-3.0243,-2.9941,-2.9753,-3.1379,-3.3876,-3.7077,-4.078,-4.4012,-4.5551,-4.4344,-4.2601,-4.1496,-4.0521,-4.0188,-4.1131,-4.3962,-4.8515,-5.5781,-5.2669,-5.0743,-5.4792,-5.2356,-5.0797,-5.2532,-5.1855,-5.2084,-5.4228,-5.4047,-5.4149,-5.4939,-5.5306,-5.5747,-5.638,-5.6517,-5.6558,-5.6391,-5.6154,-5.5625,-5.4732,-5.5078,-5.5914,-5.7235,-5.6973,-5.7641,-5.9159,-6.0129,-6.0786,-6.1166,-6.2498,-6.3751,-6.496,-6.5643,-6.6108,-6.6318,-6.55,-6.4977,-6.4559,-6.3659,-6.3743,-6.4232,0.0,0.0,0.0,0.0,0.0,0.0,0.0,0.0,0.0,0.0,0.0,0.0,0.0,0.0,0.0,0.0,0.0,0.0,0.0,-3.1285,-3.267,-3.356,-3.3508,-3.3941,-3.4996,-3.4687,-3.4574,-3.4588,-3.4713,-3.5101,-3.5684,-3.535,-3.5262,-3.5364,-3.5168,-3.523,-3.5472,-3.5496,-3.556,-3.5599,-3.5534,0.0,0.0,0.0,0.0,0.0,0.0,0.0,0.0,0.0,0.0,0.0,0.0,0.0,-3.1168,-3.0435,-3.0528,-3.0658,-2.9903,-3.3519,-3.742,-3.7021,-3.4942,-3.5256,-4.3857,-4.1983,-3.9991,-4.5346,-4.5747,-4.5454,-4.6465,-4.631,-4.6466,-4.7816,-5.0338,-5.3383,-5.7057,-5.735,-5.66,-5.5057,-5.4802,-5.4648,-5.4406,-5.4047,-5.4375,-5.5712,-5.5633,-5.5747,-5.638,-5.6517,-5.6558,-5.6391,-5.5862,-5.5287,-5.4726,-5.4205,-5.4759,-5.6399,-5.7552,-5.8769,-6.0032,-6.1373,-6.1973,-6.2098,-6.3732,-6.4962,-6.5909,-6.7066,-6.71,-6.6396,-6.6321,-6.5109,-6.3407,-6.332,-6.3358,-6.3397,0.0,0.0,0.0,0.0,0.0,0.0,0.0,0.0,0.0,0.0,0.0,0.0,0.0,0.0,0.0,0.0,0.0,0.0,0.0,-3.248,-3.3707,-3.4255,-3.3552,-3.3521,-3.4268,-3.3916,-3.3965,-3.451,-3.4608,-3.4749,-3.4979,-3.5352,-3.5291,-3.4885,-3.531,-3.4953,-3.4132,-3.468,-3.4836,-3.4796,-3.4781,-3.5046,0.0,0.0,0.0,0.0,0.0,0.0,0.0,0.0,-3.1642,-3.0868,-3.0701,-3.0549,-3.0402,-2.9861,-3.002,-3.0257,-2.9969,-3.3577,-3.7501,-3.7683,-3.6403,-3.7693,-4.7442,-4.8073,-4.6835,-4.7559,-4.9101,-4.9727,-4.7532,-5.079,-5.3001,-5.0657,-5.3474,-5.6335,-5.7509,-5.6942,-5.5898,-5.4566,-5.4148,-5.3829,-5.3445,-5.3907,-5.4625,-5.557,-5.5839,-5.6115,-5.6512,-5.6561,-5.651,-5.6269,-5.6053,-5.5516,-5.4579,-5.4856,-5.5585,-5.6742,-5.7225,-5.885,-6.1381,-6.1867,-6.2651,-6.3705,-6.432,-6.5118,-6.6031,-6.6062,-6.5946,-6.5652,-6.5042,-6.4166,-6.3358,-6.3897,-6.4128,-6.4205,0.0,0.0,0.0,0.0,0.0,0.0,0.0,0.0,0.0,0.0,0.0,0.0,0.0,0.0,0.0,0.0,0.0,0.0,-3.1154,-3.2847,-3.3919,-3.4153,-3.3156,-3.2884,-3.3525,-3.2694,-3.271,-3.3693,-3.3765,-3.3883,-3.4137,-3.4925,-3.5022,-3.451,-3.51,-3.4679,-3.3646,-3.3972,-3.4194,-3.4351,-3.4303,-3.4786,0.0,0.0,0.0,0.0,0.0,0.0,0.0,0.0,-3.0739,-3.0095,-2.9732,-2.9729,-2.9845,-2.9513,-3.0481,-3.1659,-3.1659,-3.4148,-3.7167,-3.9029,-3.8274,-3.9613,-4.9382,-5.0625,-5.004,-5.125,-5.241,-5.23,-4.9405,-5.2627,-5.4723,-5.1752,-5.4167,-5.62,-5.5535,-5.4774,-5.397,-5.3133,-5.2981,-5.3053,-5.347,-5.4123,-5.4895,-5.575,-5.6015,-5.6076,-5.6071,-5.6309,-5.6257,-5.5746,-5.5967,-5.5595,-5.4516,-5.5314,-5.6304,-5.7406,-5.7522,-5.9125,-6.2136,-6.2651,-6.3512,-6.4641,-6.523,-6.5715,-6.6089,-6.5732,-6.5134,-6.4414,-6.3973,-6.3761,-6.382,-6.4705,-6.5166,-6.5436,0.0,0.0,0.0,0.0,0.0,0.0,0.0,0.0,0.0,0.0,0.0,0.0,0.0,0.0,0.0,0.0,0.0,0.0,-3.0549,-3.2091,-3.2999,-3.3007,-3.2203,-3.2166,-3.297,-3.1165,-3.0762,-3.1903,-3.1967,-3.2423,-3.3321,-3.4119,-3.4471,-3.4471,-3.4471,-3.452,-3.4491,-3.3568,-3.3686,-3.4464,-3.4351,-3.4747,-3.5391,0.0,0.0,0.0,0.0,0.0,0.0,0.0,-2.9861,-2.9642,-2.9474,-2.9533,-2.968,-2.9474,-3.2162,-3.5234,-3.5234,-3.5585,-3.6942,-4.1009,-3.953,-3.951,-4.8671,-4.7759,-4.7615,-5.6938,-5.5844,-5.3067,-5.2738,-5.102,-4.9525,-4.9201,-5.1203,-5.2326,-5.09,-5.1192,-5.1438,-5.1058,-5.1654,-5.2826,-5.4799,-5.4672,-5.5047,-5.6383,-5.6134,-5.5588,-5.4946,-5.5725,-5.5734,-5.4739,-5.5498,-5.5434,-5.4484,-5.5314,-5.6592,-5.8287,-5.8615,-5.9946,-6.2175,-6.3858,-6.4603,-6.4718,-6.6577,-6.6882,-6.6127,-6.6439,-6.4998,-6.269,-6.3495,-6.4131,-6.4705,-6.559,-6.6397,-6.6974,0.0,0.0,0.0,0.0,0.0,0.0,0.0,0.0,0.0,0.0,0.0,0.0,0.0,0.0,0.0,0.0,0.0,0.0,-3.0885,-3.1844,-3.2364,-3.2157,-3.1723,-3.17,-3.2128,-3.1416,-3.1062,-3.1044,-3.1682,-3.217,-3.2574,-3.3975,-3.4012,-3.2916,-3.4129,-3.3664,-3.2027,-3.2334,-3.2589,-3.2786,-3.3351,-3.3725,-3.3895,0.0,0.0,0.0,0.0,0.0,0.0,0.0,0.0,0.0,-2.9474,-2.9533,-2.9715,-2.9644,-3.016,-3.0844,-3.0923,-3.5034,-3.8977,-3.7417,-4.1005,-4.5659,-4.8362,-4.8257,-4.9365,-5.5443,-5.3276,-5.0201,-5.0124,-5.1366,-5.1286,-4.7873,-4.976,-5.1404,-5.0602,-4.9577,-4.9295,-5.0182,-5.0724,-5.1559,-5.2828,-5.3616,-5.4358,-5.5168,-5.5117,-5.5278,-5.5802,-5.5501,-5.5384,-5.5536,-5.5226,-5.4878,-5.4484,-5.6201,-5.718,-5.738,-5.968,-6.1607,-6.3147,-6.3284,-6.3603,-6.4078,-6.4641,-6.4804,-6.4669,-6.4139,-6.3388,-6.265,-6.4007,-6.452,-6.4782,-6.6205,-6.6551,-6.6205,0.0,0.0,0.0,0.0,0.0,0.0,0.0,0.0,0.0,0.0,-2.5409,-2.6534,0.0,0.0,0.0,-2.9308,-3.0186,0.0,0.0,-3.0864,-3.1291,-3.0717,-3.0844,-3.1122,-3.1478,-3.1303,-3.1207,-3.1192,-3.137,-3.1747,-3.2226,-3.3555,-3.3828,-3.3203,-3.3865,-3.3121,-3.1403,-3.1559,-3.1523,-3.1502,-3.2427,-3.2932,-3.3213,0.0,0.0,0.0,0.0,0.0,0.0,0.0,0.0,0.0,-2.927,-2.9332,-2.9662,-3.0866,-3.1269,-3.1893,-3.4508,-3.8203,-4.1428,-4.1906,-4.531,-4.8702,-4.9386,-5.0598,-5.2381,-5.5337,-5.3556,-5.1365,-5.126,-5.2152,-5.1808,-4.8436,-4.9176,-4.9772,-4.8598,-4.8055,-4.826,-4.9626,-5.0268,-5.114,-5.2611,-5.312,-5.3465,-5.3822,-5.415,-5.4323,-5.4249,-5.4404,-5.4564,-5.4821,-5.4666,-5.466,-5.4731,-5.6302,-5.713,-5.7256,-5.93,-6.0933,-6.2182,-6.2887,-6.343,-6.3798,-6.3526,-6.3487,-6.3633,-6.3029,-6.2896,-6.3185,-6.4721,-6.5412,-6.573,-6.6744,-6.6782,-6.6333,0.0,0.0,-1.507,-1.6826,0.0,0.0,0.0,0.0,0.0,-2.5172,-2.5559,-2.623,0.0,0.0,0.0,-2.9024,-2.9295,-2.8994,0.0,-2.945,-2.9931,-2.9035,-2.9843,-3.0583,-3.1222,-3.1072,-3.1293,-3.1897,-3.1075,-3.1157,-3.2109,-3.3008,-3.3789,-3.4453,-3.3584,-3.2753,-3.1934,-3.0914,-3.0499,-3.0585,-3.1509,-3.2331,-3.2894,-3.2188,0.0,0.0,0.0,0.0,0.0,0.0,0.0,0.0,-2.9085,-2.9049,-2.9576,-3.241,-3.4054,-3.6192,-4.2084,-4.306,-4.3973,-5.0587,-5.0741,-4.9694,-5.1491,-5.3646,-5.5382,-5.5544,-5.5169,-5.4738,-5.4321,-5.2902,-5.1342,-5.0101,-4.9064,-4.7791,-4.578,-4.6688,-4.8102,-4.9361,-5.0109,-5.136,-5.3498,-5.2972,-5.2539,-5.2463,-5.3162,-5.2908,-5.1459,-5.2755,-5.3479,-5.3276,-5.399,-5.4588,-5.5015,-5.5935,-5.6725,-5.7461,-5.8061,-5.8924,-6.0094,-6.2455,-6.3539,-6.3555,-6.2969,-6.2812,-6.3008,-6.2851,-6.3238,-6.4053,-6.5439,-6.6379,-6.7,-6.7013,-6.6987,-6.691,0.0,0.0,-1.738,-1.7777,0.0,0.0,0.0,0.0,-2.4338,-2.514,-2.6598,-2.7591,-2.7693,-2.8933,0.0,-2.9704,-2.9547,-2.9279,-2.9089,-2.8535,-2.8478,-2.8998,-3.0393,-3.1695,-3.2863,-3.2185,-3.1866,-3.1897,-3.1026,-3.082,-3.1211,-3.2695,-3.3164,-3.2734,-3.2538,-3.1948,-3.0997,-2.9391,-2.9107,-2.9745,-3.0618,-3.1075,-3.1288,-3.166,-3.1331,0.0,0.0,0.0,0.0,0.0,0.0,0.0,-2.9637,-2.9512,-2.9333,-3.0978,-3.2699,-3.4554,-3.6832,-4.0914,-4.5109,-4.7555,-5.0076,-5.2308,-5.3593,-5.3162,-5.2217,-5.1267,-5.2076,-5.2641,-5.1841,-5.1209,-5.0395,-4.9159,-4.8048,-4.6895,-4.5664,-4.6343,-4.7557,-4.9289,-5.0285,-5.1401,-5.2715,-5.2388,-5.1935,-5.161,-5.1738,-5.1839,-5.1831,-5.1851,-5.245,-5.3708,-5.3596,-5.3857,-5.464,-5.6207,-5.6742,-5.6317,-5.797,-5.9251,-6.0176,-6.0981,-6.1646,-6.2148,-6.1992,-6.2344,-6.2969,-6.2695,-6.3466,-6.4817,-6.4894,-6.5442,-6.6167,-6.6154,-6.6154,-6.6128,0.0,0.0,0.0,0.0,0.0,0.0,0.0,0.0,-2.4547,-2.4964,-2.6392,-2.7153,-2.6691,-2.7892,0.0,0.0,-2.8315,-2.8402,-2.7809,-2.7908,-2.8215,-2.8688,-3.0207,-3.1384,-3.2241,-3.1881,-3.1761,-3.1897,-3.1047,-3.0927,-3.1562,-3.277,-3.316,-3.2734,-3.2225,-3.1315,-3.0033,-2.8671,-2.8106,-2.8223,-2.9152,-2.9539,-2.9605,-2.9952,-2.9808,-2.9357,-2.92,0.0,0.0,0.0,0.0,0.0,0.0,0.0,-2.9384,-3.1403,-3.1936,-3.3012,-3.8161,-4.1682,-4.4862,-4.8776,-5.1106,-5.2601,-5.3038,-5.2478,-5.1499,-5.0464,-5.1011,-5.1411,-5.0673,-5.0461,-4.9847,-4.8161,-4.7375,-4.6767,-4.6151,-4.6413,-4.7668,-5.0497,-5.0565,-5.1061,-5.2738,-5.1966,-5.1229,-5.1049,-5.1026,-5.1196,-5.1644,-5.1625,-5.2371,-5.3918,-5.3935,-5.4361,-5.5275,-5.6256,-5.6498,-5.6078,-5.7595,-5.9022,-6.0334,-6.0893,-6.1353,-6.1719,-6.1719,-6.1953,-6.2383,-6.2461,-6.3273,-6.4424,-6.4116,-6.4782,-6.5856,-6.5449,-6.5564,-6.5897,0.0,0.0,0.0,0.0,0.0,0.0,0.0,0.0,0.0,-2.501,-2.6016,-2.658,-2.6131,-2.6764,-2.686,0.0,0.0,0.0,-2.638,-2.7682,-2.8525,-2.8619,-2.9839,-3.0744,-3.1184,-3.1227,-3.1444,-3.1897,-3.1047,-3.1161,-3.2226,-3.2955,-3.3348,-3.3359,-3.2297,-3.0941,-2.9318,-2.8255,-2.7394,-2.6845,-2.764,-2.8071,-2.8242,-2.8149,-2.812,-2.8198,-2.8663,-2.8316,-2.7815,-2.8936,0.0,0.0,0.0,0.0,-2.9219,-3.1883,-3.164,-3.2309,-4.0405,-4.3043,-4.4972,-5.1118,-5.2389,-5.2087,-5.2064,-5.1907,-5.1627,-5.1183,-5.0998,-5.0702,-5.0095,-5.0025,-4.9356,-4.7302,-4.696,-4.6906,-4.6844,-4.6984,-4.8411,-5.2001,-5.1035,-5.0885,-5.301,-5.1664,-5.0577,-5.0496,-5.044,-5.0598,-5.0994,-5.1491,-5.2484,-5.3872,-5.442,-5.5165,-5.6057,-5.6184,-5.6251,-5.6358,-5.7557,-5.8936,-6.043,-6.1288,-6.1679,-6.1719,-6.1719,-6.1797,-6.1953,-6.234,-6.2997,-6.3757,-6.3271,-6.4075,-6.5365,-6.4628,-6.4949,-6.5705,0.0,0.0,0.0,0.0,0.0,0.0,0.0,0.0,0.0,0.0,-2.7028,-2.7798,-2.8022,-2.7507,-2.7272,-2.747,-2.7046,-2.6995,-2.75,0.0,0.0,-2.9403,-2.9978,-3.0813,-3.1996,-3.1335,-3.1245,-3.1897,-3.1047,-3.1161,-3.2226,-3.3007,-3.3398,-3.3359,-3.2411,-3.104,-2.9305,-2.7605,-2.68,-2.6738,-2.6868,-2.7385,-2.8086,-2.7852,-2.7486,-2.7123,-2.7258,-2.653,-2.5757,-2.7543,-2.713,0.0,0.0,0.0,-2.784,-2.9843,-3.1848,-3.3941,-3.6355,-4.2102,-4.8211,-5.1339,-5.2098,-5.2354,-5.3299,-5.1962,-5.0823,-5.1831,-5.1425,-5.0649,-4.9751,-4.9276,-4.8566,-4.7207,-4.6802,-4.6774,-4.7179,-4.8299,-5.0082,-5.2672,-5.206,-5.1927,-5.3259,-5.1562,-5.0156,-4.9708,-4.9457,-4.9454,-4.982,-5.0601,-5.1802,-5.3503,-5.428,-5.4997,-5.5592,-5.6127,-5.6535,-5.6913,-5.8906,-6.0064,-6.043,-6.119,-6.1584,-6.1719,-6.1719,-6.2148,-6.2812,-6.2602,-6.3006,-6.37,-6.2675,-6.2829,-6.3623,-6.3526,-6.4039,-6.4872,0.0,0.0,0.0,0.0,0.0,0.0,0.0,0.0,0.0,0.0,0.0,-2.7316,-2.6826,-2.6826,-2.6504,-2.5594,-2.5758,-2.6245,-2.69,-2.8168,-2.8722,-2.8446,-2.937,-3.0206,-3.0789,-3.0516,-3.0636,-3.1127,-3.0756,-3.1105,-3.2102,-3.2967,-3.3354,-3.3281,-3.2304,-3.0908,-2.9162,-2.7387,-2.6397,-2.6022,-2.6022,-2.7747,-2.9974,-2.7317,-2.7577,-2.9101,-2.7273,-2.5943,-2.5303,-2.6943,-2.6605,-2.577,-2.7381,0.0,0.0,0.0,-2.9156,-3.1423,-3.7024,-4.2455,-4.7372,-5.0935,-5.1789,-5.206,-5.3273,-5.2551,-5.1897,-5.2901,-5.1938,-5.0445,-4.9028,-4.8187,-4.739,-4.6351,-4.6125,-4.6495,-4.7746,-4.8569,-5.0056,-5.2661,-5.1846,-5.1455,-5.2554,-5.0889,-4.9893,-5.0259,-4.9216,-4.9381,-5.1279,-5.1587,-5.2641,-5.4549,-5.5279,-5.6035,-5.6855,-5.7096,-5.7767,-5.8787,-5.9741,-6.0505,-6.1034,-6.1364,-6.1577,-6.1719,-6.1719,-6.164,-6.1562,-6.1751,-6.1771,-6.1634,-6.1439,-6.2175,-6.3315,-6.3306,-6.4166,-6.5397,0.0,0.0,0.0,0.0,0.0,0.0,0.0,0.0,0.0,0.0,0.0,-2.7091,-2.6473,0.0,0.0,0.0,-2.5043,-2.5715,-2.6397,-2.7659,-2.8175,-2.7684,-2.8707,-2.94,-2.9626,-2.9813,-3.0087,-3.0434,-3.0545,-3.1076,-3.2006,-3.2459,-3.2873,-3.3227,-3.2453,-3.0771,-2.8427,-2.7382,-2.6413,-2.5566,-2.6456,-2.8746,-3.1348,-2.8796,-2.9548,-3.1645,-2.8528,-2.6729,-2.5965,-2.6713,-2.6104,-2.5134,-2.5876,-2.5685,0.0,0.0,0.0,-2.8896,-3.6713,-4.0804,-4.4009,-4.895,-5.0437,-5.115,-5.3088,-5.3159,-5.2903,-5.3464,-5.163,-4.9411,-4.7776,-4.7033,-4.6442,-4.5768,-4.5768,-4.6489,-4.8495,-4.9055,-5.0183,-5.2806,-5.1671,-5.1037,-5.1949,-5.0466,-4.9741,-5.0379,-4.9268,-4.9683,-5.2375,-5.2428,-5.3338,-5.5435,-5.585,-5.6678,-5.789,-5.832,-5.9098,-6.0241,-6.0456,-6.0885,-6.1568,-6.1504,-6.1573,-6.168,-6.1484,-6.1133,-6.0742,-6.0879,-6.0837,-6.0667,-6.075,-6.1805,-6.3315,-6.3291,-6.4268,-6.559,0.0,0.0,0.0,0.0,0.0,0.0,0.0,0.0,0.0,0.0,0.0,-2.8058,-2.8732,-2.7508,-2.6554,-2.6481,-2.5805,-2.5815,-2.6786,-2.7117,-2.7509,-2.8031,-2.8125,0.0,-2.9414,-2.9626,-2.9886,-3.021,-3.0395,-3.1022,-3.1967,-3.1207,-3.1694,-3.3192,-3.3098,-3.0598,-2.661,-2.7546,-2.6999,-2.5761,-2.9045,-3.0463,-3.0963,-3.3812,-3.4517,-3.3724,-3.128,-2.9402,-2.7958,-2.6754,-2.5131,-2.3912,-2.5572,-2.5147,-2.4162,0.0,0.0,0.0,-3.275,-3.5135,-3.7956,-4.4487,-4.7197,-4.9296,-5.3081,-5.3559,-5.3156,-5.3055,-4.9982,-4.6921,-4.567,-4.5701,-4.5962,-4.6047,-4.609,-4.7003,-4.9534,-5.0342,-5.1463,-5.3501,-5.2205,-5.1328,-5.176,-5.0648,-4.9664,-4.9225,-4.9564,-5.0329,-5.1627,-5.2087,-5.3282,-5.5447,-5.5264,-5.6032,-5.789,-5.9492,-6.0312,-6.039,-6.1104,-6.1538,-6.1679,-6.1549,-6.1559,-6.164,-6.082,-6.0898,-6.1562,-6.0489,-6.0988,-6.2279,-6.1196,-6.1805,-6.3315,-6.3295,-6.3886,-6.4795,0.0,0.0,0.0,0.0,0.0,0.0,0.0,0.0,0.0,0.0,0.0,0.0,0.0,-2.6172,-2.5621,-2.5107,-2.5392,-2.5611,-2.5664,-2.7266,-2.8001,-2.7526,-2.8557,-2.9214,-2.9394,-2.9607,-2.9829,-3.0073,-2.9795,-2.987,-3.0218,-2.9912,-2.9464,-2.8868,-2.9988,-2.9594,-2.8065,-2.7306,-2.6378,-2.5782,-2.9835,-3.2756,-3.4574,-3.3371,-3.529,-3.8098,-3.337,-3.0525,-2.9089,-3.0054,-2.7454,-2.3883,-2.4127,-2.3533,-2.289,-2.3653,-2.5407,-2.7996,-3.2006,-3.4127,-3.6365,-4.1281,-4.4448,-4.6817,-4.8865,-5.081,-5.1995,-5.1395,-4.9168,-4.7188,-4.6649,-4.4882,-4.3787,-4.4609,-4.5569,-4.6995,-4.9252,-5.0398,-5.1245,-5.1982,-5.181,-5.1625,-5.1601,-5.0421,-4.9483,-4.9078,-4.8962,-4.9579,-5.1271,-5.2323,-5.3817,-5.5884,-5.6429,-5.7301,-5.8515,-5.9765,-6.0078,-5.9453,-6.0348,-6.0753,-6.0761,-6.1256,-6.1518,-6.1523,-6.0664,-6.0469,-6.0781,-6.136,-6.1587,-6.1612,-6.2198,-6.3122,-6.4147,-6.4128,-6.468,-6.5474,0.0,0.0,0.0,0.0,0.0,-2.738,-2.6716,-2.6031,-2.5685,-2.5805,0.0,0.0,0.0,0.0,-2.5919,-2.517,-2.585,-2.6193,-2.5941,-2.751,-2.8259,-2.7698,-2.8693,-2.927,-2.9249,-2.9551,-2.9763,-2.9908,-2.9429,-2.9166,-2.9171,-2.8668,-2.785,-2.6973,-2.7473,-2.7721,-2.773,-2.7185,-2.6578,-2.6386,-3.1874,-3.4744,-3.5743,-3.5619,-3.7404,-3.9523,-3.5724,-3.3385,-3.2317,-3.3861,-3.1455,-2.754,-2.5929,-2.392,-2.2391,-2.3482,-2.5149,-2.7303,-3.0564,-3.2108,-3.3731,-3.7599,-4.0405,-4.284,-4.5317,-4.7564,-4.8949,-4.8329,-4.6893,-4.5599,-4.5126,-4.4029,-4.3637,-4.5069,-4.6207,-4.7548,-4.9433,-5.052,-5.1247,-5.1484,-5.1693,-5.1788,-5.1744,-5.077,-5.0083,-4.9897,-5.0139,-5.1025,-5.2566,-5.3491,-5.45,-5.5734,-5.6981,-5.7925,-5.8476,-5.9765,-6.0078,-5.9414,-6.039,-6.0767,-6.0644,-6.1241,-6.1484,-6.1406,-6.0885,-6.0739,-6.1015,-6.1822,-6.2228,-6.234,-6.3103,-6.4046,-6.5009,-6.4705,-6.5141,-6.5897,0.0,-2.8728,-2.8898,-2.8468,-2.8402,-2.825,-2.7852,-2.6868,-2.6232,-2.657,0.0,0.0,0.0,0.0,0.0,-2.6953,-2.735,-2.7637,-2.7719,-2.7862,-2.813,-2.855,-2.8509,-2.8615,-2.8998,-2.9475,-2.9677,-2.9677,-2.9308,-2.9119,-2.9124,-2.7421,-2.7078,-2.7839,-2.5949,-2.5118,-2.5227,-2.7179,-2.7589,-2.7554,-3.5272,-3.6405,-3.4218,-4.1045,-4.1306,-3.8066,-3.8517,-3.822,-3.7676,-3.797,-3.675,-3.447,-3.075,-2.6215,-2.2652,-2.4496,-2.5291,-2.6016,0.0,0.0,0.0,-3.3295,-3.5069,-3.7353,-4.2754,-4.3984,-4.4023,-4.3978,-4.3044,-4.1952,-4.0989,-4.3145,-4.5707,-4.7772,-4.8085,-4.8677,-5.0355,-5.0975,-5.1538,-5.2265,-5.1999,-5.1913,-5.2265,-5.1861,-5.1602,-5.1679,-5.333,-5.466,-5.5427,-5.5488,-5.5349,-5.4982,-5.673,-5.7685,-5.7695,-5.9453,-6.0312,-6.0351,-6.1211,-6.1562,-6.1445,-6.1484,-6.1406,-6.1285,-6.1436,-6.1871,-6.2497,-6.1862,-6.2871,-6.4723,-6.3973,-6.46,-6.5782,-6.4949,-6.518,-6.5897,-2.8087,-2.8792,-2.9215,-2.8521,-2.8615,-2.8589,-2.7934,-2.7282,-2.6825,0.0,0.0,0.0,-2.6765,-2.7176,-2.7441,-2.7433,-2.7546,-2.7663,-2.7813,-2.8439,-2.8657,-2.8455,-2.9032,-2.9232,-2.8998,-2.9475,-2.9677,-2.9677,-2.9308,-2.8797,-2.8222,-2.7171,-2.6456,-2.603,-2.5538,-2.5312,-2.5351,-2.5847,-2.6338,-2.7437,-3.5271,-3.7842,-3.7536,-4.2513,-4.4933,-4.541,-4.3621,-4.0727,-3.8223,-4.1461,-3.6227,-2.7964,-2.5397,-2.3481,-2.2319,-2.3056,-2.3995,-2.5039,-2.6377,0.0,0.0,0.0,0.0,0.0,-3.5935,-3.9238,-4.1697,-4.0684,-4.1067,-4.1909,-4.3136,-4.4648,-4.6687,-4.9866,-5.055,-5.1152,-5.2568,-5.2763,-5.3112,-5.3959,-5.3397,-5.348,-5.4603,-5.3916,-5.3399,-5.3383,-5.4525,-5.5033,-5.4725,-5.539,-5.6018,-5.6544,-5.7179,-5.748,-5.7461,-5.8203,-5.8594,-5.8594,-5.9336,-6.0,-6.0586,-6.0978,-6.1109,-6.1092,-6.113,-6.1949,-6.3318,-6.3377,-6.3891,-6.4723,-6.5198,-6.5615,-6.5859,-6.5628,-6.5705,-6.5897,-2.8136,-2.8783,-2.9196,-2.8748,-2.8821,-2.8851,-2.8374,-2.7682,-2.7211,0.0,0.0,0.0,-2.7865,-2.7943,-2.8099,-2.8564,-2.8683,-2.8833,-2.8975,-2.9385,-2.9462,-2.9011,-2.9427,-2.9494,-2.8998,-2.9475,-2.9677,-2.9677,-2.9308,-2.8698,-2.789,-2.6949,-2.6033,-2.5182,-2.5156,-2.5143,-2.5156,-2.5219,-2.5819,-2.7453,-3.5696,-3.8114,-3.734,-4.3173,-4.5425,-4.5464,-4.5414,-4.3442,-4.1528,-4.5553,-3.9713,-3.0445,-2.8272,-2.5603,-2.3247,-2.3333,-2.4068,-2.4969,0.0,0.0,-2.6682,-2.6641,0.0,0.0,-3.2814,-3.513,-3.7174,-3.7699,-3.8633,-3.9756,-4.1214,-4.3727,-4.6735,-4.9997,-5.1623,-5.2705,-5.347,-5.3511,-5.3906,-5.5059,-5.4651,-5.4886,-5.6436,-5.5881,-5.5473,-5.5675,-5.656,-5.6809,-5.6163,-5.631,-5.6521,-5.6645,-5.6831,-5.6922,-5.6992,-5.7578,-5.8047,-5.832,-5.9062,-5.9823,-6.0526,-6.0848,-6.0973,-6.0973,-6.1112,-6.2102,-6.3702,-6.404,-6.4636,-6.5426,-6.6012,-6.6128,-6.5974,-6.5897,-6.5897,-6.5897,0.0,-2.8749,-2.8975,-2.8975,-2.8975,-2.8975,-2.8975,-2.8106,-2.7562,0.0,-2.7725,-2.8058,-2.9322,-2.9185,-2.9268,-2.9966,-3.0267,-3.0447,-3.0491,-3.0419,-3.0241,-2.9837,-2.9737,-2.9476,-2.8897,-2.9438,-2.9657,-2.9581,-2.9205,-2.8637,-2.783,-2.6759,-2.5793,-2.493,-2.4816,-2.474,-2.4752,-2.5051,-2.595,-2.7887,-3.5937,-3.746,-3.5776,-4.3398,-4.4568,-4.2549,-4.5703,-4.6192,-4.5738,-4.8321,-4.4427,-3.7974,-3.5155,-3.0478,-2.5896,-2.4725,-2.5103,0.0,0.0,0.0,0.0,-2.4765,-2.5312,0.0,-3.1352,-3.1554,-3.1638,-3.4607,-3.5725,-3.6412,-3.7115,-4.1372,-4.5659,-4.8335,-5.0999,-5.2982,-5.3708,-5.3695,-5.422,-5.5996,-5.5625,-5.6026,-5.7989,-5.7684,-5.762,-5.8149,-5.8975,-5.9163,-5.8529,-5.765,-5.6809,-5.5917,-5.6133,-5.629,-5.6406,-5.7383,-5.8242,-5.8906,-5.976,-6.0458,-6.0973,-6.0973,-6.0973,-6.1035,-6.1208,-6.2236,-6.3864,-6.4163,-6.5117,-6.6402,-6.6399,-6.6307,-6.609,-6.5936,-6.5897,-6.5897,-2.8797,-2.8952,-2.8975,-2.8975,-2.8975,-2.8975,-2.8975,-2.853,-2.8347,-2.8695,-2.9035,-2.9418,-2.9823,-3.0021,-3.0151,-3.0304,-3.0367,-3.0402,-3.0425,-3.0402,-3.0267,-2.9975,-2.9813,-2.9251,-2.8292,-2.9213,-2.9393,-2.873,-2.8803,-2.8453,-2.7638,-2.655,-2.5491,-2.4436,-2.4398,-2.4398,-2.4414,-2.4676,-2.6593,-2.9751,-3.3154,-3.6124,-3.9056,-4.4142,-4.7367,-4.9316,-5.0012,-4.8236,-4.5054,-4.1958,-4.1397,-4.0862,-3.4211,-3.3039,-3.2835,-2.6336,-2.6082,-2.7262,-2.3819,-2.2631,-2.2417,-2.2834,-2.3941,0.0,-2.6006,-2.7748,-2.9376,-3.0051,-3.2302,-3.4574,-3.5998,-3.9242,-4.2228,-4.3898,-4.6553,-4.9968,-5.4506,-5.4125,-5.4593,-5.7614,-5.6255,-5.6247,-5.9377,-5.9167,-5.9085,-5.978,-5.9762,-5.9347,-5.8535,-5.768,-5.6806,-5.5955,-5.6211,-5.6386,-5.6406,-5.7383,-5.8242,-5.8906,-5.9672,-6.0383,-6.0973,-6.0896,-6.0896,-6.1004,-6.1042,-6.2193,-6.4032,-6.4099,-6.5039,-6.6402,-6.6399,-6.6307,-6.609,-6.5936,-6.5897,-6.5897,-2.9119,-2.9089,-2.8975,-2.8975,-2.8975,-2.8975,-2.8975,-2.8821,-2.8773,-2.8975,-2.9438,-2.9851,-3.0062,-3.0364,-3.0509,-3.0509,-3.0509,-3.0491,-3.0462,-3.0462,-3.029,-2.9877,-2.9845,-2.9506,-2.878,-2.9451,-2.9671,-2.927,-2.9336,-2.8769,-2.7586,-2.6805,-2.6432,-2.6287,-2.4894,-2.506,-2.632,-2.5227,-2.5782,-2.789,-3.3037,-3.7324,-4.1166,-4.6133,-4.9057,-5.0574,-5.1121,-4.9609,-4.708,-4.4889,-4.2493,-3.9972,-3.7485,-3.5131,-3.23,-2.7138,-2.658,-2.6684,-2.2234,-2.1249,-2.1538,-2.1627,-2.2626,0.0,0.0,-2.6989,-2.8278,-3.0017,-3.1432,-3.2809,-3.4177,-3.6616,-3.9068,-4.1093,-4.3815,-4.6773,-4.9843,-5.1735,-5.4145,-5.7766,-5.7172,-5.7544,-6.0294,-6.038,-6.0366,-6.0629,-6.0034,-5.9495,-5.9167,-5.8291,-5.7544,-5.683,-5.6977,-5.6854,-5.6484,-5.7422,-5.8203,-5.8828,-5.963,-6.0319,-6.0896,-6.0819,-6.0858,-6.1004,-6.1095,-6.2265,-6.4101,-6.418,-6.5156,-6.6638,-6.6489,-6.6341,-6.6239,-6.5972,-6.5897,-6.5897,-2.9332,-2.92,-2.8975,-2.8975,-2.9044,-2.9067,-2.9067,-2.9089,-2.9126,-2.8998,-3.0103,-3.0902,-3.0974,-3.1909,-3.2552,-3.2543,-3.2538,-3.2233,-3.1584,-3.1513,-3.124,-3.0592,-3.0152,-2.9964,-3.002,-2.9952,-2.9832,-2.9726,-2.9505,-2.8806,-2.7666,-2.6947,-2.699,-2.7574,-2.5965,-2.6098,-2.7438,-2.6197,-2.6053,-2.7292,-3.393,-3.7893,-4.0388,-4.5674,-4.8037,-4.874,-5.0273,-5.0078,-4.9036,-4.8602,-4.412,-3.8841,-3.9608,-3.6167,-3.1064,-2.7219,-2.6684,-2.6241,-2.1044,-2.0381,-2.1149,-2.093,-2.1557,-2.3076,0.0,0.0,0.0,-3.0086,-3.061,-3.0733,-3.1634,-3.3568,-3.569,-3.7901,-4.0639,-4.2825,-4.3692,-4.7557,-5.1714,-5.57,-5.674,-5.7892,-5.974,-5.9998,-6.0236,-6.0699,-5.9552,-5.9023,-5.957,-5.9089,-5.854,-5.7954,-5.7965,-5.7713,-5.7109,-5.7969,-5.8594,-5.8984,-5.984,-6.0473,-6.0819,-6.0819,-6.0858,-6.1004,-6.1198,-6.2253,-6.3867,-6.3984,-6.5078,-6.6639,-6.6488,-6.6383,-6.6351,-6.6029,-6.5897,-6.5897,-2.9373,-2.92,-2.8975,-2.8975,-2.92,-2.9332,-2.9332,-2.9509,-2.9448,-2.8948,-3.2278,-3.4468,-3.3906,-3.726,-3.9569,-3.9566,-3.9564,-3.83,-3.5398,-3.5135,-3.4691,-3.3804,-3.1172,-3.0511,-3.221,-3.0433,-2.9214,-2.8666,-2.7711,-2.753,-2.7998,-2.6356,-2.5317,-2.4978,-2.7825,-2.72,-2.4276,-2.7359,-3.0577,-3.3665,-3.4763,-3.4144,-3.3064,-3.7616,-4.1309,-4.4453,-4.7679,-4.8789,-4.8272,-4.5117,-4.3101,-4.0857,-3.4513,-3.4877,-3.5721,-2.6022,-2.6329,-2.8313,-2.1465,-1.9458,-1.9575,-2.0709,-2.1006,-2.168,-2.4446,0.0,-2.5085,-2.613,0.0,-2.7994,-2.809,0.0,0.0,-3.2199,-3.4756,-3.7306,-3.937,-4.1694,-4.4845,-4.9375,-5.2569,-5.4808,-5.594,-5.5726,-5.6744,-5.9641,-5.7657,-5.7047,-5.8739,-5.9478,-5.9503,-5.8782,-5.8948,-5.8983,-5.8906,-5.9726,-6.0078,-6.0039,-6.0771,-6.1112,-6.0973,-6.0858,-6.0858,-6.0997,-6.1208,-6.1953,-6.2969,-6.3086,-6.418,-6.578,-6.6217,-6.6407,-6.6358,-6.6019,-6.5897,-6.582,-2.9399,-2.9206,-2.9067,-2.9212,-2.9324,-2.9418,-2.9573,-2.9673,-2.9696,-2.9569,-3.1229,-3.2305,-3.2124,-3.3754,-3.5671,-3.7737,-3.7448,-3.6797,-3.5931,-3.5326,-3.4085,-3.1995,-3.0619,-3.0219,-3.0886,-3.0036,-2.9438,-2.9204,-2.8634,-2.818,-2.7795,-2.6417,-2.6104,-2.6754,-2.8793,-2.9525,-2.9421,-3.1763,-3.2405,-3.2076,-3.3898,-3.286,-3.1127,-3.975,-4.4445,-4.6626,-4.8096,-4.8281,-4.7694,-4.6766,-4.2899,-3.8828,-4.0251,-3.7264,-3.2685,-2.9997,-2.8699,-2.704,-2.2149,-2.193,-2.2942,-2.218,-2.3387,-2.4667,-2.4231,-2.3987,-2.3975,-2.4405,0.0,0.0,0.0,0.0,0.0,0.0,-3.2999,-3.4613,-3.5609,-3.8906,-4.2846,-4.7348,-4.9182,-5.1307,-5.4402,-5.5737,-5.7143,-5.886,-5.802,-5.8014,-5.9395,-5.9879,-5.9981,-5.9655,-5.9816,-5.9687,-5.9219,-5.9531,-5.9609,-5.9453,-6.0275,-6.0536,-6.0258,-6.0704,-6.0896,-6.0896,-6.105,-6.1651,-6.2577,-6.3316,-6.4307,-6.5397,-6.6102,-6.6386,-6.6347,-6.6019,-6.5897,-6.5936,-2.9319,-2.9104,-2.9075,-2.9359,-2.9439,-2.958,-2.9863,-2.996,-2.9931,-2.9812,-3.0968,-3.1704,-3.1561,-3.3478,-3.5785,-3.8403,-3.8934,-3.8893,-3.835,-3.7015,-3.5444,-3.3587,-3.1252,-3.0662,-3.1997,-3.0426,-2.9662,-2.9677,-2.9076,-2.8463,-2.7798,-2.673,-2.6764,-2.7794,-2.9269,-3.0826,-3.2546,-3.4216,-3.3983,-3.2713,-3.4831,-3.4835,-3.4355,-4.1886,-4.5981,-4.778,-4.7759,-4.7406,-4.6914,-4.6641,-4.2344,-3.7904,-4.2563,-3.8224,-3.1758,-3.3223,-3.1421,-2.8106,-2.4149,-2.4865,-2.6247,-2.3843,-2.5038,-2.6315,-2.4583,-2.3797,-2.3418,-2.362,-2.4898,0.0,0.0,0.0,-2.9122,-3.0619,0.0,-3.2644,-3.3051,-3.6464,-4.0302,-4.4001,-4.5497,-4.7905,-5.2003,-5.3731,-5.5249,-5.6866,-5.6976,-5.7687,-5.9289,-5.9904,-6.0234,-6.0261,-6.0571,-6.0351,-5.9531,-5.9531,-5.9453,-5.9336,-5.9919,-6.0208,-6.0229,-6.0727,-6.0949,-6.0858,-6.0935,-6.1505,-6.2381,-6.3281,-6.4208,-6.5149,-6.5736,-6.61,-6.629,-6.5997,-6.6051,-6.6307,-2.9067,-2.8998,-2.9089,-2.9332,-2.957,-2.9848,-3.0393,-3.0431,-3.0118,-2.9412,-3.2954,-3.5168,-3.4268,-4.0831,-4.5376,-4.5457,-4.8584,-4.886,-4.4765,-4.2112,-4.1056,-4.19,-3.4279,-3.248,-3.782,-3.2324,-2.9475,-2.9677,-2.8066,-2.7669,-2.8366,-2.721,-2.6542,-2.6398,-2.9142,-3.0257,-3.0272,-3.2774,-3.593,-3.9176,-3.8991,-4.1051,-4.3855,-4.0866,-4.2135,-4.5509,-4.5428,-4.5804,-4.5781,-4.2266,-4.0859,-3.9986,-3.6351,-3.5956,-3.6312,-3.3634,-3.3848,-3.3688,-2.808,-2.7498,-2.789,-2.5277,-2.4526,-2.4626,-2.5373,-2.444,-2.3474,-2.3568,-2.4111,-2.4763,-2.5414,-2.6116,-2.7246,-2.9134,-3.0092,0.0,0.0,-3.3694,-3.5419,-3.735,-4.1235,-4.4802,-4.7645,-4.7317,-4.8656,-5.2777,-5.3069,-5.4455,-5.7616,-5.9342,-6.0272,-6.039,-6.1211,-6.125,-6.0351,-6.0351,-6.0351,-6.0351,-6.0245,-6.0627,-6.1439,-6.1143,-6.1022,-6.0973,-6.0973,-6.1502,-6.2299,-6.2471,-6.3556,-6.5077,-6.4924,-6.5381,-6.6084,-6.5951,-6.6384,-6.7,-2.8998,-2.9439,-2.9715,-2.9444,-2.957,-2.9877,-3.0436,-3.0513,-3.1137,-3.2866,-3.4569,-3.6238,-3.7897,-4.0614,-4.3233,-4.5568,-4.6435,-4.6508,-4.5703,-4.2659,-4.1033,-4.1292,-3.4481,-3.2384,-3.608,-3.1523,-2.9249,-2.9513,-2.8479,-2.8021,-2.8029,-2.6556,-2.5664,-2.5413,-2.7981,-3.0391,-3.2711,-3.5779,-3.7953,-3.925,-3.8959,-3.9694,-4.1055,-4.2359,-4.4046,-4.5655,-4.5642,-4.5819,-4.5852,-4.4594,-4.2476,-4.0466,-4.123,-3.7861,-3.3891,-3.5163,-3.4243,-3.2581,-3.1264,-3.3519,-3.5316,-3.1508,-3.1642,-3.175,-2.8072,-2.6249,-2.51,-2.439,-2.5442,-2.6296,-2.5691,-2.712,-2.8639,-2.9316,-2.9955,-3.0733,0.0,-3.3841,-3.583,-3.7506,-4.0377,-4.2696,-4.3942,-4.7284,-5.013,-5.1958,-5.3952,-5.6049,-5.8237,-5.9126,-6.0015,-6.1105,-6.1511,-6.1562,-6.125,-6.0703,-6.0117,-5.9609,-6.0113,-6.0132,-5.9807,-6.0846,-6.1214,-6.0983,-6.0983,-6.1427,-6.2236,-6.2954,-6.3844,-6.485,-6.5428,-6.578,-6.6013,-6.6511,-6.6538,-6.632,-2.9049,-2.9646,-3.0019,-2.9506,-2.9666,-3.0011,-3.0452,-3.0472,-3.1552,-3.4601,-3.5249,-3.6581,-3.9629,-4.1384,-4.3227,-4.5534,-4.6468,-4.6659,-4.6054,-4.3786,-4.2291,-4.201,-3.684,-3.5247,-3.7965,-3.3187,-3.0793,-3.1123,-2.9047,-2.7855,-2.7561,-2.6243,-2.5274,-2.4664,-2.6253,-2.9654,-3.4375,-3.637,-3.8729,-4.1005,-4.0391,-4.0386,-4.1022,-4.3474,-4.4052,-4.3777,-4.496,-4.5537,-4.5771,-4.5674,-4.3808,-4.1787,-4.3343,-3.9734,-3.5268,-3.6996,-3.6337,-3.4967,-3.4651,-3.7535,-3.9699,-3.5752,-3.605,-3.591,-3.0588,-2.86,-2.7613,-2.695,-2.7087,-2.796,-2.9942,-2.9849,-3.0054,-3.185,-3.1362,-3.1167,0.0,-3.4125,-3.5783,-3.704,-3.8977,-4.0742,-4.2078,-4.5519,-4.8758,-5.1408,-5.3459,-5.5647,-5.8098,-5.8788,-5.9694,-6.1073,-6.1456,-6.1481,-6.125,-6.039,-5.9844,-5.9648,-5.9844,-5.9957,-5.9933,-6.0978,-6.1323,-6.1112,-6.1291,-6.1808,-6.2613,-6.3548,-6.4393,-6.5139,-6.5775,-6.6135,-6.6384,-6.6885,-6.7179,-6.7308,-2.9195,-2.9706,-3.0124,-2.968,-2.9998,-3.0386,-3.0551,-3.0569,-3.1668,-3.4814,-3.5447,-3.6829,-3.9966,-4.3599,-4.5784,-4.5745,-4.8875,-4.947,-4.6287,-4.5523,-4.4976,-4.4481,-4.1089,-4.0491,-4.3202,-3.6731,-3.3576,-3.4141,-2.949,-2.7137,-2.7065,-2.625,-2.5271,-2.4163,-2.4036,-2.8055,-3.4905,-3.4466,-3.8183,-4.4278,-4.3202,-4.3135,-4.38,-4.3915,-4.2174,-4.0118,-4.3425,-4.503,-4.5553,-4.5213,-4.4613,-4.3685,-4.2195,-4.0966,-3.9945,-3.8782,-3.9648,-4.0508,-3.8182,-3.969,-4.1181,-3.8235,-3.7784,-3.7071,-3.3051,-3.1609,-3.112,-3.1206,-2.9424,-2.9999,-3.737,-3.3945,-3.1472,-3.6078,-3.3917,-3.2161,-3.3493,-3.434,-3.512,-3.5898,-3.7255,-3.9107,-4.1756,-4.2161,-4.4773,-5.0849,-5.1561,-5.3404,-5.722,-5.8241,-5.924,-6.0349,-6.1104,-6.1147,-6.0469,-5.9687,-5.9687,-6.039,-5.9687,-6.0156,-6.164,-6.1417,-6.1301,-6.1343,-6.1872,-6.2574,-6.3358,-6.4243,-6.5089,-6.5897,-6.5897,-6.6423,-6.7154,-6.7192,-6.8296,-6.981,-2.9953,-3.0552,-3.137,-3.2235,-3.208,-3.1736,-3.1513,-3.3634,-3.5996,-3.8077,-4.1016,-4.3718,-4.5822,-4.7549,-4.8318,-4.7645,-4.9125,-4.9716,-4.8865,-4.6688,-4.6215,-4.7913,-4.0606,-3.8433,-4.2595,-3.3862,-3.0619,-3.3442,-2.8081,-2.6016,-2.7065,-2.5067,-2.3967,-2.3601,-2.225,-2.5679,-3.2529,-3.2709,-3.7145,-4.4059,-4.366,-4.2195,-4.0552,-4.2746,-4.1771,-3.9711,-4.3558,-4.517,-4.5408,-4.5195,-4.3794,-4.196,-4.0604,-3.8414,-3.6332,-3.6218,-3.799,-4.014,-4.0962,-4.3459,-4.5433,-4.337,-4.2736,-4.1824,-3.8972,-3.8312,-3.8239,-3.7872,-3.8036,-3.7874,-3.6626,-3.6007,-3.5114,-3.3308,-3.2897,-3.3172,-3.4331,-3.4987,-3.5841,-3.7217,-3.9511,-4.0565,-3.9474,-4.3548,-4.6909,-4.8548,-5.074,-5.3575,-5.7216,-5.6548,-5.7375,-6.0162,-6.1049,-6.1365,-6.1055,-6.0976,-6.0703,-6.0273,-6.0781,-6.0937,-6.0742,-6.1321,-6.1498,-6.1355,-6.208,-6.2742,-6.3358,-6.4243,-6.5089,-6.5897,-6.5897,-6.6795,-6.8152,-6.8789,-6.969,-7.0541,-3.0797,-3.1359,-3.2354,-3.3712,-3.4602,-3.4839,-3.4062,-3.4347,-3.5955,-3.956,-4.1761,-4.3895,-4.6364,-4.821,-4.8891,-4.8055,-4.8716,-4.856,-4.7213,-4.6303,-4.6313,-4.7427,-4.2553,-4.1027,-4.3683,-3.7302,-3.3746,-3.331,-2.8412,-2.5895,-2.5706,-2.4203,-2.3098,-2.226,-2.1537,-2.4458,-3.0226,-3.4049,-3.8375,-4.2791,-4.3538,-4.292,0.0,-4.3023,-4.2566,-4.1496,-4.399,-4.4963,-4.5078,-4.4982,-4.2986,-4.0306,-3.884,-3.6693,-3.4689,-3.4858,-3.7473,-4.067,-4.2719,-4.5327,-4.7392,-4.6875,-4.647,-4.5533,-4.2777,-4.2544,-4.2768,-4.2548,-4.2498,-4.2612,-4.3212,-4.0614,-3.7154,-3.3351,-3.3163,-3.381,-3.4727,-3.5457,-3.6298,-3.7564,-3.9674,-4.0449,-3.9061,-4.4272,-4.7754,-4.7853,-4.9448,-5.1509,-5.3937,-5.4606,-5.6054,-5.8532,-6.0354,-6.1328,-6.1484,-6.1094,-6.0898,-6.0859,-6.1055,-6.1055,-6.0976,-6.1346,-6.1619,-6.1861,-6.2548,-6.3225,-6.3935,-6.482,-6.5436,-6.5974,-6.6692,-6.7821,-6.9152,-7.0748,-7.143,-7.1458,-3.1825,-3.2426,-3.3327,-3.451,-3.7,-3.8539,-3.7655,-3.5263,-3.5364,-4.039,-4.0904,-4.1769,-4.4485,-4.7008,-4.8191,-4.7381,-4.7793,-4.6947,-4.4288,-4.4481,-4.4102,-4.2801,-4.1162,-4.0073,-3.9553,-3.8674,-3.5797,-3.0766,-2.8731,-2.6545,-2.4177,-2.3541,-2.2381,-2.0795,-2.1232,-2.417,-2.9181,-3.6721,-4.0645,-4.1893,-4.3468,-4.4304,-4.4557,-4.3965,-4.3893,-4.4147,-4.4518,-4.4705,-4.4762,-4.4676,-4.222,-3.8936,-3.7304,-3.5742,-3.4494,-3.4702,-3.7872,-4.1914,-4.4013,-4.6244,-4.8166,-4.8949,-4.9075,-4.8252,-4.548,-4.5534,-4.6186,-4.6272,-4.5215,-4.6096,-5.1827,-4.5838,-3.8936,-3.5602,-3.5293,-3.5707,-3.638,-3.7032,-3.7634,-3.8175,-3.9591,0.0,-3.9724,-4.4287,-4.7379,-4.775,-4.7758,-4.8508,-5.0194,-5.2795,-5.503,-5.6816,-5.9568,-6.1288,-6.1782,-6.0818,-6.0859,-6.1836,-6.0976,-6.0976,-6.1679,-6.1424,-6.1768,-6.2549,-6.3109,-6.383,-6.4691,-6.5551,-6.5936,-6.6205,-6.7795,-6.8924,-7.0025,-7.2552,-7.3024,-7.2506,-3.3256,-3.4252,-3.4904,-3.473,-3.7629,-4.0461,-4.1789,-4.302,-4.3509,-4.2636,-4.5013,-4.6525,-4.5842,-4.6551,-4.6683,-4.578,-4.6466,-4.6759,-4.6202,-4.023,-3.4777,-3.0455,-1.9353,-1.1928,-0.8997,-1.5049,-1.7658,-1.6428,-2.5037,-2.7818,-2.511,-2.3023,-2.1568,-2.0795,-2.0346,-2.4891,-3.3214,-3.7279,-4.1432,-4.5204,-4.5025,-4.4736,-4.4413,-4.4755,-4.4731,-4.4537,-4.4954,-4.5149,-4.5043,-4.4058,-4.1517,-3.856,-3.6971,-3.5779,-3.5274,-3.6629,-4.0229,-4.4103,-4.5835,-4.7765,-4.9338,-4.9408,-4.9416,-4.9288,-4.8824,-4.9809,-5.0852,-5.0916,-5.1757,-5.2006,-5.0535,-4.734,-4.3734,-4.0138,-4.226,-4.4338,-4.4338,-4.3858,-4.3213,-4.2292,-4.399,-4.381,-4.0363,-4.2992,-4.5225,-4.5986,-4.5375,-4.7338,-5.264,-5.2168,-5.3759,-5.8182,-6.0236,-6.1537,-6.2201,-6.1452,-6.1601,-6.2617,-6.1836,-6.1562,-6.1679,-6.1525,-6.1859,-6.2549,-6.324,-6.3934,-6.4691,-6.5551,-6.6307,-6.7,-6.7987,-6.8921,-7.0025,-7.2542,-7.3388,-7.337,-3.3902,-3.4548,-3.5356,-3.6643,-3.9702,-4.2295,-4.3233,-4.5055,-4.5506,-4.3125,-4.3393,-4.3433,-4.2414,-4.4058,-4.4958,-4.426,-4.5077,-4.218,-3.4068,-3.3229,-2.771,-1.5716,-0.3228,0.2182,-0.0514,-0.3073,-0.6712,-1.149,-2.1366,-2.5941,-2.5529,-2.4261,-2.2649,-2.0862,-2.3305,-2.7394,-3.2743,-3.8162,-4.1983,-4.4532,-4.5367,-4.5602,-4.5382,-4.5265,-4.5114,-4.4972,-4.5076,-4.525,-4.524,-4.414,-4.1131,-3.7905,-3.806,-3.7331,-3.6872,-3.9375,-4.2644,-4.5917,-4.7536,-4.8894,-4.9872,-4.9803,-4.9819,-4.9792,-4.9637,-5.05,-5.1487,-5.1941,-5.3006,-5.2975,-5.0307,-4.7892,-4.5663,-4.3662,-4.3724,-4.4638,-4.6464,-4.6581,-4.6424,-4.6238,-4.5972,-4.5197,-4.3614,-4.2832,-4.314,-4.4822,-4.494,-4.6683,-5.0635,-5.138,-5.3217,-5.6609,-6.0032,-6.1798,-6.1779,-6.1889,-6.1992,-6.2109,-6.1836,-6.1953,-6.2383,-6.2236,-6.2773,-6.3871,-6.4106,-6.4634,-6.532,-6.6192,-6.7,-6.7872,-6.8717,-6.9602,-7.0591,-7.2723,-7.3504,-7.3678,-3.4684,-3.5101,-3.6095,-3.8633,-4.1761,-4.3622,-4.2671,-4.287,-4.2666,-4.1312,-3.9312,-3.7466,-3.5958,-3.7936,-3.9857,-4.1125,-4.1391,-3.5793,-2.2429,-2.5029,-1.8735,0.0107,1.1001,1.4379,0.942,0.7867,0.4171,-0.1833,-1.5363,-2.1778,-2.1348,-2.407,-2.4246,-2.2592,-2.7504,-3.1071,-3.3776,-3.9624,-4.2867,-4.4132,-4.5773,-4.6503,-4.6525,-4.5861,-4.5724,-4.5851,-4.5364,-4.5427,-4.5532,-4.4499,-4.1599,-3.859,-3.99,-3.9835,-3.9813,-4.2586,-4.5347,-4.7757,-4.9022,-4.9784,-5.0206,-5.0206,-5.0206,-5.0145,-4.9844,-5.0506,-5.1451,-5.2118,-5.3062,-5.2997,-5.0593,-4.9567,-4.8663,-4.7466,-4.6311,-4.6553,-4.9342,-4.9884,-5.0091,-5.022,-4.8264,-4.6986,-4.7171,-4.4279,-4.3144,-4.4963,-4.5257,-4.6296,-4.8508,-5.0741,-5.2869,-5.4844,-5.9242,-6.1381,-6.0963,-6.1971,-6.2451,-6.2299,-6.207,-6.2422,-6.3281,-6.3081,-6.3769,-6.5077,-6.4847,-6.5209,-6.5936,-6.6769,-6.7603,-6.8488,-6.9333,-7.0294,-7.1387,-7.2916,-7.3619,-7.3957,-3.6464,-3.7527,-3.851,-3.9372,-4.2754,-4.3895,-3.9614,-3.5459,-3.3545,-3.5748,-3.4017,-3.0862,-2.6336,-2.5044,-2.7286,-3.4179,-3.263,-2.8758,-2.2783,-1.6407,-0.3751,1.6639,2.5342,3.2766,3.9531,2.54,2.0542,2.5869,-0.408,-1.4714,-0.7281,-1.9087,-2.5742,-2.8003,-3.1292,-3.6034,-4.1562,-4.2265,-4.4485,-4.75,-4.7352,-4.7234,-4.7197,-4.7011,-4.7314,-4.766,-4.6162,-4.5881,-4.6055,-4.5038,-4.3744,-4.2532,-4.2556,-4.3633,-4.5097,-4.6266,-4.8261,-5.0061,-5.0167,-5.0412,-5.0624,-5.0624,-5.0624,-5.0624,-5.0586,-5.1834,-5.2965,-5.3063,-5.437,-5.4485,-5.1239,-5.4339,-5.6227,-5.2644,-5.57,-5.854,-5.8424,-5.7736,-5.6511,-5.4663,-5.3128,-5.1372,-4.9357,-4.843,-4.7908,-4.7758,-4.5668,-4.5936,-4.9483,-5.0663,-5.233,-5.4804,-5.7575,-5.9317,-5.9919,-6.1624,-6.3322,-6.4942,-6.3545,-6.332,-6.4179,-6.3834,-6.422,-6.5077,-6.477,-6.5114,-6.5936,-6.6769,-6.7628,-6.8498,-6.9344,-7.0667,-7.2195,-7.3147,-7.3966,-7.4716,-3.4038,-3.4441,-3.5517,-3.7807,-3.2843,-2.7848,-2.5829,-1.9003,-1.3084,-1.0294,-1.4525,-1.6455,-1.2599,-1.2273,-1.3008,-1.4544,-1.3971,-0.8409,0.3599,0.3273,1.1346,3.1027,3.15,3.4913,4.2737,3.2974,2.7984,2.8589,0.2141,-0.9798,-0.8218,-2.4145,-3.2918,-3.553,-3.8533,-4.1979,-4.5538,-4.6228,-4.7378,-4.8595,-4.7327,-4.703,-4.7341,-4.7638,-4.7597,-4.7265,-4.7019,-4.6835,-4.6833,-4.691,-4.5423,-4.3681,-4.455,-4.5407,-4.6481,-4.8101,-4.939,-5.0374,-5.0601,-5.0661,-5.0702,-5.0702,-5.0702,-5.0702,-5.0702,-5.1587,-5.2587,-5.3087,-5.4593,-5.54,-5.4048,-5.476,-5.563,-5.5822,-5.6752,-5.7912,-5.937,-5.9532,-5.893,-5.7468,-5.5823,-5.4248,-5.2848,-5.0663,-4.9529,-5.0009,-4.8994,-4.8736,-4.9521,-5.299,-5.5358,-5.6327,-5.9372,-6.1129,-6.1423,-6.2249,-6.3058,-6.381,-6.3279,-6.3669,-6.4896,-6.4762,-6.5061,-6.5691,-6.5473,-6.559,-6.5936,-6.6769,-6.7628,-6.8471,-6.9344,-7.0371,-7.1618,-7.3014,-7.3716,-7.4149,-2.7105,-2.6392,-2.6426,-2.7815,-2.0319,-1.3335,-1.0986,-0.3238,0.4509,1.0592,0.641,0.2484,0.146,0.1084,0.0959,0.1191,0.1699,0.7805,2.1528,1.7756,2.2824,4.0515,3.6491,3.6608,4.2711,3.7761,3.4643,3.3665,1.2938,0.2712,0.2076,-1.9941,-3.4107,-4.1215,-4.4432,-4.6875,-4.857,-4.9031,-4.9007,-4.8504,-4.6956,-4.6873,-4.7639,-4.7892,-4.7961,-4.7855,-4.7949,-4.8115,-4.837,-4.8908,-4.8028,-4.6724,-4.7414,-4.8009,-4.8712,-4.9967,-5.0542,-5.0868,-5.0956,-5.0819,-5.0702,-5.0702,-5.0702,-5.0702,-5.0702,-5.151,-5.2607,-5.3764,-5.4993,-5.5978,-5.6272,-5.5675,-5.593,-5.826,-5.7818,-5.7892,-5.9826,-6.033,-5.987,-5.815,-5.664,-5.5423,-5.4531,-5.2101,-5.082,-5.1447,-5.2459,-5.2472,-5.1099,-5.4878,-5.7041,-5.6965,-6.0074,-6.1759,-6.1779,-6.2922,-6.352,-6.3549,-6.3632,-6.4239,-6.5322,-6.5455,-6.5698,-6.6067,-6.5919,-6.6013,-6.632,-6.7154,-6.8013,-6.8844,-6.9717,-7.0552,-7.1437,-7.2947,-7.3649,-7.4072,-1.4862,-1.2855,-1.0346,-0.6822,-0.6524,-0.4328,0.31,0.9678,1.573,2.1049,2.6443,2.5826,1.5261,1.5276,1.4051,0.9008,1.1173,1.567,2.2353,2.2836,2.9347,4.3916,4.154,4.1209,4.4023,4.1045,4.1996,4.7275,3.0969,2.5949,3.081,-0.1059,-2.5939,-4.4027,-4.7681,-5.0062,-5.118,-5.0005,-4.8641,-4.7257,-4.6427,-4.7007,-4.8352,-4.7754,-4.8703,-5.0229,-4.9079,-4.9713,-5.1026,-5.0823,-5.1902,-5.3046,-5.1763,-5.2165,-5.3011,-5.2416,-5.2193,-5.1925,-5.1286,-5.0889,-5.0702,-5.0702,-5.0702,-5.0702,-5.0702,-5.1972,-5.3706,-5.5487,-5.5885,-5.6218,-5.7181,-5.8172,-5.9123,-6.0021,-6.0769,-6.125,-6.1289,-6.1115,-5.9748,-5.6347,-5.5342,-5.4513,-5.353,-5.2775,-5.2258,-5.1931,-5.5467,-5.6813,-5.4941,-5.5651,-5.6165,-5.6208,-5.8683,-6.0027,-6.0027,-6.35,-6.5266,-6.525,-6.5266,-6.5289,-6.5322,-6.5848,-6.6007,-6.5897,-6.5897,-6.6359,-6.7167,-6.8039,-6.8886,-6.9771,-7.0552,-7.1426,-7.2272,-7.3168,-7.3986,-7.4832,-0.2203,-0.0079,0.274,0.7099,1.3691,2.1762,3.1815,3.3142,3.3319,3.4099,3.3333,3.1416,2.7974,2.7456,2.7733,2.8559,2.983,3.2204,3.5974,3.6656,3.8644,4.2524,4.1751,4.1866,4.3241,4.2766,4.3863,4.6702,3.2498,2.1203,1.2363,-0.9555,-2.4541,-3.3675,-4.6519,-5.2558,-5.2855,-5.0782,-4.7984,-4.4999,-4.5794,-4.5712,-4.5424,-4.7601,-4.8837,-4.9442,-4.9984,-5.0515,-5.1129,-5.2537,-5.3814,-5.4685,-5.3786,-5.3264,-5.2909,-5.2538,-5.1984,-5.1437,-5.1239,-5.1064,-5.0959,-5.0867,-5.1261,-5.1636,-5.1549,-5.2915,-5.4575,-5.5851,-5.6163,-5.6347,-5.6659,-5.7547,-5.8475,-5.9173,-6.0022,-6.0684,-6.1039,-6.1167,-6.0305,-5.7821,-5.804,-5.7741,-5.6156,-5.5807,-5.5203,-5.4025,-5.5019,-5.4328,-5.1303,-5.6659,-5.8955,-5.7147,-6.0223,-6.2232,-6.2917,-6.3383,-6.4164,-6.5307,-6.5199,-6.5385,-6.5862,-6.5916,-6.5919,-6.5936,-6.6474,-6.6859,-6.7167,-6.8052,-6.8898,-6.9732,-7.0002,-7.0591,-7.1475,-7.2976,-7.364,-7.4063,1.7407,1.722,1.8156,2.3468,2.9764,3.6737,4.4671,4.4143,4.2051,3.9901,3.6836,3.4545,3.3936,3.3407,3.438,3.7524,3.8738,4.0416,4.2946,4.3596,4.3498,4.2536,4.2389,4.2541,4.2995,4.3104,4.4011,4.5883,3.8473,2.6943,1.1679,0.075,-0.9103,-1.8424,-3.6068,-4.3485,-4.2994,-4.6533,-4.6562,-4.4161,-4.3622,-4.4279,-4.5735,-4.7207,-4.8923,-5.0593,-5.112,-5.1706,-5.2348,-5.4,-5.5042,-5.5619,-5.5325,-5.4289,-5.3081,-5.2584,-5.2066,-5.1674,-5.1674,-5.1615,-5.1618,-5.1838,-5.2279,-5.264,-5.2546,-5.3402,-5.4508,-5.5482,-5.5751,-5.5974,-5.664,-5.7294,-5.8041,-5.9123,-5.9737,-6.0266,-6.0932,-6.1172,-6.0215,-5.7255,-5.7892,-5.7857,-5.5962,-5.6033,-5.6068,-5.5705,-5.5971,-5.5147,-5.2848,-5.7576,-5.9919,-5.8955,-6.1639,-6.3469,-6.4211,-6.3545,-6.3694,-6.475,-6.4903,-6.5362,-6.6027,-6.5936,-6.5897,-6.5936,-6.6436,-6.6821,-6.7167,-6.8052,-6.8898,-6.9732,-7.0014,-7.0437,-7.1091,-7.286,-7.3476,-7.3745,4.0393,3.6731,3.4868,4.0764,4.153,4.2083,4.4237,4.4463,4.3166,3.9808,3.7681,3.5858,3.4254,3.4148,3.5108,3.7394,3.9193,4.127,4.3877,4.4402,4.4371,4.3707,4.3394,4.325,4.3231,4.2377,4.3028,4.5297,4.7353,4.1034,2.6916,2.5252,1.6211,0.0592,-1.7999,-2.5408,-2.4739,-3.6609,-4.2402,-4.3044,-3.7882,-4.061,-4.7456,-4.5247,-4.808,-5.3135,-5.2498,-5.315,-5.4458,-5.5268,-5.5733,-5.5996,-5.6251,-5.5186,-5.3602,-5.2679,-5.2401,-5.242,-5.2503,-5.2415,-5.2524,-5.338,-5.3604,-5.3633,-5.3672,-5.3564,-5.3717,-5.4726,-5.4828,-5.5237,-5.7001,-5.7331,-5.7876,-5.9538,-5.9745,-5.999,-6.0803,-6.1133,-5.9685,-5.5432,-5.5799,-5.5721,-5.3928,-5.4361,-5.5335,-5.678,-5.7776,-5.8219,-5.8039,-5.8366,-5.9437,-6.1327,-6.2896,-6.3857,-6.4151,-6.3964,-6.3893,-6.3964,-6.457,-6.5234,-6.5897,-6.5897,-6.5897,-6.5897,-6.5974,-6.6397,-6.7167,-6.8116,-6.8963,-6.9783,-7.0591,-7.0937,-7.1168,-7.2877,-7.3542,-7.3822,4.1672,4.2397,4.3409,4.5526,4.6857,4.7531,4.7377,4.619,4.4313,4.1626,3.9061,3.681,3.5091,3.5537,3.6168,3.6644,3.8533,4.0435,4.225,4.3517,4.398,4.3557,4.3701,4.3674,4.3432,4.321,4.4121,4.6177,4.6722,4.6075,4.4058,3.0592,2.2174,1.7583,-0.1431,-1.3459,-1.9165,-1.3684,-1.8672,-2.8837,-1.1891,-1.8134,-3.6936,-3.145,-3.9335,-5.337,-5.3687,-5.4164,-5.4737,-5.5726,-5.6131,-5.6246,-5.6083,-5.5811,-5.5296,-5.374,-5.2533,-5.1796,-5.2338,-5.2539,-5.2794,-5.3576,-5.3658,-5.3808,-5.4554,-5.4147,-5.3827,-5.4861,-5.495,-5.519,-5.628,-5.6464,-5.678,-5.7722,-5.8396,-5.9099,-5.9951,-6.0661,-6.0339,-5.8273,-5.8238,-5.8175,-5.7596,-5.711,-5.6613,-5.6028,-5.6228,-5.6058,-5.5422,-5.787,-6.0118,-6.2011,-6.3826,-6.4766,-6.4838,-6.4668,-6.4831,-6.5406,-6.5556,-6.5735,-6.5897,-6.5897,-6.5897,-6.5936,-6.6551,-6.6936,-6.7244,-6.8744,-6.9513,-6.9756,-7.0591,-7.1283,-7.2003,-7.3108,-7.3889,-7.4562,4.5118,4.6235,4.7373,4.8565,4.9393,4.9453,4.8269,4.6907,4.4767,4.1405,3.9014,3.6878,3.4889,3.5443,3.6322,3.7266,3.8983,4.0758,4.2424,4.3458,4.4092,4.4276,4.4091,4.3845,4.3497,4.3497,4.4306,4.5882,4.6651,4.7829,4.9163,4.0337,3.6092,3.5052,1.6349,0.4906,-0.0475,-0.1483,-1.0189,-2.2115,-0.8525,-1.0677,-2.3088,-3.2734,-4.3092,-5.2598,-5.3839,-5.4426,-5.4766,-5.5746,-5.585,-5.5584,-5.5939,-5.5686,-5.5087,-5.4071,-5.3429,-5.3108,-5.3494,-5.3699,-5.39,-5.4369,-5.4395,-5.4203,-5.3981,-5.338,-5.3065,-5.3614,-5.3948,-5.4483,-5.5723,-5.6304,-5.6798,-5.7602,-5.7137,-5.7439,-5.9487,-5.9005,-5.8587,-5.9056,-5.924,-5.9098,-5.857,-5.8652,-5.829,-5.72,-5.7651,-5.8011,-5.7973,-6.005,-6.1543,-6.2289,-6.3945,-6.4903,-6.4963,-6.4774,-6.491,-6.5307,-6.5705,-6.5897,-6.5897,-6.5897,-6.609,-6.6474,-6.6898,-6.7321,-6.7821,-6.9155,-6.9694,-6.9821,-7.1014,-7.1772,-7.2349,-7.3581,-7.4322,-7.4832,4.8776,4.8715,4.8864,5.0231,5.0279,4.9637,4.8281,4.7085,4.4895,4.098,3.8882,3.694,3.4964,3.5503,3.6814,3.8642,4.0288,4.2,4.3628,4.4147,4.4631,4.519,4.4729,4.424,4.3778,4.3894,4.4491,4.5583,4.7131,4.8085,4.8514,4.9916,5.0258,4.8936,3.3155,2.5056,2.2422,0.9248,-0.3579,-1.4336,-0.6964,-0.6153,-1.1907,-3.5636,-4.7308,-5.1285,-5.2987,-5.386,-5.4341,-5.4998,-5.4901,-5.4699,-5.5779,-5.5316,-5.4336,-5.4122,-5.4437,-5.484,-5.4776,-5.4995,-5.5293,-5.5419,-5.5248,-5.4663,-5.322,-5.2562,-5.2337,-5.2477,-5.2991,-5.3895,-5.5588,-5.6511,-5.7165,-5.7665,-5.6425,-5.6244,-5.8794,-5.7407,-5.6849,-5.8818,-5.9283,-5.9121,-5.8267,-5.9209,-5.9642,-5.9045,-6.0061,-6.1118,-6.205,-6.2858,-6.3091,-6.2664,-6.4039,-6.4825,-6.4967,-6.4849,-6.4806,-6.4806,-6.5551,-6.5897,-6.5897,-6.6013,-6.6436,-6.7128,-6.7244,-6.7744,-6.8448,-6.9361,-6.9708,-6.9886,-7.1541,-7.2272,-7.258,-7.4139,-7.4793,-7.5024,4.889,4.9594,5.0357,5.0326,5.0201,4.9922,4.9472,4.7235,4.5103,4.3687,4.0682,3.8537,3.8141,3.9322,4.0247,4.0591,4.2949,4.452,4.4827,4.5584,4.5791,4.5227,4.6081,4.6026,4.4931,4.5667,4.6468,4.7311,4.8245,4.9084,4.9808,5.0627,5.0421,4.9143,4.4125,3.9706,3.5968,3.4661,2.4596,1.1134,3.0224,1.5903,-1.6675,-1.6192,-3.0113,-4.9898,-5.0232,-5.151,-5.2967,-5.2384,-5.3238,-5.4607,-5.5386,-5.5371,-5.5045,-5.4534,-5.4495,-5.4493,-5.4203,-5.5055,-5.6038,-5.6056,-5.5492,-5.486,-5.4577,-5.3831,-5.3391,-5.4126,-5.4303,-5.4818,-5.6472,-5.6896,-5.6588,-5.528,-5.7274,-5.8294,-5.6269,-5.8038,-5.9383,-5.897,-5.8875,-5.8762,-5.8609,-5.8799,-5.921,-5.9854,-6.0084,-6.0748,-6.205,-6.2858,-6.3614,-6.42,-6.5191,-6.5692,-6.5741,-6.5692,-6.5705,-6.5705,-6.582,-6.5897,-6.5897,-6.659,-6.6974,-6.7128,-6.7898,-6.8282,-6.8448,-6.9348,-6.9706,-6.9871,-7.1563,-7.265,-7.3418,-7.4341,-7.5178,-7.5938,5.0778,5.1101,5.1537,5.202,5.1225,5.0617,5.0811,4.8704,4.647,4.4614,4.2445,4.0796,3.9972,4.0849,4.194,4.3088,4.4785,4.6157,4.7095,4.6903,4.645,4.5866,4.6787,4.6976,4.6252,4.7048,4.7653,4.8032,4.8834,4.9542,5.0207,5.0529,5.0243,4.937,4.6588,4.2663,3.8137,3.6593,2.9083,1.9322,3.023,1.4424,-1.6131,-2.0274,-3.0751,-4.3492,-4.5074,-4.7446,-4.993,-5.004,-5.1858,-5.4163,-5.5025,-5.4993,-5.4552,-5.4209,-5.4288,-5.4458,-5.4409,-5.5055,-5.5614,-5.5215,-5.4769,-5.4374,-5.4128,-5.3524,-5.3164,-5.3764,-5.4554,-5.5511,-5.678,-5.7742,-5.8242,-5.7934,-5.7597,-5.7503,-5.7918,-5.7301,-5.7332,-5.8744,-5.8569,-5.8326,-5.8326,-5.8756,-5.9248,-5.9658,-6.0647,-6.1633,-6.2704,-6.3551,-6.4397,-6.5282,-6.5705,-6.5897,-6.5897,-6.5897,-6.5897,-6.5897,-6.5897,-6.5897,-6.5936,-6.6744,-6.7422,-6.8011,-6.8861,-6.9479,-6.9957,-7.0324,-7.0437,-7.0525,-7.2217,-7.3149,-7.3649,-7.4947,-7.5947,-7.6763,5.2663,5.2551,5.2527,5.3223,5.1996,5.1054,5.1447,4.9781,4.7661,4.5328,4.3914,4.2661,4.1381,4.1893,4.3129,4.5058,4.6106,4.7278,4.894,4.8022,4.7277,4.6997,4.7555,4.7859,4.7788,4.838,4.874,4.876,4.9471,5.0052,5.0442,5.0375,4.9843,4.8786,4.595,4.1852,3.6664,3.2871,2.7583,2.1817,2.2417,0.9551,-1.1327,-2.3461,-3.2135,-3.8306,-4.1198,-4.481,-4.8299,-4.9101,-5.1239,-5.3704,-5.4684,-5.4511,-5.3931,-5.3721,-5.3906,-5.4251,-5.4553,-5.488,-5.4971,-5.4398,-5.4199,-5.405,-5.3725,-5.3414,-5.3328,-5.3859,-5.494,-5.6191,-5.7396,-5.8519,-5.9456,-5.9858,-5.8011,-5.7197,-5.8974,-5.6861,-5.6014,-5.8427,-5.827,-5.807,-5.8253,-5.9054,-5.966,-5.9955,-6.1344,-6.2631,-6.3551,-6.4243,-6.5013,-6.5859,-6.5897,-6.5897,-6.5897,-6.5897,-6.5897,-6.5897,-6.5897,-6.6024,-6.6251,-6.6907,-6.7862,-6.907,-6.9692,-7.0428,-7.1182,-7.121,-7.1091,-7.1052,-7.2822,-7.3514,-7.3716,-7.5399,-7.6562,-7.7309,5.3494,5.3503,5.3294,5.2704,5.1646,5.082,5.0619,4.9148,4.7695,4.6764,4.4849,4.335,4.2785,4.3328,4.4295,4.5553,4.6863,4.8151,4.9378,4.8946,4.8629,4.8604,4.8677,4.9067,4.9852,4.9928,5.0046,5.0144,5.0587,5.0818,5.0836,5.0585,4.9084,4.6464,4.4231,4.006,3.4549,3.1414,2.7415,2.2808,2.0474,1.1561,-0.1344,-1.1521,-2.4756,-3.8283,-4.133,-4.5868,-5.0512,-5.0809,-5.2058,-5.3583,-5.4442,-5.43,-5.376,-5.3382,-5.3272,-5.3444,-5.4288,-5.4547,-5.4541,-5.4496,-5.4496,-5.4465,-5.442,-5.4658,-5.5145,-5.6,-5.6202,-5.6881,-5.8965,-5.9077,-5.8525,-5.7466,-5.9109,-5.949,-5.6405,-5.7818,-5.8883,-5.8128,-5.8006,-5.829,-5.9061,-5.9616,-6.045,-6.1617,-6.2243,-6.3131,-6.4411,-6.4589,-6.5013,-6.5859,-6.5897,-6.5897,-6.5897,-6.5897,-6.5897,-6.5897,-6.5897,-6.6376,-6.731,-6.7368,-6.8351,-7.0109,-7.0166,-7.0562,-7.1203,-7.1197,-7.1091,-7.1052,-7.2839,-7.3493,-7.3686,-7.539,-7.6524,-7.7408,5.4064,5.4203,5.3963,5.3182,5.1776,5.0945,5.1395,4.9794,4.8147,4.7117,4.5593,4.4739,4.5113,4.489,4.5419,4.7105,4.726,4.7532,4.8226,4.8109,4.8388,4.9255,4.9317,4.9759,5.0702,5.0702,5.0702,5.0664,5.0825,5.078,5.0532,4.993,4.8584,4.6549,4.366,3.9647,3.4792,3.0262,2.5654,2.1334,1.9883,1.0134,-0.4918,-1.7223,-2.8389,-3.7927,-4.09,-4.5166,-4.9626,-4.9822,-5.1928,-5.4512,-5.4842,-5.4623,-5.4241,-5.4309,-5.4306,-5.4346,-5.4385,-5.4242,-5.4048,-5.4048,-5.4048,-5.4153,-5.442,-5.4764,-5.5314,-5.6207,-5.7167,-5.8192,-5.9288,-5.9802,-6.006,-6.0142,-6.0325,-6.015,-5.9307,-5.9381,-5.943,-5.9213,-5.9458,-5.9875,-6.0395,-6.1168,-6.1818,-6.2292,-6.3265,-6.4077,-6.4589,-6.5128,-6.5551,-6.5897,-6.5897,-6.5897,-6.5897,-6.5897,-6.6128,-6.6654,-6.6769,-6.7321,-6.8248,-6.8864,-6.9574,-7.0424,-7.0898,-7.1213,-7.1394,-7.1378,-7.1193,-7.1052,-7.2811,-7.3504,-7.3745,-7.5976,-7.7323,-7.8177,5.4225,5.3974,5.3455,5.3306,5.177,5.0811,5.1607,5.0406,4.89,4.7429,4.6543,4.5985,4.5947,4.5679,4.6224,4.7914,4.7579,4.7486,4.805,4.8105,4.8546,4.9521,4.9833,5.0313,5.0959,5.0841,5.0773,5.0711,5.0385,5.0109,4.9781,4.8605,4.7107,4.5207,4.2161,3.833,3.3944,2.9466,2.5008,2.0725,1.6238,0.5733,-0.9008,-2.4074,-3.4718,-4.1923,-4.3332,-4.67,-5.056,-5.101,-5.2917,-5.5102,-5.5116,-5.499,-5.4931,-5.5165,-5.521,-5.5137,-5.4869,-5.45,-5.4093,-5.368,-5.3906,-5.4316,-5.4634,-5.5269,-5.6078,-5.7006,-5.8044,-5.9033,-5.9749,-6.0287,-6.0814,-6.1589,-6.0917,-6.0474,-6.0933,-6.0463,-6.0062,-6.0151,-6.0717,-6.1242,-6.1761,-6.2504,-6.3108,-6.3345,-6.4408,-6.5013,-6.5013,-6.559,-6.5897,-6.5897,-6.5919,-6.5919,-6.5897,-6.623,-6.6692,-6.7295,-6.7679,-6.8372,-6.9301,-6.9986,-7.0707,-7.1377,-7.1591,-7.1792,-7.1887,-7.1822,-7.1424,-7.1129,-7.3399,-7.4101,-7.4187,-7.6716,-7.8177,-7.8985,5.3926,5.259,5.1581,5.2738,5.1461,5.0416,5.0855,5.0779,4.9969,4.7892,4.7715,4.7036,4.4993,4.5622,4.6641,4.7699,4.7772,4.8249,4.9295,4.9374,4.9397,4.937,5.0331,5.082,5.0703,5.0274,5.0148,5.0279,4.9259,4.874,4.8644,4.6764,4.447,4.1789,3.9514,3.5928,3.1451,2.8888,2.5898,2.1597,0.881,-0.1792,-1.1792,-2.9865,-4.2743,-5.095,-4.9471,-5.1107,-5.4186,-5.5338,-5.5418,-5.511,-5.5094,-5.5391,-5.5715,-5.5716,-5.5686,-5.5724,-5.5724,-5.5388,-5.4761,-5.3497,-5.4192,-5.51,-5.51,-5.6398,-5.7853,-5.872,-5.8845,-5.9224,-6.058,-6.043,-6.0283,-6.0734,-6.0819,-6.0622,-6.0161,-6.0895,-6.1241,-6.0777,-6.1425,-6.2218,-6.3048,-6.3579,-6.4253,-6.5023,-6.5597,-6.5897,-6.5897,-6.5897,-6.5897,-6.5897,-6.6046,-6.6067,-6.5897,-6.691,-6.7487,-6.7705,-6.8524,-6.9473,-7.052,-7.052,-7.1558,-7.3242,-7.2187,-7.2131,-7.2773,-7.2592,-7.1881,-7.1245,-7.4668,-7.5485,-7.5042,-7.757,-7.9062,-7.9792,5.038,4.9934,4.9452,4.9085,4.9246,4.97,5.0442,5.0642,5.0602,5.0427,4.9415,4.8738,4.883,4.7936,4.7534,4.8088,4.7299,4.679,4.6865,4.7489,4.7859,4.7932,4.9096,4.9676,4.944,4.8871,4.8589,4.8561,4.8226,4.7895,4.7451,4.5859,4.4238,4.249,4.0037,3.7344,3.447,3.0318,2.869,2.6989,0.4989,-0.463,-0.8896,-3.7261,-4.8021,-4.8315,-5.0855,-5.3089,-5.4828,-5.5265,-5.5455,-5.5516,-5.5528,-5.5605,-5.5868,-5.6753,-5.7041,-5.7089,-5.7375,-5.7359,-5.7033,-5.6101,-5.5884,-5.6033,-5.6356,-5.7267,-5.8173,-5.8778,-5.9827,-6.0856,-6.1579,-6.1593,-6.1569,-6.1704,-6.1704,-6.168,-6.1505,-6.2209,-6.2766,-6.2877,-6.3435,-6.3991,-6.4443,-6.5006,-6.5394,-6.5624,-6.5808,-6.5897,-6.5897,-6.5897,-6.5897,-6.5897,-6.6497,-6.6869,-6.6961,-6.7247,-6.7722,-6.8429,-6.9372,-7.0683,-7.2257,-7.2413,-7.3042,-7.3984,-7.3672,-7.3492,-7.3444,-7.3379,-7.3101,-7.2909,-7.513,-7.5861,-7.5908,-7.8446,-7.9592,-7.99,4.6716,4.5924,4.5629,4.5977,4.6801,4.7683,4.8384,4.9273,4.9936,5.01,4.9526,4.9221,4.9637,4.8776,4.8203,4.8274,4.7154,4.6198,4.5686,4.6624,4.7226,4.7262,4.7691,4.8044,4.8383,4.7858,4.7524,4.7446,4.711,4.6729,4.6385,4.4898,4.3589,4.2353,4.0423,3.8429,3.6225,3.4196,3.0056,2.3261,0.4526,-0.6885,-1.5317,-3.9422,-4.796,-4.7588,-5.1296,-5.3239,-5.422,-5.4971,-5.544,-5.5818,-5.6511,-5.6742,-5.6896,-5.7643,-5.8078,-5.8398,-5.8635,-5.857,-5.847,-5.85,-5.7883,-5.7393,-5.7687,-5.8524,-5.9426,-6.0032,-6.0966,-6.1747,-6.2065,-6.2358,-6.2474,-6.2127,-6.2358,-6.2551,-6.2551,-6.3281,-6.3899,-6.4106,-6.4692,-6.5205,-6.5408,-6.569,-6.5897,-6.5897,-6.5897,-6.5897,-6.5897,-6.6205,-6.6359,-6.6359,-6.7215,-6.7718,-6.7789,-6.8191,-6.8708,-6.9323,-7.0257,-7.1484,-7.289,-7.3377,-7.3989,-7.4696,-7.4616,-7.4441,-7.4205,-7.4115,-7.387,-7.3716,-7.6092,-7.6784,-7.6823,-7.9361,-8.0323,-8.04,4.2747,4.1158,4.0632,4.304,4.4048,4.4785,4.5642,4.7401,4.8604,4.8551,4.8948,4.901,4.8337,4.8308,4.8194,4.7957,4.7107,4.6116,4.4907,4.5807,4.6463,4.6587,4.5297,4.5035,4.6086,4.6406,4.6561,4.6685,4.5831,4.5405,4.5474,4.4096,4.2982,4.1938,4.1014,3.9563,3.7844,3.8207,2.9511,1.4884,0.483,-0.9821,-2.6793,-3.8222,-4.4792,-4.8315,-5.0875,-5.2137,-5.2892,-5.4625,-5.549,-5.6088,-5.778,-5.8242,-5.8219,-5.8357,-5.8934,-5.9511,-5.9588,-5.9294,-5.9289,-6.0479,-5.9933,-5.9081,-5.9081,-5.9971,-6.1012,-6.182,-6.205,-6.2127,-6.2166,-6.282,-6.3089,-6.2435,-6.2935,-6.3435,-6.3435,-6.4141,-6.468,-6.4705,-6.5372,-6.5872,-6.5897,-6.5897,-6.5897,-6.5897,-6.5897,-6.5897,-6.5897,-6.659,-6.7013,-6.709,-6.8127,-6.869,-6.8642,-6.9705,-7.0187,-7.0167,-7.1126,-7.2023,-7.284,-7.3703,-7.4598,-7.5378,-7.5205,-7.5104,-7.5089,-7.4973,-7.4514,-7.4186,-7.7381,-7.8219,-7.7862,-8.029,-8.1176,-8.1176,3.7737,3.7214,3.7183,3.8552,3.9677,4.1934,4.6404,4.81,5.0008,5.3135,5.2285,5.0575,4.8396,4.631,4.5077,4.5016,4.6046,4.4936,4.0832,3.966,3.9991,4.2093,3.794,3.5234,3.4541,4.0167,4.344,4.408,4.4381,4.4838,4.5494,4.5048,4.4687,4.4397,4.2987,4.2966,4.3113,3.051,2.3923,1.9651,-0.7834,-2.0831,-2.5373,-4.0882,-4.7446,-4.8607,-4.9816,-5.1285,-5.3108,-5.5345,-5.637,-5.6896,-5.7956,-5.7841,-5.7533,-5.8835,-5.9358,-5.9627,-6.0319,-6.0426,-6.0416,-6.0719,-6.058,-6.0378,-6.0378,-6.058,-6.0858,-6.105,-6.1627,-6.2281,-6.2935,-6.3166,-6.3474,-6.3974,-6.4205,-6.432,-6.432,-6.4698,-6.515,-6.5564,-6.5427,-6.5446,-6.5872,-6.5897,-6.5897,-6.5897,-6.5897,-6.5897,-6.5897,-6.6051,-6.6436,-6.709,-6.8629,-6.9832,-7.0617,-7.2004,-7.1775,-6.9963,-7.1525,-7.28,-7.3744,-7.4629,-7.5414,-7.6083,-7.6024,-7.5957,-7.5821,-7.6467,-7.675,-7.6924,-7.895,-7.9731,-7.9872,-8.1116,-8.1582,-8.1582,3.0072,2.9609,2.8335,2.3789,2.4072,2.4576,2.3628,2.4531,2.6086,2.8049,2.7472,2.6619,2.5965,2.4295,2.3088,2.274,2.358,2.2901,2.0155,1.978,2.037,2.1886,1.8754,1.6573,1.5686,1.8506,2.626,3.9062,4.0448,4.2388,4.4892,4.4902,4.523,4.5772,4.4366,4.051,3.4504,2.4301,1.3811,0.2502,-1.4984,-2.5841,-3.2777,-4.2746,-4.6938,-4.7638,-4.9179,-5.1622,-5.4539,-5.6793,-5.7596,-5.778,-5.8611,-5.8572,-5.838,-5.9242,-5.9781,-6.0204,-6.0666,-6.0781,-6.0781,-6.0781,-6.0781,-6.0781,-6.0781,-6.0781,-6.0935,-6.132,-6.2089,-6.282,-6.3243,-6.3974,-6.4551,-6.4589,-6.4936,-6.5205,-6.5205,-6.5356,-6.5475,-6.5542,-6.5513,-6.5569,-6.5872,-6.6244,-6.632,-6.5936,-6.6244,-6.6474,-6.6474,-6.6859,-6.7475,-6.8321,-6.959,-7.0735,-7.168,-7.2469,-7.2465,-7.1629,-7.2552,-7.3447,-7.4341,-7.4832,-7.5408,-7.6169,-7.6169,-7.6322,-7.6659,-7.7213,-7.7742,-7.8292,-7.9718,-8.0297,-8.0528,-8.1369,-8.168,-8.168,2.0174,1.8797,1.5593,0.6165,0.5313,0.3854,-0.2316,-0.2154,-0.1245,-0.0882,-0.0861,-0.0529,0.0422,-0.0308,-0.1307,-0.2356,-0.2912,-0.3669,-0.4664,-0.4138,-0.367,-0.3404,-0.2895,-0.3006,-0.3832,-0.5388,0.5053,2.7843,2.9796,3.2664,3.6411,3.6805,3.7644,3.8721,3.742,3.0526,1.9581,1.4516,0.0581,-1.8266,-2.1036,-2.987,-4.1573,-4.3873,-4.5429,-4.6532,-4.8882,-5.2381,-5.6204,-5.7916,-5.8501,-5.8665,-5.9473,-5.9627,-5.9511,-5.9665,-6.0204,-6.0781,-6.0781,-6.0781,-6.0819,-6.0973,-6.1012,-6.105,-6.1204,-6.1127,-6.1281,-6.2127,-6.2858,-6.3358,-6.3512,-6.4705,-6.5474,-6.4936,-6.5436,-6.5872,-6.5781,-6.5781,-6.5597,-6.5161,-6.5569,-6.5936,-6.609,-6.6717,-6.6882,-6.6227,-6.6931,-6.734,-6.7224,-6.8034,-6.8858,-6.9708,-7.0555,-7.1505,-7.2508,-7.2662,-7.3189,-7.4088,-7.4038,-7.4279,-7.4716,-7.4889,-7.5456,-7.6207,-7.6207,-7.6707,-7.7506,-7.7882,-7.843,-7.9192,-8.0264,-8.0715,-8.0818,-8.1546,-8.178,-8.178,0.7333,0.2709,-0.1403,-0.5859,-0.745,-0.7277,-0.4874,-0.4721,-0.3615,-0.0243,-0.0637,-0.1786,-0.3253,-0.4987,-0.6949,-0.9323,-1.1948,-1.5226,-1.9274,-2.1555,-2.2608,-2.2364,-1.5763,-1.3174,-1.5541,-1.4798,-0.9199,0.1389,0.1773,0.2887,0.4692,0.5723,0.6533,0.7018,0.5876,0.5518,0.4931,-0.846,-1.5845,-1.9566,-3.1552,-3.883,-4.263,-4.4247,-4.5489,-4.6717,-4.8939,-5.2744,-5.6852,-5.7143,-5.8158,-5.9473,-6.0358,-6.0089,-5.965,-6.0396,-6.0704,-6.0781,-6.0781,-6.0781,-6.0973,-6.1743,-6.1935,-6.2089,-6.282,-6.2435,-6.2127,-6.2974,-6.3243,-6.3551,-6.4282,-6.4628,-6.4974,-6.5628,-6.582,-6.5755,-6.5291,-6.523,-6.5161,-6.5099,-6.5569,-6.6167,-6.6859,-6.72,-6.7309,-6.7212,-6.8092,-6.8356,-6.7641,-6.8394,-6.9157,-6.9864,-7.0869,-7.219,-7.376,-7.4522,-7.5415,-7.642,-7.6271,-7.564,-7.4716,-7.5683,-7.6469,-7.713,-7.713,-7.7592,-7.8391,-7.939,-7.9931,-8.0302,-8.1371,-8.1903,-8.2065,-8.2182,-8.2221,-8.2221,-0.5081,-0.8259,-1.2756,-2.2794,-2.4888,-2.6239,-2.9725,-3.0597,-3.0363,-2.9088,-2.9342,-2.9777,-2.997,-3.0559,-3.1288,-3.2148,-3.3529,-3.5074,-3.6744,-3.7528,-3.7641,-3.7049,-3.4364,-3.3382,-3.4399,-3.5036,-3.36,-3.0108,-1.568,-0.688,-0.3642,-0.2965,-0.1919,-0.0883,-0.705,-1.0422,-1.2471,-2.7961,-3.4172,-3.4048,-3.9734,-4.3127,-4.4744,-4.5456,-4.6518,-4.8096,-5.1275,-5.4529,-5.7377,-5.8076,-5.8981,-5.9958,-6.0618,-6.055,-6.0281,-6.0666,-6.1127,-6.1512,-6.155,-6.1858,-6.2281,-6.2666,-6.2781,-6.2974,-6.382,-6.3743,-6.3435,-6.3344,-6.3666,-6.4128,-6.4537,-6.4974,-6.5436,-6.582,-6.5897,-6.5808,-6.5569,-6.5542,-6.5542,-6.5542,-6.5935,-6.6458,-6.7178,-6.7753,-6.8103,-6.8241,-6.8642,-6.8968,-6.9085,-6.9435,-6.9978,-7.0765,-7.1248,-7.2302,-7.3975,-7.4364,-7.5301,-7.6738,-7.676,-7.6342,-7.5619,-7.6575,-7.7137,-7.7323,-7.7784,-7.8507,-7.9456,-8.0027,-8.0668,-8.1343,-8.1954,-8.2221,-8.2304,-8.2304,-8.2304,-8.2304]},{"header":{"parameterUnit":"m.s-1","parameterCategory":1,"la1":30.6,"la2":28.766,"lo1":-90.7593,"lo2":-88.6598,"dy":0.0162,"dx":0.0183,"nx":116,"ny":114,"refTime":"2024-03-05T18:00:00:Z","depth":0,"parameterNumber":3,"parameterNumberName":"V-component_of_WINDS"},"data":[0.0,0.0,0.0,0.0,0.0,0.0,0.0,0.0,0.0,0.0,0.0,0.0,0.0,0.0,0.0,0.0,0.0,0.0,0.0,0.0,0.0,0.0,0.0,0.0,0.0,0.0,0.0,0.0,0.0,0.0,0.0,0.0,0.0,0.0,0.0,0.0,0.0,0.0,0.0,0.0,0.0,0.0,0.0,0.0,0.0,0.0,0.0,0.0,0.0,0.0,0.0,0.0,0.0,0.0,0.0,0.0,0.0,0.0,0.0,0.0,0.0,0.0,0.0,0.0,0.0,0.0,0.0,0.0,0.0,0.0,0.0,0.0,0.0,0.0,0.0,0.0,0.0,0.0,0.0,0.0,0.0,0.0,0.0,0.0,0.0,0.0,0.0,0.0,0.0,0.0,0.0,0.0,0.0,0.0,0.0,0.0,0.0,0.0,0.0,0.0,0.0,0.0,0.0,0.0,0.0,0.0,0.0,0.0,0.0,0.0,0.0,0.0,0.0,0.0,0.0,0.0,0.0,0.0,0.0,0.0,0.0,0.0,0.0,0.0,0.0,0.0,0.0,0.0,0.0,0.0,0.0,0.0,0.0,0.0,0.0,0.0,0.0,0.0,0.0,0.0,0.0,0.0,0.0,0.0,0.0,0.0,0.0,0.0,0.0,0.0,0.0,0.0,0.0,0.0,0.0,0.0,0.0,0.0,0.0,0.0,0.0,0.0,0.0,0.0,0.0,0.0,0.0,0.0,0.0,0.0,0.0,0.0,0.0,0.0,0.0,0.0,0.0,0.0,0.0,0.0,0.0,0.0,0.0,0.0,0.0,0.0,0.0,0.0,0.0,0.0,0.0,0.0,0.0,0.0,0.0,0.0,0.0,0.0,0.0,0.0,0.0,0.0,0.0,0.0,0.0,0.0,0.0,0.0,0.0,0.0,0.0,0.0,0.0,0.0,0.0,0.0,0.0,0.0,0.0,0.0,0.0,0.0,0.0,0.0,0.0,0.0,0.0,0.0,0.0,0.0,0.0,0.0,0.0,0.0,0.0,0.0,0.0,0.0,0.0,0.0,0.0,0.0,0.0,0.0,0.0,0.0,0.0,0.0,0.0,0.0,0.0,0.0,0.0,0.0,0.0,0.0,0.0,0.0,0.0,0.0,0.0,0.0,0.0,0.0,0.0,0.0,0.0,0.0,0.0,0.0,0.0,0.0,0.0,0.0,0.0,0.0,0.0,0.0,0.0,0.0,0.0,0.0,0.0,0.0,0.0,0.0,0.0,0.0,0.0,0.0,0.0,0.0,0.0,0.0,0.0,0.0,0.0,0.0,0.0,0.0,0.0,0.0,0.0,0.0,0.0,0.0,0.0,0.0,0.0,0.0,0.0,0.0,0.0,0.0,0.0,0.0,0.0,0.0,0.0,0.0,0.0,0.0,0.0,0.0,0.0,0.0,0.0,0.0,0.0,0.0,0.0,0.0,0.0,0.0,0.0,0.0,0.0,0.0,0.0,0.0,0.0,0.0,0.0,0.0,0.0,0.0,0.0,0.0,0.0,0.0,0.0,0.0,0.0,0.0,0.0,0.0,0.0,0.0,0.0,0.0,0.0,0.0,0.0,0.0,0.0,0.0,0.0,0.0,0.0,0.0,0.0,0.0,0.0,0.0,0.0,0.0,0.0,0.0,0.0,0.0,0.0,0.0,0.0,0.0,0.0,0.0,0.0,0.0,0.0,0.0,0.0,0.0,0.0,0.0,0.0,0.0,0.0,0.0,0.0,0.0,0.0,0.0,0.0,0.0,0.0,0.0,0.0,0.0,0.0,0.0,0.0,0.0,0.0,0.0,0.0,0.0,0.0,0.0,0.0,0.0,0.0,0.0,0.0,0.0,0.0,0.0,0.0,0.0,0.0,0.0,0.0,0.0,0.0,0.0,0.0,0.0,0.0,0.0,0.0,0.0,0.0,0.0,0.0,0.0,0.0,0.0,0.0,0.0,0.0,0.0,0.0,0.0,0.0,0.0,0.0,0.0,0.0,0.0,0.0,0.0,0.0,0.0,0.0,0.0,0.0,0.0,0.0,0.0,0.0,0.0,0.0,0.0,0.0,0.0,0.0,0.0,0.0,0.0,0.0,0.0,0.0,0.0,0.0,0.0,0.0,0.0,0.0,0.0,0.0,0.0,0.0,0.0,0.0,0.0,0.0,0.0,0.0,0.0,0.0,0.0,0.0,0.0,0.0,0.0,0.0,0.0,0.0,0.0,0.0,0.0,0.0,0.0,0.0,0.0,0.0,0.0,0.0,0.0,0.0,0.0,0.0,0.0,0.0,0.0,0.0,0.0,0.0,0.0,0.0,0.0,0.0,0.0,0.0,0.0,0.0,0.0,0.0,0.0,0.0,0.0,0.0,0.0,0.0,0.0,0.0,0.0,0.0,0.0,0.0,0.0,0.0,0.0,0.0,0.0,0.0,0.0,0.0,0.0,0.0,0.0,0.0,0.0,0.0,0.0,0.0,0.0,0.0,0.0,0.0,0.0,0.0,0.0,0.0,0.0,0.0,0.0,0.0,0.0,0.0,0.0,0.0,0.0,0.0,0.0,0.0,0.0,0.0,0.0,0.0,0.0,0.0,0.0,0.0,0.0,0.0,0.0,0.0,0.0,0.0,0.0,0.0,0.0,0.0,0.0,0.0,0.0,0.0,0.0,0.0,0.0,0.0,0.0,0.0,0.0,0.0,0.0,0.0,0.0,0.0,0.0,0.0,0.0,0.0,0.0,0.0,0.0,0.0,0.0,0.0,0.0,0.0,0.0,0.0,0.0,0.0,0.0,0.0,0.0,0.0,0.0,0.0,0.0,0.0,0.0,0.0,0.0,0.0,0.0,0.0,0.0,0.0,0.0,0.0,0.0,0.0,0.0,0.0,0.0,0.0,0.0,0.0,0.0,0.0,0.0,0.0,0.0,0.0,0.0,0.0,0.0,0.0,0.0,0.0,0.0,0.0,0.0,0.0,0.0,0.0,0.0,0.0,0.0,0.0,0.0,0.0,0.0,0.0,0.0,0.0,0.0,0.0,0.0,0.0,0.0,0.0,0.0,0.0,0.0,0.0,0.0,0.0,0.0,0.0,0.0,0.0,0.0,0.0,0.0,0.0,0.0,0.0,0.0,0.0,0.0,0.0,0.0,0.0,0.0,0.0,0.0,0.0,0.0,0.0,0.0,0.0,0.0,0.0,0.0,0.0,0.0,0.0,0.0,0.0,0.0,0.0,0.0,0.0,0.0,0.0,0.0,0.0,0.0,0.0,0.0,0.0,0.0,0.0,0.0,0.0,0.0,0.0,0.0,0.0,0.0,0.0,0.0,0.0,0.0,0.0,0.0,0.0,0.0,0.0,0.0,0.0,0.0,0.0,0.0,0.0,0.0,0.0,0.0,0.0,0.0,0.0,0.0,0.0,0.0,0.0,0.0,0.0,0.0,0.0,0.0,0.0,0.0,0.0,0.0,0.0,0.0,0.0,0.0,0.0,0.0,0.0,0.0,0.0,0.0,0.0,0.0,0.0,0.0,0.0,0.0,0.0,0.0,0.0,0.0,0.0,0.0,0.0,0.0,0.0,0.0,0.0,0.0,0.0,0.0,0.0,0.0,0.0,0.0,0.0,0.0,0.0,0.0,0.0,0.0,0.0,0.0,0.0,0.0,0.0,0.0,0.0,0.0,0.0,0.0,0.0,0.0,0.0,0.0,0.0,0.0,0.0,0.0,0.0,0.0,0.0,0.0,0.0,0.0,0.0,0.0,0.0,0.0,0.0,0.0,0.0,0.0,0.0,0.0,0.0,0.0,0.0,0.0,0.0,0.0,0.0,0.0,0.0,0.0,0.0,0.0,0.0,0.0,0.0,0.0,0.0,0.0,0.0,0.0,0.0,0.0,0.0,0.0,0.0,0.0,0.0,0.0,0.0,0.0,0.0,0.0,0.0,0.0,0.0,0.0,0.0,0.0,0.0,0.0,0.0,0.0,0.0,0.0,0.0,0.0,0.0,0.0,0.0,0.0,0.0,0.0,0.0,0.0,0.0,0.0,0.0,0.0,0.0,0.0,0.0,0.0,0.0,0.0,0.0,0.0,0.0,0.0,0.0,0.0,0.0,0.0,0.0,0.0,0.0,0.0,0.0,0.0,0.0,0.0,0.0,0.0,0.0,0.0,0.0,0.0,0.0,0.0,0.0,0.0,0.0,0.0,0.0,0.0,0.0,0.0,0.0,0.0,0.0,0.0,0.0,0.0,0.0,0.0,0.0,0.0,0.0,0.0,0.0,0.0,0.0,0.0,0.0,0.0,0.0,0.0,0.0,0.0,0.0,0.0,0.0,0.0,0.0,0.0,0.0,0.0,0.0,0.0,0.0,0.0,0.0,0.0,0.0,0.0,0.0,0.0,0.0,0.0,0.0,0.0,0.0,0.0,0.0,0.0,0.0,0.0,0.0,0.0,0.0,0.0,0.0,0.0,0.0,0.0,0.0,0.0,0.0,0.0,0.0,0.0,0.0,0.0,0.0,0.0,0.0,0.0,0.0,0.0,0.0,0.0,0.0,0.0,0.0,0.0,0.0,0.0,0.0,0.0,0.0,0.0,0.0,0.0,0.0,0.0,0.0,0.0,0.0,0.0,0.0,0.0,0.0,0.0,0.0,0.0,0.0,0.0,0.0,0.0,0.0,0.0,0.0,0.0,0.0,0.0,0.0,0.0,0.0,0.0,0.0,0.0,0.0,0.0,0.0,0.0,0.0,0.0,0.0,0.0,0.0,0.0,0.0,0.0,0.0,0.0,0.0,0.0,0.0,0.0,0.0,0.0,0.0,0.0,0.0,0.0,0.0,0.0,0.0,0.0,0.0,0.0,0.0,0.0,0.0,0.0,0.0,0.0,0.0,0.0,0.0,0.0,0.0,0.0,0.0,0.0,0.0,0.0,0.0,0.0,0.0,0.0,0.0,0.0,0.0,0.0,0.0,0.0,0.0,0.0,0.0,0.0,0.0,0.0,0.0,0.0,0.0,0.0,0.0,0.0,0.0,0.0,0.0,0.0,0.0,0.0,0.0,0.0,0.0,0.0,0.0,0.0,0.0,0.0,0.0,0.0,0.0,0.0,0.0,0.0,0.0,0.0,0.0,0.0,0.0,0.0,0.0,0.0,0.0,0.0,0.0,0.0,0.0,0.0,0.0,0.0,0.0,0.0,0.0,0.0,0.0,0.0,0.0,0.0,0.0,0.0,0.0,0.0,0.0,0.0,0.0,0.0,0.0,0.0,0.0,0.0,0.0,0.0,0.0,0.0,0.0,0.0,0.0,0.0,0.0,0.0,0.0,0.0,0.0,0.0,0.0,0.0,0.0,0.0,0.0,0.0,0.0,0.0,0.0,0.0,0.0,0.0,0.0,0.0,0.0,0.0,0.0,0.0,0.0,0.0,0.0,0.0,0.0,0.0,0.0,0.0,0.0,0.0,0.0,0.0,0.0,0.0,0.0,0.0,0.0,0.0,0.0,0.0,0.0,0.0,0.0,0.0,0.0,0.0,0.0,0.0,0.0,0.0,0.0,0.0,0.0,0.0,0.0,0.0,0.0,0.0,0.0,0.0,0.0,0.0,0.0,0.0,0.0,0.0,0.0,0.0,0.0,0.0,0.0,0.0,0.0,0.0,0.0,0.0,0.0,0.0,0.0,0.0,0.0,0.0,0.0,0.0,0.0,0.0,0.0,0.0,0.0,0.0,0.0,0.0,0.0,0.0,0.0,0.0,0.0,0.0,0.0,0.0,0.0,0.0,0.0,0.0,0.0,0.0,0.0,0.0,0.0,0.0,0.0,0.0,0.0,0.0,0.0,0.0,0.0,0.0,0.0,0.0,0.0,0.0,0.0,0.0,0.0,0.0,0.0,0.0,0.0,0.0,0.0,0.0,0.0,0.0,0.0,0.0,0.0,0.0,0.0,0.0,0.0,0.0,0.0,0.0,0.0,0.0,0.0,0.0,0.0,0.0,0.0,0.0,0.0,0.0,0.0,0.0,0.0,0.0,0.0,0.0,0.0,0.0,0.0,0.0,0.0,0.0,0.0,0.0,0.0,0.0,0.0,0.0,-0.4362,-0.4851,0.0,0.0,0.0,0.0,0.0,0.0,0.0,0.0,0.0,0.0,0.0,0.0,0.0,0.0,0.0,0.0,0.0,0.0,0.0,0.0,0.0,0.0,0.0,0.0,0.0,0.0,0.0,0.0,0.0,0.0,0.0,0.0,0.0,0.0,-2.2852,-2.0753,-1.763,-1.3397,-0.9963,-0.738,-0.5433,-0.1037,-0.0119,-0.1995,0.0,0.0,0.0,0.0,0.0,0.0,0.0,0.0,0.0,0.0,0.0,0.0,0.0,0.0,0.0,0.0,0.0,0.0,0.0,0.0,0.0,0.0,0.0,0.0,0.0,0.0,0.0,0.0,0.0,0.0,0.0,0.0,0.0,0.0,0.0,0.0,0.0,0.0,0.0,0.0,0.0,0.0,0.0,0.0,0.0,0.0,0.0,0.0,0.0,0.0,0.0,0.0,0.0,0.0,0.0,0.0,0.0,0.0,0.0,0.0,0.0,0.0,0.0,0.0,0.0,0.0,0.0,0.0,0.0,0.0,-0.5976,-0.6148,0.0,0.0,0.0,0.0,0.0,0.0,0.0,0.0,0.0,0.0,0.0,0.0,0.0,0.0,0.0,0.0,0.0,0.0,0.0,0.0,0.0,0.0,0.0,-2.2525,-2.1746,-2.0837,-1.9687,-1.927,0.0,0.0,0.0,0.0,0.0,-2.2467,-2.0744,-1.8396,-1.4995,-1.0446,-0.8537,-0.6747,-0.5024,-0.5118,-0.4891,-0.4307,-0.3427,0.0,0.0,0.0,0.0,0.0,0.0,0.0,0.0,0.0,0.0,0.0,0.0,0.0,0.0,0.0,0.0,0.0,0.0,0.0,0.0,0.0,0.0,0.0,0.0,0.0,0.0,0.0,0.0,0.0,0.0,0.0,0.0,0.0,0.0,0.0,0.0,0.0,0.0,0.0,0.0,0.0,0.0,0.0,0.0,0.0,0.0,0.0,0.0,0.0,0.0,0.0,0.0,0.0,0.0,0.0,0.0,0.0,0.0,0.0,0.0,0.0,0.0,0.0,-0.3758,-0.4667,-0.6292,-0.6432,-0.7094,-0.7986,-0.7875,-0.7808,-0.758,-0.6173,0.0,0.0,0.0,0.0,0.0,0.0,0.0,0.0,0.0,0.0,0.0,0.0,0.0,0.0,0.0,0.0,0.0,0.0,0.0,0.0,-2.3364,-2.263,-2.1859,-2.1026,-1.8995,-1.8236,-1.944,-1.8528,-1.8728,-2.0514,-2.0774,-2.017,-1.8693,-1.5633,-1.2904,-1.0678,-0.8093,-0.641,-0.5701,-0.6049,-0.5728,-0.4989,-0.482,-0.3679,-0.2015,0.0,0.0,0.0,0.0,0.0,0.0,0.0,0.0,0.0,0.0,0.0,0.0,0.0,0.0,0.0,0.0,0.0,0.0,0.0,0.0,0.0,0.0,0.0,0.0,0.0,0.0,0.0,0.0,0.0,0.0,0.0,0.0,0.0,0.0,0.0,0.0,0.0,0.0,0.0,0.0,0.0,1.057,1.0954,0.0,0.0,0.0,0.0,0.0,0.0,0.0,0.0,0.0,0.0,0.0,0.0,0.0,-0.0756,-0.2272,-0.2492,-0.347,-0.5451,-0.7012,-0.7912,-0.8194,-0.9698,-1.0326,-1.0472,-1.0623,0.0,-1.0266,-0.9985,0.0,0.0,0.0,0.0,0.0,0.0,0.0,0.0,0.0,0.0,0.0,0.0,0.0,0.0,0.0,0.0,0.0,0.0,0.0,0.0,0.0,-2.3447,-2.3154,-2.1549,-2.1301,-2.1011,-2.0467,-1.9577,-1.9436,-2.0217,-1.9595,-1.814,-1.5934,-1.2956,-1.0179,-0.7561,-0.6613,-0.6139,-0.5947,-0.6021,-0.5115,-0.3355,-0.4193,-0.3827,-0.2822,-0.373,0.0,0.0,0.0,0.0,0.0,0.0,0.0,0.0,0.0,0.0,0.0,0.0,0.0,0.0,0.0,0.0,0.0,0.0,0.0,0.0,0.0,0.0,0.0,0.0,0.0,0.0,0.0,0.0,0.0,0.0,0.0,0.0,0.0,0.0,0.0,0.0,0.0,0.0,0.0,0.9449,0.9446,1.0306,0.8817,0.7651,0.0,0.0,0.0,0.0,0.0,0.0,0.0,0.0,0.0,0.1618,-0.047,-0.2051,-0.2868,-0.405,-0.5492,-0.7425,-0.8148,-0.9109,-1.0156,-1.073,-1.1042,-1.1077,-1.101,-1.3012,-1.6198,-1.2365,-0.9932,-0.81,0.0,0.0,0.0,0.0,0.7174,0.9152,0.0,0.0,0.0,0.0,0.0,0.0,0.0,0.0,0.0,0.0,0.0,0.0,-2.326,-2.4701,-2.4894,-2.2842,-2.3141,-2.2748,-2.0969,-1.9899,-1.9224,-1.9036,-1.7942,-1.6061,-1.3247,-1.0231,-0.7372,-0.4835,-0.5121,-0.5341,-0.5512,-0.5026,-0.3827,-0.202,-0.308,-0.3567,-0.3577,-0.4324,-0.4777,-0.502,0.0,0.0,0.0,0.0,0.0,0.0,0.0,0.0,0.0,0.0,0.0,0.0,0.0,0.0,0.0,0.0,0.0,0.0,0.0,0.0,0.0,0.0,0.0,0.0,0.0,0.0,0.0,0.0,0.0,0.0,0.0,0.0,0.0,0.0,0.0,0.0,0.0,0.9833,0.9928,1.0771,1.0263,0.9245,0.0,0.0,0.0,0.0,0.0,0.0,0.5643,0.2494,0.1414,0.2794,-0.0903,-0.3187,-0.3599,-0.5604,-0.7495,-0.9389,-0.9299,-0.9992,-1.1321,-1.1682,-1.2127,-1.2616,-1.3054,-1.6257,-2.0733,-1.5494,-1.2294,-1.015,-0.4793,-0.1614,0.0423,0.3566,0.7127,1.0288,0.0,0.0,0.0,0.0,0.0,0.0,0.0,0.0,0.0,0.0,0.0,-2.5691,-2.4948,-2.6386,-2.678,-2.5334,-2.2931,-2.1064,-1.994,-1.7913,-1.6505,-1.5864,-1.5168,-1.3584,-1.0896,-0.7234,-0.49,-0.404,-0.3963,-0.394,-0.4024,-0.2755,-0.2123,-0.202,-0.2233,-0.2959,-0.4278,-0.5716,-0.6667,-0.7177,-0.6152,0.0,0.0,0.0,0.0,0.0,0.0,0.0,0.0,0.0,0.0,0.0,0.0,0.0,0.0,0.0,0.0,0.0,0.0,0.0,0.0,0.0,0.0,0.0,0.0,0.0,0.0,0.0,0.0,0.0,0.0,0.0,0.0,0.0,0.0,0.0,0.0,0.0,0.0,1.4652,1.4837,0.0,0.0,0.0,0.0,0.7214,0.6926,0.6566,0.5838,0.387,0.2845,0.2914,-0.0844,-0.3829,-0.5686,-0.7625,-0.9501,-1.1248,-1.1241,-1.1307,-1.131,-1.3325,-1.4976,-1.6267,-1.9289,-2.0732,-2.1062,-2.072,-1.6642,-1.0709,-1.0288,-0.5953,0.0,0.0227,0.4705,1.0666,0.0,0.0,0.0,0.0,0.0,0.0,0.0,0.0,-2.3897,-2.366,-2.5317,-2.6216,-2.5362,-2.7933,-2.8763,-2.6273,-2.5621,-2.4617,-2.3034,-2.027,-1.8667,-1.8642,-1.5614,-1.1869,-0.7371,-0.5867,-0.4398,-0.2835,-0.3532,-0.3521,-0.2852,-0.2281,-0.1523,-0.066,-0.077,-0.2088,-0.4484,-0.6746,-0.7284,-0.671,-0.6262,-0.4304,0.0,0.0,0.0,0.0,0.0,0.0,0.0,0.0,0.0,0.0,0.0,0.0,0.0,0.0,0.0,0.0,0.0,0.0,0.0,0.0,0.0,0.0,0.0,0.0,0.0,0.0,0.0,0.0,0.0,0.0,0.0,0.0,0.0,0.0,0.0,0.0,0.0,1.5666,1.5814,0.0,1.1722,1.189,1.1354,0.9084,0.8307,0.777,0.7612,0.4638,0.2355,0.1144,-0.2012,-0.461,-0.7056,-0.933,-1.087,-1.1389,-1.1199,-1.1617,-1.2759,-1.3874,-1.5342,-1.7433,-2.1658,-2.2587,-2.1118,-2.1135,-1.9683,-1.6954,-1.2449,-0.9082,-0.6297,-0.1733,0.1623,0.4511,0.0,0.0,0.0,0.0,0.0,0.0,0.0,0.0,-2.4356,-2.5073,-2.7169,-2.8582,-2.8411,-3.1366,-3.2172,-2.9195,-2.8731,-2.7427,-2.4676,-2.1931,-1.9966,-1.9015,-1.4871,-1.0826,-0.7009,-0.5328,-0.3503,-0.1485,-0.1707,-0.1516,-0.0775,-0.0662,-0.0332,0.0,-0.0557,-0.1887,-0.3871,-0.61,-0.681,-0.6344,-0.5615,-0.3432,-0.0328,0.0,0.0,0.0,0.0,0.0,0.0,0.0,0.0,0.0,0.0,0.0,0.0,0.0,0.0,0.0,0.0,0.0,0.0,0.0,0.0,0.0,0.0,0.0,0.0,0.0,0.0,0.0,0.0,0.0,0.0,0.0,0.0,0.0,0.0,1.4113,1.5332,1.6845,1.778,1.6801,1.3343,1.3619,1.3106,1.0623,0.9777,0.9098,0.8581,0.5587,0.3022,0.1304,-0.202,-0.4895,-0.7048,-1.0094,-1.142,-1.1199,-1.1138,-1.1531,-1.2624,-1.4392,-1.635,-1.8518,-2.2544,-2.4006,-2.3627,-2.4165,-2.4358,-2.3783,-1.6914,-1.4162,-1.3363,-0.596,-0.1931,0.1024,0.0,0.0,0.0,0.0,0.0,0.0,-2.5014,-2.4603,-2.5226,-2.7774,-3.0527,-3.2788,-3.4141,-3.66,-3.7002,-3.4162,-3.2101,-2.9113,-2.4856,-2.2612,-1.9938,-1.669,-1.3042,-1.0779,-1.0086,-0.5763,-0.2365,0.0,0.1511,0.2181,0.2072,0.2217,0.1453,0.0112,-0.132,-0.2074,-0.2183,-0.3743,-0.5145,-0.6177,-0.4194,-0.1878,0.0769,0.0,0.0,0.0,0.0,0.0,0.0,0.0,0.0,0.0,0.0,0.0,0.0,0.0,0.0,0.0,0.0,0.0,0.0,0.0,0.0,0.0,0.0,0.0,0.0,0.0,0.0,0.0,0.0,0.0,0.0,0.0,0.0,0.0,1.5994,1.7424,1.8345,1.8579,2.0869,2.0385,1.5408,1.5964,1.5201,1.1664,1.1396,1.0599,0.8698,0.6821,0.5225,0.3771,-0.1145,-0.4545,-0.5955,-0.9672,-1.1467,-1.1242,-1.1361,-1.1233,-1.0991,-1.513,-1.7984,-1.9691,-2.2392,-2.536,-2.8327,-3.0054,-3.0834,-3.0181,-2.3653,-2.1122,-2.0234,-1.2797,-0.5941,0.0643,0.0,0.0,0.0,0.0,0.0,0.0,-2.5024,-2.4897,-2.5704,-2.8224,-3.1196,-3.3487,-3.4636,-3.7482,-3.8088,-3.4873,-3.3772,-3.1705,-2.814,-2.5562,-2.2834,-1.9794,-1.9155,-1.6841,-1.235,-0.7543,-0.3433,0.0,0.2343,0.3526,0.3422,0.3591,0.34,0.3071,0.2619,0.1315,-0.0664,-0.118,-0.2155,-0.3095,-0.0427,0.2878,0.6448,0.0,0.0,0.0,0.0,0.0,0.0,0.0,0.0,0.0,0.0,0.0,0.0,0.0,0.0,0.0,0.0,0.0,0.0,0.0,0.0,0.0,0.0,0.0,0.0,0.0,0.0,0.0,0.0,0.0,0.0,0.0,1.627,1.7541,1.735,1.8324,1.9591,2.0916,2.2044,2.1182,1.7005,1.6786,1.556,1.1837,1.1558,1.0562,0.814,0.7417,0.5373,0.1162,-0.0286,-0.3975,-0.9971,-1.0665,-1.0887,-1.096,-1.5903,-1.6976,-1.4459,-1.5666,-1.8311,-2.2093,-2.4317,-2.5715,-2.6681,-2.8371,-2.9411,-2.9351,-2.3369,-2.1135,-2.0835,-1.8803,-1.3382,-0.6179,0.0,0.0,0.0,0.0,0.0,0.0,-2.5226,-2.5226,-2.6484,-3.0047,-3.2761,-3.52,-3.737,-3.9352,-3.9585,-3.7154,-3.4825,-3.2192,-2.9149,-2.6673,-2.5379,-2.5442,-2.4766,-2.1603,-1.5554,-1.0928,-0.5457,0.0836,0.3552,0.5226,0.5643,0.6373,0.6419,0.578,0.5256,0.4098,0.2498,0.1281,0.0322,-0.0109,0.2808,0.5965,0.9146,1.2342,1.4495,1.4825,0.8498,0.3696,-0.0103,-0.3885,0.0,0.0,0.0,0.0,0.0,0.0,0.0,0.0,0.0,0.0,0.0,0.0,0.0,0.0,0.0,0.0,0.0,0.0,0.0,0.0,0.0,0.0,0.0,0.0,1.8892,1.9919,1.982,2.0232,2.0946,2.2018,2.2579,2.1459,1.7529,1.7248,1.5707,1.19,1.1619,1.0455,0.7842,0.7268,0.478,0.0144,0.0,-0.3645,-1.1192,-1.0826,-1.2103,-1.5173,-1.9185,-2.1039,-2.1026,-1.852,-2.0186,-2.5193,-2.5527,-2.6167,-2.6957,-2.8062,-2.8771,-2.8465,0.0,0.0,0.0,0.0,-1.7637,-1.2853,0.0,0.0,0.0,0.0,0.0,0.0,-2.5505,-2.5514,-2.7354,-3.2519,-3.4665,-3.719,-4.1074,-4.1722,-4.1362,-4.0081,-3.565,-3.1735,-2.9075,-2.7492,-2.8337,-3.2118,-3.0196,-2.6286,-2.0327,-1.5734,-0.8808,0.0606,0.3862,0.6422,0.8261,0.9745,0.9808,0.8866,0.7852,0.7357,0.7066,0.4334,0.308,0.3199,0.6013,0.8075,0.9874,1.3244,1.5719,1.6308,0.9625,0.4878,0.0995,-0.3752,0.0,0.0,0.0,0.0,0.0,0.0,0.0,0.0,0.0,0.0,0.0,0.0,0.0,0.0,0.0,0.0,0.0,0.0,0.0,0.0,0.0,0.0,0.0,0.0,2.0842,2.179,2.2338,2.2205,2.2124,2.2392,2.2686,2.1459,1.7529,1.7248,1.5557,1.1613,1.1476,1.0593,0.8266,0.7102,0.0,0.0,0.0,-0.3439,-1.0598,-1.1482,-1.4954,-2.0882,-2.0917,-2.3187,-2.7086,-2.2488,-2.326,-2.8182,-2.6427,-2.6624,-2.832,-2.8691,-2.8462,-2.7343,-2.1591,-1.9429,-1.943,-2.0145,-2.0012,-1.8533,0.0,0.0,0.0,0.0,0.0,0.0,-2.5505,-2.5507,-2.7639,-3.3529,-3.5094,-3.7474,-4.2106,-4.3166,-4.2878,-4.1212,-3.7511,-3.3986,-3.1026,-3.3,-3.4743,-3.576,-3.6396,-3.4485,-2.9766,-2.3286,-1.591,-0.7695,-0.1932,0.3864,0.9527,1.0934,1.2804,1.4835,1.4624,1.4106,1.3153,1.0286,0.8465,0.7582,0.9323,1.0445,1.1702,1.7711,2.0337,2.0298,1.4983,0.943,0.3802,-0.0996,-0.3856,-0.4714,-0.0857,0.1106,0.0,0.0,0.0,0.0,0.0,0.0,0.0,0.0,0.0,0.0,0.0,0.0,0.0,0.0,0.0,0.0,0.0,0.0,0.0,1.976,2.1136,2.2017,2.2365,2.2378,2.2352,2.2405,2.2686,2.1459,1.7529,1.7248,1.4973,0.9712,1.0743,1.1345,1.0806,1.0674,0.7278,0.0285,0.0,-0.3414,-1.0631,-1.6254,-1.936,-1.9781,-1.9733,0.0,-2.1276,-2.4889,-2.7157,-2.8263,-2.786,-2.7941,-2.8301,-2.8379,-2.7375,-2.543,-2.1126,-1.9354,-1.9973,-2.4796,-2.3557,-1.9194,0.0,0.0,0.0,0.0,0.0,0.0,-2.5556,-2.5568,-2.7147,-3.1389,-3.2694,-3.4608,-3.8149,-3.8788,-3.8749,-3.8267,-3.6085,-3.428,-3.3125,-3.5829,-3.8465,-4.0615,-4.1129,-3.9228,-3.4768,-2.982,-2.3067,-1.4559,-0.736,0.0191,0.7952,1.2119,1.6025,1.9574,1.9638,1.931,1.8637,1.3766,1.2142,1.2698,1.204,1.3755,1.7189,2.1031,2.2751,2.2613,1.7964,1.2686,0.7084,0.119,-0.1158,-0.1358,-0.0117,0.1879,0.3711,0.0,0.0,0.0,0.0,0.0,0.0,0.0,0.0,0.0,0.0,0.0,0.0,0.0,0.0,1.4072,1.7069,0.0,2.1831,2.2509,2.3219,2.3116,2.1505,2.2089,2.2579,2.2432,2.2686,2.1459,1.7529,1.7248,1.5265,1.0443,0.9856,1.0281,1.1592,1.1558,0.9723,0.5474,0.194,-0.1773,-0.5359,-1.5782,-2.0499,-1.9485,-2.2387,-2.3893,-2.3966,-2.6992,-2.83,-2.828,-2.8252,-2.8301,-2.8301,-2.8301,-2.7663,-2.6462,-2.2942,-2.0754,-1.9786,-2.2726,-2.182,-1.8889,0.0,0.0,0.0,0.0,0.0,0.0,0.0,-2.5664,-2.6633,-2.9274,-3.0319,-3.1746,-3.4219,-3.4207,-3.3969,-3.3826,-3.4377,-3.473,-3.4832,-3.7851,-4.1195,-4.4696,-4.4436,-4.2473,-3.8775,-3.5784,-3.0163,-2.1723,-1.3891,-0.5013,0.497,1.151,1.7581,2.3094,2.3505,2.3692,2.322,1.6495,1.5462,1.8079,1.549,1.8257,2.3932,2.5332,2.5463,2.4252,1.9658,1.5245,1.0558,0.3523,0.2261,0.3353,0.1766,0.3353,0.5686,0.5035,0.4966,0.0,0.0,0.0,0.0,0.0,0.0,0.0,0.0,0.7441,0.8211,1.1012,1.398,1.718,2.0458,2.3785,2.5813,2.5282,2.5338,2.4288,2.0605,2.1459,2.1919,2.0971,2.1718,2.117,1.8089,1.7388,1.5839,1.2452,1.0245,0.9632,1.0445,1.2543,1.2864,1.0973,0.3856,-0.068,-0.2117,-1.3352,-1.9186,-1.9468,-2.5459,-2.8295,-2.8327,-2.8327,-2.83,-2.8301,-2.8301,-2.8301,-2.8301,-2.8301,-2.8242,-2.8,-2.4292,-2.1754,-2.0231,-1.958,-1.8638,-1.7215,0.0,0.0,0.0,0.0,0.0,0.0,0.0,0.0,-2.6895,-3.0264,-3.0782,-3.201,-3.518,-3.4839,-3.3075,-2.9868,-3.5139,-3.7694,-3.547,-4.0347,-4.4025,-4.5684,-4.5423,-4.5071,-4.4727,-4.1684,-3.7176,-3.1159,-2.399,-1.3149,0.0964,0.6276,1.4456,2.473,2.6411,2.7108,2.6635,2.0023,1.9638,2.3198,2.1609,2.4661,3.0433,3.3362,3.0929,2.529,2.0606,1.719,1.3882,0.708,0.6679,0.862,0.7041,0.776,0.9175,0.8664,0.7419,0.6031,0.5475,0.5205,0.5426,0.7217,0.7645,0.8106,0.0,0.9673,1.0405,1.4137,1.6849,1.96,2.3149,2.5786,2.6971,2.565,2.5487,2.4288,2.0605,2.034,1.9172,1.556,1.8304,2.0201,1.9773,1.8229,1.6375,1.4198,1.4331,1.2122,0.6794,1.6154,1.8512,1.1674,0.4057,-0.3066,-0.9462,-1.1077,-1.4452,-1.9496,-2.5408,-2.835,-2.834,-2.834,-2.832,-2.8301,-2.8301,-2.8301,-2.8301,-2.8301,-2.8242,-2.7725,-2.1931,-2.1182,-2.2972,-2.0146,-1.6798,-1.3441,0.0,0.0,0.0,0.0,0.0,0.0,0.0,0.0,0.0,-2.7566,-2.776,-2.828,-2.9545,-2.9396,-2.8534,-2.7008,-3.3175,-3.6597,-3.524,-4.1072,-4.4851,-4.5394,-4.5362,-4.5696,-4.6452,-4.4687,-4.2041,-3.861,-3.0266,-1.964,-0.6714,0.255,1.2953,2.3937,2.7138,2.7607,2.5444,1.757,1.3303,1.1849,1.1868,1.4133,1.7655,1.9198,1.914,1.8374,1.9643,1.7032,0.0,0.8781,0.93,1.1173,1.0016,1.0348,1.0966,1.0323,0.941,0.8613,0.9042,0.8186,0.7819,1.0325,1.0536,1.0634,1.246,1.1963,1.2337,1.6637,1.9016,2.1874,2.6799,2.9277,3.0175,2.8635,2.6713,2.3337,1.7576,1.6747,1.5316,1.1477,1.3491,1.5079,1.5079,1.6385,1.6394,1.4531,1.5652,1.5017,1.1516,1.5868,1.5302,0.8158,0.2731,-0.3379,-1.0625,-1.4761,-1.7917,-2.0509,-2.5746,-2.8277,-2.825,-2.8334,-2.8288,-2.831,-2.8344,-2.8336,-2.8344,-2.8344,-2.834,-2.8083,-2.5423,-2.5302,-2.5639,-1.8968,-1.2983,-0.8274,0.0,0.0,0.0,0.0,0.0,0.0,0.0,0.0,0.0,0.0,-2.585,-2.553,-2.5438,-2.5428,-2.5428,-2.5428,-3.0814,-3.4399,-3.4793,-4.0449,-4.4134,-4.4905,-4.5398,-4.6247,-4.7369,-4.6784,-4.576,-4.434,-3.6268,-2.5116,-1.1122,0.0992,1.3531,2.6218,3.0365,2.8903,2.287,1.4341,0.6745,0.0476,-0.0505,0.1061,0.3978,0.4185,0.5963,0.8765,1.219,1.1202,0.8139,0.8072,1.0178,1.2735,1.13,1.139,1.1833,1.0818,1.0264,1.0105,1.0769,0.997,0.9596,1.2505,1.2659,1.256,1.4514,1.3655,1.3646,1.8033,2.0259,2.3019,2.8312,3.1215,3.2123,3.0188,2.731,2.2687,1.5289,1.3858,1.2158,0.8212,0.9495,1.0785,1.0681,1.4673,1.6826,1.5981,1.7669,1.8057,1.6448,1.5035,1.1615,0.5684,0.0965,-0.4919,-1.209,-1.7196,-2.0116,-2.1147,-2.6525,-2.8993,-2.8972,-2.9011,-2.8769,-2.8377,-2.9932,-2.8511,-2.5609,-2.9112,-2.9084,-2.6608,-2.4128,-2.5239,-2.7029,-1.6961,-0.9202,-0.3687,0.0,0.0,0.0,0.0,0.0,0.0,0.0,0.0,0.0,0.0,0.0,0.0,0.0,-2.5428,-2.5428,-2.5505,-2.8724,-3.1791,-3.418,-3.8213,-4.1716,-4.439,-4.5903,-4.7225,-4.841,-4.831,-4.8218,-4.8243,-4.2929,-2.9771,-0.9256,0.2335,1.7024,3.382,3.7893,3.232,1.9553,1.1508,0.2891,-0.5947,-1.2215,-1.0988,-0.5494,-0.5636,-0.4198,-0.2425,-0.469,-0.2649,0.1507,0.4314,0.9057,1.338,1.0716,1.084,1.1815,1.0372,0.9667,0.9321,0.9239,0.8972,0.9435,1.2383,1.2839,1.3093,1.5327,1.4568,1.4196,1.7731,1.9992,2.2624,2.6596,3.0336,3.1766,2.8753,2.6581,2.2687,1.5289,1.2795,1.01,0.6372,0.7603,0.8723,0.8837,1.3831,1.7949,1.9773,2.1734,2.1571,1.9138,1.4354,0.9793,0.5901,-0.1375,-0.8601,-1.5711,-1.5994,-1.7736,-2.1222,-2.7758,-3.082,-3.0853,-3.0797,-2.988,-2.8542,-3.3862,-2.9249,-1.8844,-3.1091,-3.1023,-2.226,-1.3655,-1.7648,-2.6781,-1.4538,-0.5818,-0.0475,0.0,0.0,0.0,0.0,0.0,0.0,0.0,0.0,0.0,0.0,0.0,0.0,0.0,0.0,0.0,0.0,-2.8456,-3.103,-3.2293,-3.7472,-4.1062,-4.2376,-4.5273,-4.7073,-4.7625,-4.8322,-4.9184,-5.0123,-4.5889,-3.7947,-2.6321,-0.749,1.3045,3.4279,3.7607,2.906,1.1709,0.4262,-1.0439,-2.9166,-3.4219,-3.5938,-3.5155,-3.2224,-2.7155,-2.1026,0.0,-0.738,0.2761,0.6303,0.9767,1.2397,1.2312,1.2152,1.1727,1.0399,1.0779,1.1761,1.2486,1.1918,1.2177,1.6198,1.5666,1.5064,1.8375,1.6848,1.5741,1.9509,1.9235,1.9754,2.4203,2.6768,2.7658,2.6185,2.3536,2.0,1.5017,1.1619,0.8647,0.6094,0.7517,0.8663,0.8698,1.2701,1.5557,1.6263,1.8089,1.7638,1.4206,1.2433,0.9106,0.3973,0.014,-0.526,-1.2315,-1.5585,-1.8547,-2.1216,-2.7812,-3.0876,-3.0873,-3.0853,-3.0936,-3.0864,-2.8349,-2.3947,-1.8603,-1.8225,-1.5299,-1.0258,-0.2896,-0.2609,-0.5475,0.0846,0.3635,0.3762,0.0,0.0,0.0,0.0,0.0,0.0,0.0,0.0,0.0,0.0,0.0,0.0,0.0,0.0,0.0,0.0,0.0,-2.9156,-3.0826,-3.4969,-3.806,-3.953,-4.251,-4.4158,-4.4193,-4.525,-4.6316,-4.7384,-4.6108,-3.9125,-2.6644,-1.2294,0.5847,2.6376,2.5924,1.7447,0.2947,-0.5158,-2.067,-4.0212,-4.4749,-4.6544,-4.6183,-4.3114,-3.6129,0.0,-2.0519,-0.9601,0.235,0.6234,0.8971,1.081,1.1857,1.1703,1.1062,1.0929,1.177,1.2923,1.3604,1.3147,1.3126,1.6294,1.5608,1.5024,1.8149,1.6664,1.56,1.9237,1.8114,1.7825,2.2129,2.3603,2.3771,2.2662,2.0093,1.7103,1.3317,1.0197,0.7831,0.6937,0.7944,0.895,0.9718,1.2015,1.3729,1.429,1.553,1.4497,1.063,0.9193,0.6147,0.0995,-0.2251,-0.6371,-1.1545,-1.5932,-1.9695,-2.298,-2.8373,-3.0915,-3.084,-2.8013,-2.575,-2.3877,-2.2033,-1.9,-1.4999,-0.9647,-0.6601,-0.4561,0.2367,0.5818,0.7069,0.9111,0.8506,0.6183,0.0,0.0,0.0,0.0,0.0,0.0,0.0,0.0,0.0,0.0,0.0,0.0,0.0,0.0,0.0,0.0,0.0,0.0,-2.9674,-3.1046,-3.3033,-3.6018,-3.7986,-3.8918,-3.8743,-3.9689,-4.0349,-4.0779,-4.3876,-3.4201,-1.2754,-1.2197,-0.3424,1.1551,0.5781,-0.0088,-0.6253,-1.5602,-2.7063,-3.9266,-4.3834,-4.3022,-3.8997,-3.8136,-3.1101,-2.1306,-1.7588,-0.9395,0.023,0.407,0.7043,0.9273,0.9913,1.0091,1.0383,1.2087,1.2692,1.289,1.273,1.2617,1.2521,1.2935,1.2747,1.3023,1.5082,1.415,1.3825,1.7066,1.6472,1.6454,1.9949,2.0786,2.0297,1.8323,1.6618,1.426,1.0868,0.8775,0.7867,0.876,0.8892,0.9587,1.1456,1.1619,1.2323,1.4006,1.3932,1.2158,0.8434,0.4575,0.0855,-0.2689,-0.809,-1.1675,-1.322,-1.6753,-2.1122,-2.6059,-2.8929,-3.0606,-3.0587,-2.2941,-1.5783,-0.9808,-1.5755,-1.4775,-0.8722,-0.5939,-0.5046,-0.4913,0.2472,0.7296,1.012,0.9968,0.8557,0.7017,0.0,0.0,0.0,0.0,0.0,0.0,0.0,0.0,0.0,0.0,0.0,0.0,0.0,0.0,0.0,0.0,0.0,0.0,-2.6798,-2.9142,-3.1219,-3.2881,-3.6085,-3.7863,-3.7911,-3.8969,-3.9762,-4.0213,-4.0992,-3.7114,-2.8631,-1.6412,-0.5074,0.525,0.9603,0.2917,-1.1882,-1.6156,-2.637,-3.9778,-4.0621,-3.8617,-3.4509,-2.9406,-2.3747,-1.7689,-1.1438,-0.5121,0.0965,0.4867,0.965,1.4226,1.565,1.5599,1.5121,1.5779,1.5147,1.4359,1.4545,1.3492,1.2738,1.3939,1.2496,1.151,1.4576,1.3039,1.1768,1.5197,1.3624,1.2169,1.3787,1.4967,1.5439,1.4376,1.4504,1.4327,1.3425,1.1767,1.0607,1.0855,1.0855,1.0992,1.1613,1.1619,1.1175,1.0281,0.8791,0.6327,0.2451,0.0,-0.2412,-0.4832,-0.8804,-1.1675,-1.322,-1.8035,-2.2256,-2.5934,-2.4358,-2.615,-3.068,-2.2719,-1.8468,-1.7102,-1.4869,-1.2927,-1.0802,-0.5196,-0.2351,-0.1096,0.3441,0.6469,0.8438,0.9677,0.9843,0.9444,0.0,0.0,0.0,0.0,0.0,0.0,0.0,0.0,0.0,0.0,0.0,0.0,0.0,0.0,0.0,0.0,0.0,0.0,0.0,-2.6896,-2.8301,-2.9083,-3.1411,-3.2581,-3.2234,-3.2835,-3.3127,-3.2999,-3.2636,-3.0512,-2.6633,-2.1274,-1.415,-0.5867,-0.5538,-1.0698,-1.9752,-2.03,-2.4151,0.0,0.0,-2.938,-2.5319,-2.1259,-1.7551,-1.3635,-0.7998,-0.1172,0.5745,1.0011,1.4539,1.8692,2.0123,1.9952,1.9196,1.8784,1.8024,1.7038,1.5693,1.448,1.326,1.2041,1.0287,0.922,1.0399,0.9456,0.9171,1.1754,1.0735,0.9699,1.0887,1.1672,1.1856,1.1123,1.1819,1.2546,1.2624,1.1697,1.1179,1.1572,1.1619,1.1619,1.1619,1.0887,0.9131,0.6365,0.5195,0.2885,-0.1012,-0.3852,-0.6081,-0.8038,-1.0613,-1.2954,-1.5077,-1.9075,-2.2053,-2.3768,-2.1954,-2.3022,-2.6423,-1.9986,-1.6533,-1.5391,-1.24,-1.0215,-0.8391,-0.3293,-0.0238,0.1476,0.4981,0.692,0.7875,0.9672,1.0371,1.0371,0.0,0.0,0.0,0.0,0.0,0.0,0.0,0.0,0.0,0.0,0.0,0.0,0.0,0.0,0.0,0.0,0.0,0.0,0.0,0.0,-2.5165,-2.5261,-2.5797,-2.5715,-2.4839,-2.4783,-2.4365,-2.3631,-2.2937,-2.0538,-1.663,-2.4385,-2.4073,-1.7211,-2.5506,-2.8056,-2.6083,-2.4559,-2.1052,-1.6838,-1.9878,-1.8727,-1.5073,0.0,-1.2421,-0.9606,-0.5491,0.2319,1.1594,1.6477,2.0184,2.2888,2.3953,2.3914,2.3209,2.1626,2.0787,1.979,1.6484,1.5182,1.3605,0.8957,0.7486,0.675,0.5214,0.5431,0.6396,0.8048,0.8037,0.8294,0.9747,0.9644,0.9237,0.8769,0.9404,1.0015,1.0025,1.0323,1.0611,1.109,1.1476,1.1476,1.1181,0.9718,0.6949,0.2888,0.2309,0.0432,-0.3455,-0.6985,-0.9713,-1.1488,-1.2805,-1.4871,-1.7804,-1.9985,-2.1039,-2.1109,-2.104,-2.0591,-1.9624,-1.5714,-1.2414,-0.9729,-0.9365,-0.7417,-0.4454,-0.12,0.1213,0.3094,0.6223,0.7709,0.8386,0.9967,1.0555,1.0555,0.0,0.0,0.0,0.0,0.0,0.0,0.0,0.0,0.0,0.0,-2.4468,-2.498,0.0,0.0,0.0,0.0,0.0,0.0,0.0,0.0,0.0,-2.3059,-2.301,-2.2638,-2.1858,-2.1842,-2.1541,-2.0934,-2.0785,-1.9362,-1.686,-1.904,-1.92,-1.7794,-1.9413,-2.0258,-2.0426,-2.0398,-1.818,-1.4809,-1.557,-1.4165,-1.1501,-1.0628,0.0,0.0,-0.0754,0.5162,1.1343,1.8256,2.3745,2.7746,2.8341,2.8799,2.8404,2.5422,2.2523,1.9589,1.6577,1.4515,1.2537,0.8765,0.6728,0.562,0.5119,0.4629,0.4786,0.6681,0.6976,0.7149,0.7719,0.7727,0.7841,0.873,0.9559,0.9838,0.9137,1.0383,1.087,0.9413,1.0599,1.1031,0.943,0.8848,0.6372,0.0868,-0.1011,-0.3592,-0.7269,-0.9579,-1.1689,-1.3639,-1.394,-1.5915,-1.9636,-2.0615,-2.1037,-2.1136,-2.1064,-1.8113,-1.2423,-1.1202,-1.0315,-0.9646,-0.7937,-0.6288,-0.4648,-0.1331,0.1834,0.4761,0.5485,0.7498,1.0091,1.0632,1.0867,1.0887,0.0,0.0,0.0,0.0,0.0,0.0,0.0,-2.5909,-2.4625,-2.3867,-2.3722,-2.3917,-2.4491,-2.4501,-2.4425,0.0,0.0,0.0,0.0,0.0,0.0,0.0,-2.123,-2.0663,-1.9208,-1.8998,-1.8382,-1.7214,0.0,-1.6311,-1.5351,-1.6074,-1.6201,-1.5939,-1.6441,-1.6344,-1.5737,-1.5009,-1.3514,-1.1543,-1.1175,-0.9966,-0.8316,0.0,0.0,0.0,0.0687,0.5223,1.0113,1.5251,2.1147,2.694,2.9843,3.0509,2.9507,2.5189,2.2871,2.0645,1.5798,1.4391,1.3148,0.7862,0.591,0.4734,0.2845,0.2804,0.3362,0.4392,0.5456,0.6228,0.6434,0.6957,0.757,0.8147,0.9327,1.0088,0.9624,1.0754,1.0887,0.8992,0.9574,0.9285,0.7399,0.6239,0.3622,-0.1156,-0.3305,-0.5574,-0.8389,-1.0191,-1.1418,-1.2185,-1.2171,-1.296,-1.4808,-1.6241,-1.6273,-1.5262,-1.538,-1.3596,-1.0232,-1.0066,-0.9901,-0.9767,-0.7021,-0.5559,-0.4719,-0.0494,0.2857,0.5161,0.6306,0.8247,1.0636,1.0867,1.1043,1.1192,0.0,0.0,0.0,0.0,0.0,0.0,0.0,-2.5295,-2.4325,-2.3849,-2.3374,-2.3151,-2.3479,-2.4104,-2.4531,0.0,0.0,0.0,0.0,0.0,0.0,0.0,0.0,0.0,-1.6752,0.0,0.0,-1.4184,-1.3846,0.0,0.0,0.0,0.0,0.0,-1.4909,-1.4177,-1.2572,-1.1063,-0.9712,0.0,0.0,-0.7194,-0.5829,0.0,0.0,0.0,0.0,0.4112,0.7934,1.104,1.6234,2.213,2.655,2.8623,2.8464,2.3419,2.2438,2.1512,1.5465,1.4586,1.3699,0.7071,0.5072,0.3861,0.0896,0.1401,0.2593,0.2913,0.4366,0.5574,0.5525,0.6267,0.684,0.6889,0.8317,0.931,0.9323,1.0065,1.0254,0.8832,0.8271,0.7544,0.5953,0.4059,0.1156,-0.3165,-0.5544,-0.7477,-0.8884,-1.021,-1.0765,-1.046,-1.0304,-1.0195,-1.0002,-1.1654,-1.1882,-1.0827,-1.1132,-1.0703,-0.9814,-0.9995,-1.0148,-0.9928,-0.6294,-0.492,-0.4668,0.0379,0.3546,0.5336,0.7149,0.9013,1.0785,1.0941,1.1185,1.1443,0.0,0.0,0.0,0.0,0.0,0.0,0.0,-2.5118,-2.3816,-2.264,-2.2971,-2.3179,-2.2819,-2.3599,-2.4233,0.0,0.0,0.0,0.0,0.0,0.0,0.0,0.0,0.0,0.0,0.0,0.0,-1.3484,-1.3769,0.0,0.0,0.0,0.0,0.0,0.0,-1.3219,-1.2277,-1.1352,0.0,0.0,0.0,0.0,0.0,0.0,0.0,0.0,0.0,0.2429,0.4121,0.775,1.0386,1.2437,1.4955,2.0802,2.5821,2.1246,2.0876,2.0971,1.6958,1.4833,1.2546,0.6982,0.4194,0.2564,0.1276,0.1849,0.295,0.3727,0.4827,0.539,0.4762,0.4561,0.4585,0.4723,0.5611,0.6185,0.6264,0.7107,0.8015,0.8632,0.711,0.5953,0.5808,0.4025,0.057,-0.4988,-0.8495,-1.0574,-1.0717,-1.0699,-1.074,-1.07,-1.067,-1.0593,-1.0578,-1.0552,-1.176,-1.421,-1.4156,-1.2636,-0.9814,-1.0095,-1.026,-0.9804,-0.5597,-0.4226,-0.474,0.0513,0.3749,0.549,0.7331,0.9197,1.0948,1.109,1.1335,1.1613,0.0,0.0,0.0,0.0,0.0,0.0,-2.5685,-2.497,-2.4544,-2.4507,-2.4225,-2.3896,-2.3733,-2.4142,-2.4426,-2.4529,0.0,0.0,0.0,0.0,0.0,0.0,0.0,0.0,0.0,0.0,-1.2866,-1.2225,-1.2304,0.0,0.0,0.0,0.0,0.0,0.0,-1.363,-1.2247,-1.1382,0.0,0.0,0.0,0.0,0.0,0.0,0.0,0.0,0.0,0.0,0.2429,0.3859,0.5676,0.7197,0.5996,0.9714,1.4558,1.5059,1.6216,1.6693,1.3805,1.2481,1.1016,0.666,0.4117,0.2341,0.0787,0.1613,0.2759,0.3152,0.4053,0.4658,0.439,0.3921,0.3755,0.4513,0.5445,0.6028,0.5971,0.687,0.6913,0.5444,0.4507,0.3592,0.2445,0.0572,-0.184,-0.5292,-0.7902,-0.9905,-1.0705,-1.0758,-1.0761,-1.0684,-1.0596,-1.0399,-1.0447,-1.0383,-1.1313,-1.3206,-1.326,-1.3119,-1.2926,-1.2069,-1.1823,-1.1695,-0.673,-0.4943,-0.4943,-0.0652,0.289,0.5583,0.6297,0.8476,1.1233,1.1382,1.1626,1.1904,0.0,0.0,0.0,0.0,0.0,-2.6601,-2.5601,-2.5279,-2.5261,-2.5496,-2.4871,-2.4348,-2.4184,-2.4579,-2.4805,-2.4574,-2.3855,0.0,0.0,0.0,0.0,0.0,0.0,0.0,0.0,0.0,-1.214,-1.1557,-1.1637,-1.2304,0.0,0.0,-1.5083,-1.6188,0.0,0.0,0.0,0.0,0.0,0.0,0.0,0.0,0.0,0.0,0.0,0.0,0.0,0.0,0.0,0.0,0.0,0.2282,-0.0074,0.1424,0.4997,0.9049,1.1847,1.3163,1.1404,1.0939,1.0091,0.6437,0.419,0.2275,0.0696,0.1589,0.2789,0.2982,0.3619,0.4032,0.3786,0.3132,0.2759,0.3231,0.4426,0.5363,0.5585,0.5927,0.5686,0.3894,0.2366,0.0816,-0.1103,-0.3072,-0.4321,-0.4635,-0.6449,-0.8476,-1.0717,-1.0724,-1.0656,-1.076,-1.0487,-1.029,-1.0283,-1.0777,-1.1627,-1.3018,-1.3517,-1.4163,-1.4842,-1.389,-1.296,-1.2075,-0.7355,-0.5416,-0.502,-0.0926,0.2667,0.5665,0.613,0.8495,1.147,1.1579,1.1837,1.2142,0.0,0.0,0.0,0.0,0.0,0.0,-2.6589,-2.618,-2.5598,-2.4552,-2.4389,-2.4184,-2.3696,-2.4807,-2.5301,-2.4566,-2.3407,0.0,0.0,0.0,0.0,0.0,0.0,0.0,0.0,0.0,-1.2699,-1.1864,-1.2158,-1.3288,-1.5155,-1.5155,-1.621,-1.7901,0.0,0.0,0.0,0.0,0.0,0.0,0.0,0.0,-0.3125,0.0,0.0,0.0,0.0,0.0,0.0,0.0,0.0,0.0,0.0,-0.2247,-0.0588,0.4014,0.8276,1.1449,1.097,1.094,1.0222,0.6574,0.419,0.2395,0.1312,0.1962,0.2879,0.3652,0.3871,0.3713,0.2847,0.1955,0.1067,0.015,0.1815,0.3447,0.4374,0.3771,0.377,0.5406,0.1277,-0.2402,-0.403,-0.6477,-0.6496,-0.2956,-0.4428,-0.708,-1.0995,-1.0829,-1.0677,-1.076,-1.0487,-1.029,-1.0283,-1.1901,-1.3412,-1.4791,-1.6386,-1.6264,-1.4619,-1.4809,-1.3269,-1.0169,-0.6885,-0.5362,-0.4958,0.0402,0.3785,0.574,0.7519,0.9672,1.1619,1.1619,1.1904,1.2264,0.0,0.0,0.0,0.0,0.0,0.0,0.0,-2.6219,-2.6245,-2.5561,-2.5559,-2.5434,-2.4879,-2.5248,-2.5229,-2.4483,-2.4107,0.0,0.0,0.0,0.0,0.0,0.0,0.0,0.0,-1.1803,-1.0852,-1.0085,-1.0896,-1.1883,-1.3172,-1.3867,-1.5226,-1.6973,-1.5599,-1.5087,0.0,0.0,0.0,0.0,0.0,-0.5422,-0.32,0.0,0.0,0.0,0.0,0.0,0.0,0.0,0.0,0.0,0.0,0.0,0.0,-0.1487,0.2104,0.5842,0.6945,0.6444,0.5182,0.4067,0.2249,0.0774,0.045,0.1593,0.2802,0.2994,0.3064,0.3055,0.2782,0.1436,0.0585,0.1,0.232,0.3342,0.3624,0.3421,0.3229,0.307,0.087,-0.1713,-0.4669,-0.3492,-0.3096,-0.4426,-0.4062,-0.3652,-0.3601,-0.5938,-0.844,-1.0649,-1.0582,-1.1411,-1.3163,-1.3126,-1.4223,-1.625,-1.7081,-1.7207,-1.6652,-1.5722,-1.4298,-1.2133,-0.7407,-0.6118,-0.6935,-0.1375,0.1946,0.3923,0.5958,0.8806,1.1789,1.1999,1.2169,1.2284,0.0,0.0,0.0,0.0,0.0,0.0,0.0,-2.6387,-2.6454,-2.5815,-2.576,-2.5629,-2.5142,-2.5384,-2.5474,-2.5205,-2.5458,0.0,0.0,0.0,0.0,0.0,0.0,0.0,-1.219,-1.1112,-1.0159,-0.9336,-1.0013,-1.0761,-1.1702,-1.2769,-1.403,-1.5441,-1.4977,-1.4825,0.0,0.0,0.0,0.0,-0.7905,-0.5653,-0.3193,0.0,0.0,0.0,0.0,0.0,0.0,0.0,0.0,0.0,0.0,0.0,0.0,0.0,-0.1738,0.1218,0.2959,0.3213,0.263,0.1976,0.1146,0.0347,-0.0338,0.1127,0.2732,0.2683,0.295,0.3109,0.2739,0.1481,0.0575,0.0908,0.1904,0.2907,0.3521,0.3671,0.3077,0.1578,-0.1612,-0.3811,-0.4081,-0.3457,-0.308,-0.3354,-0.2437,-0.1218,0.0,-0.228,-0.4502,-0.6637,-0.905,-1.1089,-1.2738,-1.3843,-1.5186,-1.6713,-1.7913,-1.7718,-1.6497,-1.5825,-1.4254,-1.2065,-0.8127,-0.6702,0.0,-0.2782,0.0424,0.3149,0.5207,0.792,1.0897,1.1894,1.225,1.2203,0.0,0.0,0.0,0.0,0.0,0.0,0.0,-2.6657,-2.6315,-2.5335,-2.5278,-2.5161,-2.4717,-2.5269,-2.5874,-2.6462,0.0,0.0,0.0,0.0,0.0,0.0,0.0,0.0,-1.1784,-1.1083,-1.0307,-0.938,-0.938,-0.9829,-1.0727,-1.1802,-1.2689,-1.3561,-1.4554,-1.4942,-1.4712,0.0,0.0,0.0,-0.7096,-0.5002,0.0,0.0,0.0,0.0,0.0,0.0,0.0,0.0,0.0,0.0,0.0,0.0,0.0,0.0,0.0,0.0,0.0,0.0895,0.1949,0.0195,0.045,0.0577,-0.0912,0.0746,0.0,0.2676,0.3351,0.3689,0.282,0.1882,0.0959,0.0145,0.0874,0.224,0.398,0.4084,0.3221,0.0998,-0.5307,-0.7469,-0.2574,-0.5529,-0.5716,-0.0938,-0.0268,-0.0133,0.0,0.0,0.0,0.0,-0.5859,-0.9329,-0.9738,-1.4237,-1.6589,-1.6766,-1.8822,-1.8141,-1.4973,-1.5408,-1.3704,-1.039,-0.8929,-0.726,-0.5488,-0.3625,-0.0711,0.2907,0.509,0.7227,0.9195,1.1454,1.2182,1.206,0.0,0.0,0.0,0.0,0.0,0.0,0.0,0.0,0.0,0.0,-2.5737,-2.5931,-2.5392,-2.5903,-2.6335,0.0,0.0,0.0,0.0,0.0,0.0,0.0,0.0,0.0,-1.1655,-1.0347,-0.9249,-0.8357,-0.8357,-0.8436,-0.8732,-1.0529,-1.1765,-1.2503,-1.2851,-1.2558,-1.1736,-1.0248,0.0,0.0,-0.6795,-0.5002,0.0,0.0,0.0,0.0,-0.3047,-0.3515,0.0,0.0,0.0,0.0,0.0,0.0,0.0,0.0,-0.55,-0.5505,-0.4405,0.0,-0.1533,-0.1995,-0.1947,-0.1677,0.0,0.0209,0.1801,0.2542,0.2859,0.2971,0.2764,0.1385,0.0212,0.0,0.0884,0.2255,0.4147,0.3199,0.1513,-0.0709,-0.4111,-0.6055,-0.5598,-0.5628,-0.5698,-0.5835,-0.3375,-0.1298,-0.0129,0.0,0.0,0.0,-0.151,-0.4729,-0.9768,-1.654,-2.0493,-2.154,-2.0846,-1.9296,-1.71,-1.6201,-1.39,-1.0551,-0.8922,-0.8055,-0.7377,-0.4137,-0.1444,0.1016,0.4546,0.724,0.9224,1.1301,1.2094,1.2047,0.0,0.0,0.0,0.0,0.0,0.0,0.0,0.0,0.0,0.0,0.0,-2.5949,-2.5986,-2.6597,0.0,0.0,0.0,0.0,0.0,0.0,0.0,0.0,0.0,-1.366,-1.1075,-0.9903,-0.8394,-0.661,-0.661,-0.661,-0.661,-0.8181,-0.9617,-1.0908,-1.1378,-1.1243,-1.0545,-0.9175,-0.8313,-0.7702,-0.6718,0.0,0.0,0.0,0.0,0.0,-0.2035,-0.2735,0.0,-0.4453,-0.5035,-0.5354,0.0,0.0,0.0,0.0,-0.6135,-0.6056,-0.6005,-0.5312,-0.4378,-0.3487,-0.307,-0.2513,-0.1537,0.0409,0.1936,0.2075,0.271,0.3014,0.2191,0.1227,0.0601,0.0744,0.1531,0.2756,0.4634,0.3796,0.1622,-0.1666,-0.4523,-0.669,-0.8105,-0.8284,-0.8039,-0.7546,-0.4989,-0.2556,-0.0127,0.0,0.0,0.0,-0.1492,-0.4697,-0.9714,-1.6793,-2.099,-2.2289,-2.2141,-2.0165,-1.6637,-1.6136,-1.3917,-1.0636,-1.0846,-0.989,-0.8248,-0.7304,-0.4649,-0.0878,0.309,0.576,0.7851,1.0953,1.1932,1.1762,0.0,0.0,0.0,0.0,0.0,0.0,0.0,0.0,0.0,0.0,0.0,0.0,0.0,0.0,0.0,0.0,0.0,0.0,0.0,0.0,0.0,0.0,-1.5896,-1.312,-1.0407,-0.9394,-0.7614,-0.5095,-0.4773,-0.4698,-0.4698,-0.5885,-0.7462,-0.9377,-1.0335,-1.0518,-0.9896,-0.8458,-0.7702,-0.748,-0.6641,0.0,0.0,0.0,0.0,0.0,0.0,0.0,0.0,-0.3203,-0.452,-0.5893,-0.5249,0.0,0.0,0.0,0.0,0.0,-0.6588,-0.6771,-0.6354,-0.4319,-0.3197,-0.2368,-0.1179,0.0952,0.2479,0.1684,0.2753,0.3305,0.1593,0.135,0.1412,0.1581,0.2336,0.3297,0.4404,0.3714,0.1454,-0.3045,-0.6359,-0.8891,-1.0447,-1.1853,-1.1472,-0.8226,-0.6328,-0.3912,-0.0878,-0.0251,0.0,0.0,-0.3689,-0.7173,-1.055,-1.6056,-2.004,-2.2661,-2.3152,-2.0848,-1.6127,-1.5752,-1.3752,-1.0678,-1.2689,-1.1523,-0.8387,-1.0007,-0.7566,-0.2512,0.1768,0.4422,0.6352,1.0429,1.1714,1.1423,0.0,0.0,0.0,0.0,0.0,0.0,0.0,0.0,0.0,0.0,0.0,0.0,0.0,0.0,0.0,0.0,0.0,0.0,0.0,0.0,0.0,-1.8088,-1.5306,-1.2783,-1.0787,-0.8098,-0.6514,-0.6198,-0.4442,-0.3561,-0.3641,-0.5559,-0.7462,-0.9377,-1.0335,-0.9863,-0.8192,-0.7923,-0.7326,-0.6486,-0.6338,0.0,0.0,0.0,0.0,0.0,0.0,0.0,0.0,-0.3826,-0.4619,-0.5086,-0.6775,0.0,0.0,0.0,0.0,0.0,-0.7157,-0.6787,-0.6192,-0.3552,-0.2183,-0.1104,0.0539,0.1803,0.2683,0.2482,0.272,0.2586,0.1512,0.1444,0.1564,0.1578,0.298,0.3242,0.1162,-0.062,-0.3269,-0.7635,-1.0371,-1.2251,-1.3121,-1.379,-1.3481,-1.155,-0.8587,-0.6141,-0.4192,-0.1484,0.0,0.0,-0.588,-1.0594,-1.3892,-1.5381,-2.0523,-2.9333,-2.4098,-2.1036,-1.9878,-1.6053,-1.2931,-1.0697,-1.1163,-1.0216,-0.8248,-0.7031,-0.5084,-0.2335,0.3239,0.5586,0.6253,1.0084,1.145,1.1657,0.0,0.0,0.0,0.0,0.0,0.0,0.0,0.0,0.0,0.0,0.0,0.0,0.0,0.0,0.0,0.0,0.0,0.0,0.0,0.0,-1.7503,-1.4898,-1.3028,-1.1598,-1.0748,-0.7795,-0.5699,-0.4589,-0.2534,-0.2141,-0.3335,-0.593,-0.7565,-0.8216,-0.8854,-0.8543,-0.7476,-0.7134,-0.6718,-0.6338,0.0,0.0,0.0,0.0,0.0,0.0,0.0,0.0,0.0,0.0,-0.4897,-0.5469,-0.6935,0.0,0.0,0.0,0.0,0.0,-0.7661,-0.6354,-0.4746,-0.2501,-0.098,0.0609,0.2815,0.4118,0.4531,0.3655,0.3866,0.3895,0.3031,0.2151,0.2022,0.3458,0.4432,0.4256,0.1771,-0.1301,-0.5152,-1.044,-1.2739,-1.475,-1.6834,-1.6309,-1.4816,-1.2286,-0.9125,-0.6228,-0.3689,-0.1356,-0.037,-0.1356,-0.5154,-0.9201,-1.3667,-1.5126,-1.895,-2.513,-2.2324,-2.0067,-1.8058,-1.5284,-1.2832,-1.0731,-1.2037,-1.1544,-0.9888,-0.9188,-0.7094,-0.3921,0.1879,0.4757,0.6166,0.9906,1.1321,1.1657,0.0,0.0,0.0,0.0,0.0,0.0,0.0,0.0,0.0,0.0,0.0,0.0,0.0,0.0,0.0,0.0,0.0,0.0,0.0,-1.7235,-1.4898,-1.2298,-1.0972,-1.0222,-1.0066,-0.6995,-0.4706,-0.3098,-0.1006,-0.1086,-0.32,-0.6066,-0.7315,-0.7119,-0.7567,-0.7391,-0.6663,-0.643,-0.6183,-0.5944,0.0,0.0,0.0,0.0,0.0,0.0,0.0,0.0,0.0,0.0,0.0,0.0,0.0,0.0,0.0,-0.9298,-0.903,-0.8093,-0.8042,-0.6028,-0.356,-0.1538,0.0267,0.2114,0.4587,0.5838,0.6177,0.5003,0.5245,0.538,0.4414,0.2978,0.2755,0.5126,0.484,0.3437,0.1196,-0.2629,-0.7365,-1.3098,-1.4869,-1.6672,-1.947,-1.8084,-1.5655,-1.2431,-0.9131,-0.5859,-0.2708,-0.0863,-0.074,-0.2462,-0.4419,-0.7818,-1.2636,-1.5534,-1.8033,-1.9987,-1.9063,-1.7211,-1.4613,-1.3744,-1.2367,-1.0785,-1.2573,-1.2681,-1.1308,-1.0544,-0.841,-0.5219,0.1,0.4829,0.7213,1.0083,1.124,1.1615,0.0,0.0,0.0,0.0,0.0,0.0,0.0,0.0,0.0,0.0,0.0,0.0,0.0,0.0,0.0,0.0,0.0,0.0,0.0,-1.5428,-1.4205,-1.2298,-1.0244,-0.8857,-0.7999,-0.4952,-0.3253,-0.3102,-0.0985,-0.1072,-0.3122,-0.5283,-0.6297,-0.6395,-0.7395,-0.6689,-0.4985,-0.586,-0.5712,-0.4924,-0.5867,0.0,0.0,0.0,0.0,0.0,0.0,0.0,0.0,0.0,0.0,0.0,0.0,0.0,-0.7555,-1.011,-0.9699,-0.8286,-0.8083,-0.6061,-0.3438,-0.0889,0.1144,0.3084,0.4997,0.6087,0.6692,0.6575,0.6531,0.6085,0.4474,0.3543,0.3555,0.5448,0.2308,-0.1281,-0.3865,-0.7296,-1.1387,-1.6309,-1.7016,-1.7756,-1.9668,-1.8084,-1.572,-1.2734,-0.931,-0.5859,-0.2708,-0.0863,-0.074,-0.2462,-0.5502,-0.8757,-1.2132,-1.6831,-1.9257,-1.942,-1.395,-1.1291,-1.1126,-1.096,-1.0928,-1.067,-1.1525,-1.1747,-1.1325,-0.7641,-0.6166,-0.5225,0.2461,0.7562,1.0895,1.1165,1.1172,1.1179,0.0,0.0,0.0,0.0,0.0,0.0,0.0,0.0,0.0,0.0,0.0,0.0,0.0,0.0,0.0,0.0,0.0,0.0,0.0,-1.304,-1.1771,-1.0473,-1.0098,-0.9218,-0.7676,-0.454,-0.3046,-0.3095,-0.1662,-0.1062,-0.1221,-0.3326,-0.4255,-0.4361,-0.4727,-0.4447,-0.3738,-0.4105,-0.4432,-0.4736,-0.5121,-0.5708,0.0,0.0,0.0,0.0,0.0,0.0,0.0,0.0,-0.5224,-0.5791,-0.7655,-0.7617,-0.7229,-0.9344,-0.8679,-0.7334,-0.7195,-0.5243,-0.2951,-0.1975,0.0477,0.3463,0.6246,0.7614,0.8153,0.7852,0.8107,0.7654,0.5521,0.5562,0.5454,0.3542,0.0467,-0.2829,-0.5918,-1.1068,-1.5502,-1.8257,-1.9575,-1.9992,-1.9452,-1.6997,-1.3746,-0.9674,-0.7104,-0.4416,-0.111,-0.037,-0.1233,-0.3935,-0.5151,-0.8297,-1.3608,-1.56,-1.6994,-1.7483,-1.2949,-1.0642,-1.0685,-1.0631,-1.0906,-1.1233,-1.1341,-1.0605,-0.928,-0.7819,-0.5915,-0.3441,0.3124,0.7879,1.1172,1.1267,1.1307,1.1321,0.0,0.0,0.0,0.0,0.0,0.0,0.0,0.0,0.0,0.0,0.0,0.0,0.0,0.0,0.0,0.0,0.0,0.0,-1.2037,-1.115,-1.037,-0.9713,-1.0058,-0.9741,-0.8436,-0.5325,-0.3438,-0.3022,-0.2065,-0.1257,-0.0521,-0.2289,-0.3064,-0.3095,-0.3071,-0.2958,-0.2648,-0.2972,-0.3519,-0.4218,-0.4592,-0.5354,0.0,0.0,0.0,0.0,0.0,0.0,0.0,0.0,-0.6045,-0.6465,-0.7967,-0.7827,-0.7372,-0.8882,-0.7883,-0.6226,-0.6226,-0.4269,-0.211,-0.1619,0.0752,0.3902,0.705,0.8699,0.9727,0.9846,0.9595,0.8869,0.7163,0.6345,0.4667,0.079,-0.2365,-0.5659,-0.9418,-1.4421,-1.8189,-1.9734,-2.1003,-2.1032,-1.8803,-1.6161,-1.28,-0.8581,-0.663,-0.4413,-0.1591,-0.1474,-0.2825,-0.549,-0.5636,-0.8557,-1.448,-1.4821,-1.535,-1.6055,-1.4075,-1.2298,-1.0677,-1.0906,-1.1199,-1.1543,-1.1355,-0.9821,-0.7238,-0.6909,-0.4269,0.0141,0.4053,0.797,1.1253,1.1409,1.1491,1.1538,0.0,0.0,0.0,0.0,0.0,0.0,0.0,0.0,0.0,0.0,0.0,0.0,0.0,0.0,0.0,0.0,0.0,0.0,-0.9632,-1.0195,-1.0563,-1.0407,-1.0231,-1.0219,-1.0395,-0.7052,-0.4529,-0.2861,-0.2025,-0.1557,-0.1601,-0.261,-0.3092,-0.3092,-0.3092,-0.249,-0.1657,-0.2642,-0.3095,-0.3167,-0.4218,-0.5348,-0.624,0.0,0.0,0.0,0.0,0.0,0.0,0.0,-0.7307,-0.8151,-0.9011,-0.8678,-0.8161,-0.9011,-0.7425,-0.5266,-0.5266,-0.3348,-0.0887,0.0716,0.2504,0.4502,0.7057,0.9175,1.0993,1.2623,1.0982,0.9476,0.9537,0.525,0.0756,-0.2363,-0.64,-1.0646,-1.5077,-1.7502,-1.936,-2.0759,-2.1264,-2.0543,-1.7673,-1.5677,-1.3343,-1.045,-0.8389,-0.6579,-0.4807,-0.4875,-0.5612,-0.7085,-0.7306,-0.9774,-1.4599,-1.4821,-1.5032,-1.5346,-1.7363,-1.5643,-1.0684,-1.126,-1.1537,-1.1557,-1.159,-0.94,-0.564,-0.4646,-0.0425,0.5485,0.5695,0.8159,1.1409,1.1565,1.1708,1.1809,0.0,0.0,0.0,0.0,0.0,0.0,0.0,0.0,0.0,0.0,0.0,0.0,0.0,0.0,0.0,0.0,0.0,0.0,-0.8638,-0.8981,-0.9433,-0.9985,-1.0691,-1.0761,-1.0207,-0.7181,-0.4365,-0.1763,-0.1522,-0.1053,-0.0498,-0.0815,-0.0891,-0.0934,-0.0894,-0.0735,-0.0489,-0.0776,-0.1352,-0.2077,-0.2405,-0.3099,-0.4087,0.0,0.0,0.0,0.0,0.0,0.0,0.0,0.0,0.0,-0.9011,-0.8678,-0.8032,-0.8291,-0.6894,-0.5023,-0.3934,-0.1759,0.0765,0.3027,0.4491,0.6315,0.9949,1.0809,1.1397,1.3695,1.1446,0.9078,0.9064,0.4494,-0.0559,-0.4083,-0.8886,-1.3414,-1.6931,-2.0662,-2.2856,-2.2606,-2.1662,-1.9921,-1.7165,-1.4366,-1.143,-0.8245,-0.7501,-0.6543,-0.4882,-0.4734,-0.5577,-0.7311,-0.7271,-0.9553,-1.4599,-1.3882,-1.3992,-1.5107,-1.3778,-1.1418,-0.8454,-1.0448,-1.1358,-1.1587,-1.1543,-0.7813,-0.1552,0.042,0.2491,0.4518,0.6869,0.9355,1.1423,1.1674,1.1735,1.1674,0.0,0.0,0.0,0.0,0.0,0.0,0.0,0.0,0.0,0.0,-2.0946,-2.073,0.0,0.0,0.0,-1.4136,-1.1286,0.0,0.0,-0.8996,-0.9343,-1.0129,-1.0847,-1.064,-0.9399,-0.766,-0.5222,-0.1908,-0.1507,-0.0831,0.0,0.0,0.0,0.0,0.0369,0.0506,0.0411,0.0482,-0.0138,-0.1169,-0.1487,-0.2231,-0.3125,0.0,0.0,0.0,0.0,0.0,0.0,0.0,0.0,0.0,-0.9652,-0.946,-0.8927,-0.8415,-0.6575,-0.4341,-0.264,-0.0083,0.2806,0.5796,0.7075,0.8807,1.3696,1.3558,1.306,1.5476,1.2858,0.9868,0.8693,0.399,-0.1696,-0.7563,-1.1693,-1.5693,-1.9758,-2.2921,-2.4193,-2.2225,-2.1338,-1.9375,-1.521,-1.2998,-1.1121,-0.9007,-0.894,-0.8604,-0.7504,-0.7525,-0.779,-0.8193,-0.817,-0.9884,-1.3646,-1.3128,-1.3189,-1.401,-1.2605,-1.006,-0.6673,-0.7722,-0.7788,-0.6987,-0.6957,-0.43,0.0139,0.1513,0.3021,0.4695,0.6803,0.9193,1.1442,1.1769,1.1775,1.1846,0.0,0.0,-2.4116,-2.4031,0.0,0.0,0.0,0.0,0.0,-1.949,-1.9436,-1.9057,0.0,0.0,0.0,-1.3457,-1.088,-0.9491,0.0,-0.9854,-1.0015,-1.0568,-1.0862,-1.0159,-0.8293,-0.8399,-0.6652,-0.2931,-0.1901,-0.0952,0.0,0.0,0.0,0.0,0.0806,0.1144,0.1115,0.1215,0.0732,-0.02,-0.0963,-0.1836,-0.2733,-0.2745,0.0,0.0,0.0,0.0,0.0,0.0,0.0,0.0,-1.0658,-1.0645,-1.0329,-0.8988,-0.6388,-0.3565,-0.147,0.1504,0.501,0.892,1.0208,1.2045,1.7229,1.6786,1.575,1.778,1.4911,1.1137,0.8361,0.3351,-0.3253,-1.1682,-1.4534,-1.7513,-2.295,-2.4434,-2.3721,-2.0572,-2.05,-1.844,-1.2597,-1.1744,-1.1527,-1.1511,-1.1786,-1.1851,-1.1526,-1.1816,-1.1245,-0.9634,-0.9641,-1.0487,-1.2449,-1.2273,-1.2316,-1.2607,-1.2606,-0.9993,-0.5125,-0.4504,-0.2635,0.0,0.0,0.0,0.0,0.0,0.2346,0.6027,0.6301,0.8444,1.1663,1.1816,1.1962,1.1949,0.0,0.0,-2.3488,-2.3484,0.0,0.0,0.0,0.0,-1.8845,-1.8098,-1.8195,-1.7832,-1.6558,-1.5142,0.0,-1.1776,-1.0174,-0.9372,-0.9452,-0.9756,-1.0155,-1.0555,-1.1062,-1.0528,-0.8959,-0.8775,-0.6773,-0.2931,-0.2578,-0.1548,0.0,0.0,0.0,0.0,0.0213,0.0558,0.1082,0.1155,0.1398,0.1884,0.1672,0.1085,0.0205,-0.1106,-0.2672,0.0,0.0,0.0,0.0,0.0,0.0,0.0,-1.1081,-1.0742,-1.0315,-0.8883,-0.6801,-0.4166,-0.0563,0.34,0.7346,1.1417,1.4833,1.687,1.5748,1.6762,1.8363,1.9808,1.481,0.9638,0.7517,0.0447,-0.6858,-1.2257,-1.6193,-1.9785,-2.3267,-2.3996,-2.3324,-2.0542,-1.8426,-1.5715,-1.217,-1.0539,-1.0213,-1.1206,-1.1352,-1.1968,-1.3163,-1.209,-1.1388,-1.1294,-1.0054,-1.0957,-1.4004,-1.0544,-1.0005,-1.2356,-0.7375,-0.4403,-0.3417,-0.5738,-0.4311,0.0,0.0,0.0,0.0,0.0,0.4021,1.0266,1.0278,1.0805,1.1667,1.1963,1.1963,1.166,0.0,0.0,0.0,0.0,0.0,0.0,0.0,0.0,-1.8247,-1.6918,-1.6733,-1.6396,-1.5488,-1.3831,0.0,0.0,-1.0376,-0.978,-1.0053,-1.0573,-1.0972,-1.1156,-1.0771,-0.9971,-0.8714,-0.8245,-0.6318,-0.2931,-0.2785,-0.1756,0.0,-0.05,-0.0506,0.0,0.0281,0.0888,0.164,0.2131,0.2335,0.2345,0.1975,0.1354,0.0517,-0.0719,-0.2608,-0.4913,-0.7688,0.0,0.0,0.0,0.0,0.0,0.0,0.0,-1.0405,-0.9377,-0.7007,-0.3907,-0.05,0.4014,0.9127,1.468,1.8223,1.9929,1.8262,1.8326,1.8744,1.8617,1.4267,0.9412,0.555,-0.0881,-0.7895,-1.4954,-1.8067,-2.0578,-2.3515,-2.4032,-2.2736,-1.8755,-1.6919,-1.4521,-1.097,-0.9631,-0.9958,-1.2256,-1.2015,-1.2646,-1.4322,-1.4681,-1.2936,-0.9144,-0.8301,-0.861,-0.9995,-0.7531,-0.7187,-0.8757,-0.4533,-0.219,-0.1448,-0.3191,-0.2545,0.0,0.0,0.0,0.0,0.0,0.4563,1.165,1.1594,1.1423,1.1168,1.1688,1.1708,1.1619,0.0,0.0,0.0,0.0,0.0,0.0,0.0,0.0,0.0,-1.5704,-1.5172,-1.4734,-1.4336,-1.248,-1.1401,0.0,0.0,0.0,-1.0725,-1.1255,-1.167,-1.1854,-1.064,-0.9399,-0.8283,-0.7641,-0.5899,-0.2931,-0.2785,-0.1769,0.0,-0.0935,-0.0873,0.0,0.0705,0.1486,0.2372,0.3219,0.3182,0.2408,0.1751,0.0919,-0.0062,-0.0922,-0.3018,-0.5801,-0.7882,-1.0027,-1.195,-1.2208,0.0,0.0,0.0,0.0,-1.0635,-1.0206,-0.7596,-0.4182,-0.1411,0.4145,1.0797,1.7477,2.0373,2.1442,2.0771,1.9666,1.8155,1.5893,1.2952,0.894,0.3174,-0.2294,-0.8925,-1.8039,-1.9933,-2.113,-2.3356,-2.3425,-2.1301,-1.6023,-1.4755,-1.2923,-0.9347,-0.8646,-0.9831,-1.3177,-1.2927,-1.3558,-1.5712,-1.7229,-1.4802,-0.7931,-0.6802,-0.5798,-0.4658,-0.4545,-0.4674,-0.4807,-0.2639,-0.1029,0.0,0.0267,0.0269,0.0,0.0,0.0,0.0,0.068,0.5096,1.1386,1.1441,1.1154,1.0792,1.1396,1.1598,1.1586,0.0,0.0,0.0,0.0,0.0,0.0,0.0,0.0,0.0,0.0,-1.3549,-1.3036,-1.2257,-1.1676,-1.1019,-1.0407,-0.9978,-0.9892,-1.0214,0.0,0.0,-1.2104,-1.1283,-1.0086,-0.8573,-0.8323,-0.6499,-0.2931,-0.2785,-0.1769,0.0,-0.0144,-0.0146,0.0073,0.0849,0.1831,0.2951,0.3389,0.3528,0.3401,0.3299,0.2035,0.0,-0.146,-0.3985,-0.7141,-0.9854,-1.1673,-1.2772,-1.2844,-1.2435,0.0,0.0,0.0,-1.1177,-1.0862,-0.9661,-0.7525,-0.3501,0.4518,1.2805,1.7677,2.026,2.0887,1.8222,1.8146,1.7376,1.3163,0.9763,0.6107,0.1194,-0.6378,-1.3583,-1.8714,-2.1824,-2.3321,-2.2125,-2.0377,-1.7367,-1.2524,-0.9766,-0.7992,-0.7248,-0.6674,-0.7944,-1.1819,-1.3136,-1.5002,-1.7642,-1.6686,-1.5468,-1.4336,-0.9571,-0.5902,-0.3522,-0.3064,-0.3458,-0.4729,-0.0129,0.1311,0.0,0.1602,0.1478,0.0,0.0,0.0,0.0274,0.3418,0.7039,1.0803,1.077,1.0796,1.079,1.1344,1.158,1.1585,0.0,0.0,0.0,0.0,0.0,0.0,0.0,0.0,0.0,0.0,0.0,-1.2019,-1.1873,-1.0975,-1.0307,-0.9953,-0.9631,-0.9552,-0.9924,-1.0322,-1.0739,-1.1133,-0.997,-0.9019,-0.825,-0.775,-0.6163,-0.3546,-0.2961,-0.2039,-0.07,0.036,0.0582,0.0,0.0141,0.1349,0.3194,0.3849,0.3593,0.2792,0.2792,0.1211,-0.1243,-0.239,-0.5111,-0.8482,-0.9927,-1.1551,-1.2893,-1.2279,-1.1985,-1.1744,-1.1063,0.0,0.0,0.0,-1.011,-0.7327,-0.2508,0.5213,1.2915,1.6796,1.8978,1.9594,1.7438,1.5691,1.306,0.7552,0.2381,-0.1541,-0.3321,-1.0023,-1.6782,-2.1123,-2.2248,-2.1928,-1.9777,-1.708,-1.3764,-0.9523,-0.7748,-0.6888,-0.6919,-0.806,-1.0264,-1.4056,-1.5636,-1.7124,-1.8664,-1.4671,-1.1429,-0.9618,-0.5445,-0.2569,-0.1489,-0.1246,-0.0882,-0.0513,0.1695,0.2245,0.1598,0.2277,0.1747,0.0,0.0,0.0,0.0269,0.3236,0.5676,0.7978,0.9868,1.0684,1.0737,1.102,1.1314,1.1531,0.0,0.0,0.0,0.0,0.0,0.0,0.0,0.0,0.0,0.0,0.0,-1.1152,-1.1511,0.0,0.0,0.0,-0.9425,-0.9296,-0.9477,-0.9659,-0.9839,-0.9939,-0.8845,-0.8292,-0.8355,-0.7502,-0.6121,-0.4345,-0.348,-0.2446,-0.1258,0.0354,0.1076,0.1015,0.0708,0.1747,0.3742,0.4153,0.3477,0.2237,0.2373,0.0502,-0.2467,-0.2519,-0.541,-0.9524,-0.9407,-1.0799,-1.2524,-1.1546,-1.1282,-1.1256,-1.0718,-1.1168,0.0,0.0,0.0,-0.8628,-0.3454,0.3301,0.9757,1.3805,1.5661,1.6128,1.4225,1.1057,0.6965,0.1167,-0.5426,-1.0278,-1.0811,-1.5282,-1.9953,-2.332,-2.2447,-2.0335,-1.7054,-1.3719,-1.021,-0.6484,-0.5773,-0.5815,-0.6724,-0.9581,-1.298,-1.7224,-1.8912,-1.9571,-1.9193,-1.3193,-0.8329,-0.546,-0.2316,-0.0371,0.0,0.0,0.0645,0.1972,0.2507,0.2525,0.2016,0.2685,0.1881,0.0,0.0,0.0,0.0133,0.2658,0.4121,0.5308,0.9215,1.0759,1.0737,1.0875,1.1188,1.1565,0.0,0.0,0.0,0.0,0.0,0.0,0.0,0.0,0.0,0.0,0.0,-1.0282,-1.06,-1.008,-0.9731,-0.9704,-0.9392,-0.9015,-0.8703,-0.8032,-0.8083,-0.904,-0.9003,0.0,-0.9204,-0.8355,-0.7037,-0.5259,-0.4339,-0.3055,-0.1256,-0.0477,0.1245,0.3708,0.3844,0.43,0.4752,0.4117,0.3196,0.2254,0.2797,0.0598,-0.2845,-0.1033,-0.4468,-1.007,-0.8675,-0.9624,-1.1509,-1.115,-1.0474,-0.9844,-1.0009,-1.113,-1.2378,0.0,0.0,0.0,-0.8929,-0.3538,0.1989,0.7744,0.9602,0.9248,0.6165,0.2807,-0.0928,-0.5693,-1.2346,-1.8482,-2.2646,-2.3538,-2.3799,-2.4226,-2.2854,-1.9831,-1.4321,-1.0014,-0.6205,-0.3155,-0.2508,-0.3477,-0.6355,-1.0075,-1.4711,-2.039,-2.2457,-2.2277,-1.9302,-1.3107,-0.8678,-0.644,-0.3743,-0.159,0.0,0.0,0.0,0.0132,0.1867,0.1746,0.0269,0.2553,0.2284,0.0,0.0,0.0,0.0134,0.2641,0.3597,0.4218,0.8873,1.0759,1.0737,1.1303,1.1552,1.1571,0.0,0.0,0.0,0.0,0.0,0.0,0.0,0.0,0.0,0.0,0.0,0.0,0.0,-0.9526,-0.9325,-0.9138,-0.8805,-0.8014,-0.6697,-0.6735,-0.7176,-0.8023,-0.8256,-0.8654,-0.9268,-0.842,-0.7437,-0.6187,-0.4652,-0.3535,-0.2843,-0.0783,0.1286,0.3353,0.4683,0.5152,0.4822,0.4386,0.3122,0.1408,0.0716,-0.1072,-0.3253,-0.3507,-0.5668,-0.8446,-0.8088,-0.9042,-1.0301,-0.9117,-0.892,-0.9287,-1.0241,-1.1541,-1.2688,-1.251,-1.3867,-1.4574,-1.0709,-0.6634,-0.2942,-0.0811,0.0679,0.1328,0.0426,-0.2996,-0.7539,-1.3292,-1.9492,-2.4827,-2.7478,-2.7909,-2.7228,-2.5625,-2.0767,-1.527,-0.9685,-0.5186,-0.2125,-0.1021,-0.2602,-0.5085,-0.8057,-1.3157,-1.7888,-2.2108,-2.2831,-2.1945,-1.8915,-1.2803,-0.7205,-0.244,-0.1354,-0.0625,0.0,0.0,0.0,0.0,0.0658,0.1856,0.345,0.2005,0.0805,0.0,0.0,0.0,0.0133,0.0937,0.1344,0.1882,0.8188,1.0705,1.0735,1.1307,1.155,1.1545,0.0,0.0,0.0,0.0,0.0,-1.1271,-1.0726,-1.0123,-0.9603,-0.9392,0.0,0.0,0.0,0.0,-0.9306,-0.8728,-0.7903,-0.6835,-0.5337,-0.5659,-0.6265,-0.7099,-0.7621,-0.8462,-0.9716,-0.8613,-0.7697,-0.7111,-0.5189,-0.4099,-0.3776,-0.1565,0.0243,0.1768,0.38,0.4515,0.4206,0.3881,0.2735,0.1037,0.0278,-0.1213,-0.2891,-0.296,-0.4676,-0.688,-0.6379,-0.7325,-0.8584,-0.6966,-0.7697,-0.9282,-0.9953,-1.1991,-1.3924,-1.3151,-1.3022,-1.2804,-1.1049,-0.8904,-0.7016,-0.6545,-0.658,-0.6689,-0.6773,-1.0327,-1.5316,-2.1391,-2.6666,-3.0612,-3.2188,-3.083,-2.8338,-2.4726,-1.7622,-1.0759,-0.5741,-0.1654,0.0559,0.0,-0.3275,-0.7048,-1.0763,-1.5643,-1.9728,-2.2477,-2.1541,-1.9459,-1.6574,-1.0398,-0.4529,0.0973,0.1119,0.0758,0.0,0.0,0.0,0.0,0.0,0.1326,0.3444,0.1069,0.0,0.0134,0.2525,0.2254,0.0133,0.2564,0.2173,0.068,0.7888,1.0861,1.1025,1.1409,1.1633,1.1619,0.0,-1.4167,-1.317,-1.2011,-1.1764,-1.1414,-1.0275,-1.0448,-1.0465,-0.9802,0.0,0.0,0.0,0.0,0.0,-0.8434,-0.6883,-0.5623,-0.4763,-0.485,-0.5341,-0.6395,-0.724,-0.8612,-1.0555,-0.8871,-0.8021,-0.8021,-0.6029,-0.4677,-0.3834,-0.2943,-0.1953,-0.0851,0.119,0.2419,0.2874,0.2617,0.1929,0.1143,0.1694,0.0318,-0.1644,0.0896,-0.1352,-0.5604,-0.3455,-0.4439,-0.6558,-0.5168,-0.706,-0.9884,-0.9108,-1.2364,-1.5935,-1.3578,-1.0997,-0.9149,0.0,0.0,0.0,-0.9155,-1.1649,-1.4526,-1.5245,-1.9239,-2.4277,-2.9803,-3.3479,-3.5989,-3.6907,-3.2512,-2.6923,-2.1394,-1.3561,-0.6733,-0.2749,0.0334,0.1575,-0.0114,-0.4435,-0.927,-1.4127,-1.7353,-1.9808,-2.1406,-1.8493,-1.5287,-1.2034,-0.571,-0.0483,0.3242,0.347,0.2392,0.0,0.0,0.0,0.0,0.0,0.0,0.0,0.0268,0.0268,0.0669,0.7679,0.6639,0.0545,0.7733,0.6469,0.0706,0.7855,1.11,1.1599,1.1598,1.164,1.1619,-1.3699,-1.3121,-1.2552,-1.1887,-1.1344,-1.076,-1.0167,-1.0678,-1.077,0.0,0.0,0.0,-0.8891,-0.8244,-0.761,-0.6713,-0.6233,-0.5691,-0.4904,-0.4951,-0.57,-0.7293,-0.7711,-0.8728,-1.0555,-0.8871,-0.8021,-0.8021,-0.6029,-0.4948,-0.4596,-0.3698,-0.2781,-0.182,-0.0669,-0.011,0.0111,0.1637,0.1899,0.1138,-0.0385,-0.0826,-0.0491,-0.1485,-0.2453,-0.2976,-0.2095,-0.3742,-0.6826,-0.9858,-1.0132,-0.9492,-1.1241,-1.2749,-1.3744,-1.3111,-1.1574,-1.0693,-1.3367,0.0,0.0,0.0,0.0,0.0,-1.6566,-2.1304,-2.695,-3.1359,-3.492,-3.6753,-3.5244,-3.0829,-2.5349,-1.8768,-1.0745,-0.425,-0.1032,0.1036,0.1159,-0.1649,-0.8457,-1.3334,-1.4759,-1.8828,-2.09,-1.9959,-1.5764,-1.1823,-0.8301,0.0,0.4655,0.445,0.6768,0.5408,0.0,0.0,0.0,0.0,0.0,0.0,0.0132,0.5335,0.7774,0.7907,0.9819,0.6648,0.0553,0.8203,0.6856,0.0706,0.8439,1.1422,1.1613,1.1572,1.1586,1.1619,-1.2674,-1.207,-1.1574,-1.1324,-1.0919,-1.0501,-1.0327,-1.0834,-1.0856,0.0,0.0,0.0,-0.892,-0.7553,-0.6616,-0.6333,-0.5966,-0.5409,-0.4589,-0.4983,-0.586,-0.7166,-0.7747,-0.8807,-1.0555,-0.8871,-0.8021,-0.8021,-0.6029,-0.506,-0.4918,-0.4631,-0.4182,-0.3539,-0.3144,-0.292,-0.2811,-0.0881,0.0225,0.0659,-0.0701,-0.0915,-0.0489,-0.1602,-0.1983,-0.1985,-0.1189,-0.3133,-0.6485,-0.9061,-0.9443,-0.9308,-1.2074,-1.2905,-1.2688,-1.1506,-1.1869,-1.286,0.0,0.0,-1.2655,-1.2922,0.0,0.0,-1.8945,-2.3919,-2.9569,-3.4545,-3.7145,-3.7892,-3.5827,-3.119,-2.5507,-1.9192,-1.2037,-0.5656,-0.0817,0.07,0.0235,-0.2524,-0.8778,-1.3177,-1.4071,-1.6553,-1.7092,-1.4528,-1.0355,-0.5846,-0.098,0.4432,0.7316,0.6955,0.8747,0.6611,0.0124,0.0,0.0,0.0,0.0,0.1567,0.4631,0.8823,1.0751,1.0751,1.0638,0.8314,0.4594,0.6166,0.4095,0.0714,0.8544,1.166,1.1633,1.1619,1.1619,1.1619,0.0,-1.1108,-1.0618,-1.0618,-1.0618,-1.0618,-1.0618,-1.093,-1.0926,0.0,-1.0504,-1.0282,-0.9105,-0.7277,-0.6221,-0.6506,-0.5815,-0.5027,-0.4217,-0.4954,-0.5741,-0.6546,-0.7483,-0.8731,-1.0375,-0.886,-0.7947,-0.7926,-0.6141,-0.5178,-0.5032,-0.5627,-0.5836,-0.5756,-0.5729,-0.5712,-0.5658,-0.4136,-0.2327,-0.0426,-0.0078,-0.0245,-0.0624,0.0095,-0.0486,-0.1579,-0.0199,-0.232,-0.5717,-0.6147,-0.7634,-0.9644,-1.1763,-1.2469,-1.1938,-0.9491,-1.1974,0.0,0.0,0.0,0.0,-1.3657,-1.5587,0.0,-2.1347,-2.5896,-3.1227,-3.6949,-3.831,-3.8037,-3.6632,-3.1746,-2.6229,-2.0891,-1.5958,-0.9939,-0.211,-0.1289,-0.2012,-0.3302,-0.7818,-1.1271,-1.2194,-1.213,-1.0419,-0.6882,-0.322,0.142,0.7316,0.7718,0.8364,0.9734,0.9394,0.6289,0.0,0.0,0.0,0.0,0.0782,0.4493,1.0751,1.0751,1.0751,1.0625,0.9831,0.9579,0.8976,0.2661,0.0,0.0724,0.8594,1.1543,1.1653,1.1626,1.1619,1.1619,-1.0982,-1.0681,-1.0618,-1.0618,-1.0618,-1.0618,-1.0618,-1.1238,-1.1381,-1.0586,-0.9364,-0.8227,-0.7298,-0.6244,-0.5588,-0.5617,-0.5491,-0.5292,-0.516,-0.5292,-0.5815,-0.6645,-0.7502,-0.8388,-0.9124,-0.8377,-0.7876,-0.7631,-0.6517,-0.5918,-0.5812,-0.6374,-0.689,-0.718,-0.7169,-0.7169,-0.7116,-0.564,-0.4391,-0.3193,-0.0796,0.0788,0.1876,0.2603,0.2275,0.1399,0.1637,-0.0737,-0.4835,-1.0461,-1.2361,-1.2104,-1.0215,-0.963,-0.9493,-0.894,-1.2371,-1.6059,-1.5174,-1.5554,-1.6064,-1.5185,-1.7156,0.0,-2.0136,-2.3387,-2.6918,-2.9274,-3.0653,-3.113,-3.0206,-2.6971,-2.3407,-2.0006,-1.8455,-1.492,-0.7055,-0.8089,-0.8891,-0.7074,-1.2086,-1.4024,-0.9404,-0.8711,-0.6601,-0.1696,0.3132,0.6369,0.7576,0.8878,0.9634,0.9741,0.7276,0.3943,0.0,0.0,0.0,0.0129,0.5877,0.9294,1.0751,1.0738,1.0738,1.0345,0.4536,0.2036,0.1956,0.0559,0.0,0.0724,0.8594,1.1543,1.1653,1.1626,1.1619,1.1619,-1.0098,-1.0301,-1.0618,-1.0618,-1.0618,-1.0618,-1.0618,-1.0919,-1.1045,-1.0618,-0.8302,-0.6481,-0.6048,-0.4809,-0.4084,-0.4084,-0.4084,-0.4217,-0.4688,-0.4688,-0.5477,-0.7242,-0.7372,-0.7906,-0.9005,-0.796,-0.7261,-0.7095,-0.6638,-0.6312,-0.6053,-0.712,-0.827,-0.9438,-0.8572,-0.8446,-0.8743,-0.6819,-0.472,-0.2563,-0.1804,-0.1222,-0.0719,0.0101,0.0749,0.1104,0.1115,-0.0108,-0.3189,-1.266,-1.3704,-1.0804,-0.9346,-0.9249,-1.0184,-1.2511,-1.391,-1.4868,-1.5714,-1.5939,-1.6527,-1.8883,-2.1099,0.0,0.0,-2.4839,-2.6835,-2.8237,-2.9183,-2.9412,-2.8425,-2.636,-2.3941,-2.1392,-2.1726,-1.9974,-1.3355,-1.338,-1.3249,-1.0706,-1.2283,-1.1446,-0.5938,-0.4487,-0.1713,0.3708,0.7238,0.9157,0.8975,0.9755,0.9243,0.7356,0.5737,0.3353,0.0,0.0,0.0,0.0128,0.7322,1.0636,1.0738,1.0724,1.0731,1.0345,0.3068,0.0,0.0,0.0,0.0,0.0582,0.6402,0.9029,0.9752,1.1188,1.1619,1.1619,-0.946,-0.9983,-1.0618,-1.0618,-1.0428,-1.0364,-1.0364,-1.0301,-1.0314,-1.0555,-0.7785,-0.5379,-0.4147,-0.2792,-0.2062,-0.2204,-0.2275,-0.2678,-0.3668,-0.3939,-0.5018,-0.7274,-0.71,-0.754,-0.8821,-0.7746,-0.7093,-0.6863,-0.6948,-0.6849,-0.6578,-0.7918,-0.9558,-1.1211,-0.9967,-0.9499,-0.9582,-0.7698,-0.4535,-0.0834,-0.1927,-0.2401,-0.2559,-0.2494,-0.0943,0.0957,0.0219,0.0,-0.1605,-1.223,-1.2651,-0.9056,-0.9875,-1.02,-1.1614,-1.8533,-1.7578,-1.462,-1.659,-1.6357,-1.6898,-2.2249,-2.4582,-2.5741,0.0,0.0,0.0,-2.7934,-2.8172,-2.8039,-2.7138,-2.5874,-2.4415,-2.2549,-2.4058,-2.386,-1.9225,-1.8137,-1.6803,-1.363,-1.206,-0.904,-0.3523,-0.0524,0.3025,0.7587,0.9299,0.9877,0.9435,0.9227,0.7837,0.4943,0.4308,0.2646,0.0,0.0,0.0,0.0129,0.7215,1.0663,1.0724,1.0724,1.0731,1.0345,0.4548,0.1223,0.0,0.0,0.0,0.0436,0.4504,0.6684,0.7706,1.0606,1.1619,1.1619,-0.9332,-0.9983,-1.0618,-1.0618,-0.9983,-0.946,-0.946,-0.9163,-0.9356,-1.0465,-0.8876,-0.5613,-0.0148,0.065,0.0345,-0.0604,-0.0691,-0.1254,-0.2786,-0.3538,-0.4336,-0.5052,-0.6839,-0.7607,-0.7214,-0.8368,-0.8515,-0.7414,-0.7946,-0.8286,-0.8493,-0.8883,-0.9909,-1.1317,-1.1525,-1.0237,-0.7829,-0.8039,-0.4706,0.0661,0.0455,0.1565,0.3038,-0.0246,0.1262,0.4574,0.1249,0.0,-0.0948,-0.7045,-0.8965,-0.9527,-1.3422,-1.2094,-1.2039,-2.6947,-2.5426,-1.9008,-1.9243,-1.7909,-1.7548,-2.2403,-2.4594,-2.561,-2.5537,0.0,-2.2986,-2.2515,0.0,-2.197,-2.1848,0.0,0.0,-2.0414,-2.3005,-2.4459,-2.2274,-2.2756,-2.1031,-1.486,-1.5074,-1.2653,-0.4648,0.1338,0.5714,0.7852,0.8232,0.751,0.5785,0.5858,0.5598,0.4884,0.2059,0.0386,0.0,0.0,0.0,0.0131,0.7327,1.0638,1.0751,1.0731,1.0731,1.0618,0.9831,0.5829,0.0,0.0,0.0,0.0431,0.5502,0.6833,0.6536,1.0161,1.1619,1.1606,-0.8988,-0.9843,-1.0364,-0.9703,-0.8965,-0.8227,-0.7168,-0.6919,-0.6992,-0.751,-0.5086,-0.2755,-0.1262,0.1547,0.2807,0.1648,0.0981,-0.008,-0.1804,-0.2703,-0.3808,-0.4996,-0.6439,-0.7325,-0.7558,-0.8189,-0.8302,-0.7825,-0.855,-0.9088,-0.9503,-0.9877,-1.1282,-1.3485,-1.2445,-1.0238,-0.7131,-0.6102,-0.1911,0.4152,0.5217,0.6985,0.8195,0.1128,0.2038,0.6449,0.168,0.0,-0.0312,-0.2553,-0.3565,-0.4939,-1.1828,-1.3655,-1.6385,-3.2168,-2.8699,-1.9736,-1.9768,-2.0184,-2.093,-2.218,-2.4007,-2.5432,-2.5202,-2.4731,-2.3975,-2.2858,0.0,0.0,0.0,0.0,0.0,0.0,-2.2468,-2.3567,-2.0976,-2.2689,-2.2423,-1.7585,-1.5743,-1.1845,-0.4282,-0.073,0.2245,0.4891,0.5076,0.597,0.8215,0.5766,0.4589,0.5219,0.1828,0.0,0.0,0.0,0.0,0.0,0.3027,0.663,1.0761,1.0704,1.0738,1.0738,1.0765,0.7843,0.3143,0.2349,0.2948,0.443,0.5928,0.6246,0.6242,1.0161,1.1619,1.1626,-0.9244,-1.0021,-1.0225,-0.9116,-0.8441,-0.7307,-0.5199,-0.4611,-0.4273,-0.3991,-0.0743,0.0969,-0.0344,0.2782,0.4711,0.4206,0.2637,0.1018,-0.0837,-0.2021,-0.3179,-0.4347,-0.5863,-0.6798,-0.7093,-0.794,-0.8226,-0.8021,-0.9237,-1.0079,-1.0532,-1.1004,-1.248,-1.4623,-1.3108,-1.0539,-0.7141,-0.4657,0.0297,0.673,0.9008,1.1235,1.2166,0.2378,0.2611,0.7461,0.3549,0.1241,0.0,0.0,0.0,-0.1406,-0.9241,-1.4102,-1.8894,-2.9652,-2.8792,-2.3689,-2.0625,-2.1049,-2.2318,-2.2429,-2.3553,-2.4647,-2.4583,-2.4968,-2.5003,-2.3723,-2.3016,0.0,0.0,0.0,-2.1256,-2.0266,0.0,-2.2226,-1.9469,-2.1372,-2.1882,-1.8904,-1.5444,-1.095,-0.5236,-0.4347,-0.2654,0.0993,0.1368,0.3149,0.6886,0.5504,0.4344,0.395,0.1322,0.0,0.0,0.0,0.0,0.0,0.0523,0.3551,0.8733,0.9618,1.0199,1.0731,1.0744,0.8918,0.5869,0.498,0.5617,0.6847,0.6474,0.6365,0.6821,1.0305,1.1647,1.1543,-1.0364,-1.0555,-1.0301,-0.946,-0.8549,-0.7028,-0.4069,-0.2662,-0.1513,-0.0321,0.2956,0.5177,0.5121,0.5285,0.5773,0.6895,0.4464,0.2133,0.0098,-0.1747,-0.2511,-0.2104,-0.5047,-0.6093,-0.4811,-0.776,-0.8871,-0.8021,-1.0146,-1.139,-1.175,-1.2257,-1.2946,-1.3669,-1.3667,-1.1539,-0.7758,-0.4533,0.0706,0.7261,1.0539,1.3338,1.4567,0.3935,0.3316,0.8024,0.7806,0.441,0.0,0.0,0.0,-0.1047,-0.7066,-1.2909,-1.7417,-1.6405,-2.5507,-3.3542,-2.2739,-1.9434,-1.9894,-2.3468,-2.3581,-2.2964,-2.325,-2.4228,-2.4736,-2.3775,-2.4006,-2.4123,-2.3493,-2.3826,-2.3374,-2.0974,-2.0973,0.0,0.0,-1.9453,-1.9331,-1.7416,-1.4501,-1.1482,-0.8508,-0.9198,-0.7924,-0.3459,-0.2433,-0.2021,-0.2138,0.363,0.4876,0.0264,0.0,0.0,0.0,0.0,0.0,0.0,0.1841,0.3045,0.3892,0.6831,0.8984,1.0751,1.0751,0.9466,0.7374,0.7256,0.668,0.598,0.711,0.7594,0.7968,1.0593,1.1556,1.1663,-1.0555,-1.0715,-1.0523,-0.9496,-0.8549,-0.7242,-0.5093,-0.3409,-0.2656,-0.3454,0.166,0.5416,0.541,0.5437,0.6172,0.8137,0.5804,0.2946,0.0199,-0.1769,-0.2869,-0.3069,-0.6002,-0.7328,-0.6606,-0.8965,-0.9716,-0.8882,-1.0719,-1.1966,-1.2626,-1.3531,-1.4372,-1.5119,-1.551,-1.3372,-0.9071,-0.3761,0.1077,0.5604,1.0804,1.4056,1.5452,1.1847,1.1596,1.2233,0.52,0.3807,0.4718,0.1168,-0.2319,-0.7591,-2.0782,-2.153,-1.8786,-2.4966,-3.1378,-3.4939,-2.815,-2.3909,-2.1011,-1.9308,-2.257,-2.503,-2.0772,-2.1831,-2.3715,-2.3553,-2.2708,-2.2261,-2.3132,-2.2555,-2.1581,-2.0719,-2.0205,-1.9297,0.0,-1.6781,-1.6329,-1.6211,-1.5803,-1.4701,-1.2704,-1.2339,-1.0655,-0.6956,-0.4958,-0.306,-0.0762,0.129,0.2752,0.3604,0.1208,0.0,0.0,0.0,0.0,0.0,0.0656,0.1706,0.3004,0.3988,0.6164,0.8978,0.8978,0.918,0.9579,0.8428,0.8547,0.9258,0.8179,0.8806,1.0455,1.1279,1.1583,1.1694,-1.0645,-1.0717,-1.0483,-0.9303,-0.7603,-0.5902,-0.4212,-0.2131,-0.0826,-0.0755,0.3938,0.7111,0.6721,0.6647,0.7234,0.8748,0.7256,0.4493,0.0301,-0.1912,-0.3328,-0.386,-0.7412,-0.9115,-0.8504,-1.0225,-1.0754,-0.9888,-1.1736,-1.2915,-1.3442,-1.4697,-1.587,-1.6872,-1.6806,-1.5109,-1.1752,-0.3742,0.1268,0.4491,1.1486,1.4899,1.5542,1.2775,1.232,1.2141,0.5321,0.5088,0.6637,-0.2494,-1.0114,-1.7523,-2.7348,-2.7565,-2.5624,-3.2875,-3.5864,-3.5739,-3.0927,-2.7021,-2.3268,-1.921,-2.0918,-2.2877,-1.9959,-2.0779,-2.2261,-2.2514,-2.1354,-2.0595,-2.1456,-2.0707,-1.9704,-1.9043,-1.8566,-1.7813,0.0,-1.5642,-1.5373,-1.6009,-1.6345,-1.6049,-1.4694,-1.4243,-1.2723,-0.9644,-0.7513,-0.4868,-0.1775,0.0257,0.1954,0.3468,0.1878,0.0671,0.0,0.0,0.0,0.0,0.0,0.0654,0.1831,0.3062,0.4961,0.7098,0.8478,0.9789,1.09,0.9781,1.0199,1.1193,0.9684,1.0179,1.1556,1.1643,1.1544,1.1717,-1.0698,-1.0665,-1.0299,-0.9003,-0.5967,-0.3127,-0.1467,0.1001,0.3958,0.7559,0.9581,1.03,0.9043,0.887,0.8899,0.8892,0.8948,0.6403,0.0404,-0.2386,-0.4034,-0.4675,-0.9392,-1.142,-1.0472,-1.1846,-1.2138,-1.1093,-1.3284,-1.4278,-1.4164,-1.585,-1.7368,-1.8625,-1.7624,-1.6941,-1.5815,-0.4844,0.125,0.4361,1.2592,1.5913,1.4975,0.7842,0.6397,0.8345,0.8343,0.8041,0.5291,-0.992,-2.1519,-2.9189,-2.6752,-3.073,-3.6603,-3.8613,-3.8288,-3.6155,-3.1058,-2.8441,-2.6235,-2.2522,-1.8941,-1.709,-2.0452,-2.0823,-2.05,-2.0654,-2.0222,-1.9575,-1.8632,-1.8527,-1.7988,-1.6158,-1.6178,-1.6211,-1.5796,-1.5922,-1.619,-1.674,-1.6102,-1.5404,-1.4787,-1.493,-1.401,-1.1389,-0.9673,-0.7624,-0.5258,0.0254,0.2586,0.0527,0.1867,0.1735,0.0,0.0,0.0,0.0,0.0,0.0,0.0134,0.3622,0.5228,0.5637,0.9109,1.0893,1.1172,1.1328,1.1477,1.1619,1.1619,1.1563,1.169,1.1697,1.1735,1.1682,-1.0902,-1.1196,-1.0878,-0.9319,-0.6892,-0.4037,-0.0825,0.2278,0.6185,1.1732,1.254,1.1612,0.8907,0.8813,0.8955,0.8938,0.8883,0.6325,0.0426,-0.4598,-0.7837,-0.9205,-1.498,-1.7111,-1.4875,-1.7347,-1.6711,-1.2503,-1.5247,-1.5709,-1.4164,-1.7389,-1.9064,-1.9455,-1.9772,-2.0426,-2.0623,-1.0313,-0.0486,0.8764,1.514,1.6941,1.5567,1.3683,1.3271,1.3771,1.3838,0.878,0.1387,-0.2665,-1.4124,-2.7119,-2.9908,-3.3688,-3.6972,-3.6536,-3.5894,-3.474,-3.1574,-2.9175,-2.5836,-1.9083,-1.8582,-1.9281,-1.7148,-1.7662,-1.8547,-1.8676,-2.0652,-2.1428,-1.8461,-1.641,-1.5634,-1.6971,-1.6223,-1.5468,-1.5375,-1.4136,-1.3669,-1.466,-1.4674,-1.4865,-1.5749,-1.321,-1.1262,-1.0763,-0.8491,-0.7529,-0.8551,-0.2469,0.3132,0.7787,0.3199,0.0536,0.0,0.0,0.0,0.0,0.0,0.0,0.0,0.0937,0.2819,0.5503,0.6525,0.8539,1.1172,1.1328,1.1477,1.1619,1.1619,1.1928,1.2324,1.2749,1.2602,1.228,-1.1209,-1.1491,-1.1141,-0.9112,-0.6648,-0.3739,-0.0223,0.2703,0.6421,1.2095,1.237,1.1557,0.9961,0.7744,0.6003,0.5051,0.512,0.2651,-0.3509,-0.1516,-0.2934,-0.9649,-1.4756,-1.7415,-1.7428,-2.2635,-2.2548,-1.6881,-1.8717,-1.8385,-1.6063,-1.8572,-2.0168,-2.1032,-2.1164,-2.1639,-2.1461,-0.9363,0.134,1.0669,1.6062,1.7232,0.0,1.5765,1.5073,1.3985,1.2822,0.7021,-0.0197,-0.1276,-1.1017,-2.3624,-2.9268,-3.3038,-3.53,-3.4858,-3.4038,-3.2641,-2.9498,-2.6567,-2.2859,-1.683,-1.7029,-1.8166,-1.6528,-1.784,-1.9378,-1.8721,-1.9592,-1.9532,-1.6264,-1.4382,-1.3615,-1.4501,-1.4248,-1.3918,-1.3943,-1.2209,-1.1271,-1.1934,-1.3275,-1.4027,-1.3736,-1.1656,-1.0369,-1.0281,-0.8164,-0.7354,-0.8543,-0.4657,0.0245,0.5894,0.2108,0.0,0.0,0.0,0.0,0.0,0.0,0.0,0.0,0.1606,0.3499,0.5548,0.7265,0.9308,1.1274,1.143,1.1538,1.1633,1.161,1.1959,1.2505,1.3112,1.3078,1.2922,-1.1583,-1.1642,-1.107,-0.8844,-0.586,-0.2695,0.0329,0.3008,0.6395,1.1201,1.1248,1.1192,1.192,0.6816,0.2209,-0.0413,-0.1356,-0.3901,-0.901,0.4675,0.7677,-0.4215,-1.0263,-1.4388,-1.6688,-2.5719,-2.7717,-2.225,-2.1847,-2.0461,-1.8219,-1.9405,-2.0962,-2.2694,-2.2179,-2.1197,-1.9041,-0.5079,0.4541,1.1029,1.636,1.7452,1.5888,1.5569,1.3945,1.152,0.8653,0.4403,-0.0586,-0.4696,-1.1907,-2.0377,-2.7603,-3.1345,-3.3165,-3.3512,-3.2345,-2.9897,-2.5796,-2.2181,-1.8731,-1.5316,-1.477,-1.5446,-1.6891,-1.9094,-2.0443,-1.9048,-1.7697,-1.5985,-1.3645,-1.2604,-1.1997,-1.1654,-1.2325,-1.2908,-1.2883,-1.141,-1.0172,-0.9962,-1.2388,0.0,-1.0366,-1.0123,-1.0071,-0.9823,-0.8314,-0.7358,-0.7166,-0.5549,-0.3727,-0.1488,-0.052,0.0401,0.1348,0.0531,0.0,0.0,0.0,0.0,0.0135,0.3488,0.5268,0.5747,0.9291,1.0968,1.1261,1.1558,1.1626,1.1674,1.1649,1.1998,1.2505,1.2793,1.304,1.3275,-1.2104,-1.1627,-1.0755,-0.9387,-0.5624,-0.1943,0.0821,0.5092,0.9845,1.4993,1.3762,1.2903,1.4125,0.8838,0.2651,-0.3804,-0.9665,-1.2639,-1.1841,1.0124,2.0999,1.6193,-0.2634,-1.0978,-0.6688,-2.0061,-2.6302,-2.4587,-1.9473,-1.688,-1.6699,-1.9838,-2.1852,-2.2694,-2.3098,-1.9534,-1.2666,-0.3262,0.4538,1.1166,1.7963,1.8874,1.6056,1.4326,1.2932,1.1414,0.7321,0.3355,-0.177,-1.368,-1.892,-2.2039,-3.1716,-3.4702,-3.4213,-3.2406,-2.9362,-2.572,-2.1495,-1.8575,-1.615,-1.4051,-1.3588,-1.3901,-1.4927,-1.5705,-1.6034,-1.5566,-1.5208,-1.4912,-1.4371,-1.1475,-1.06,-1.5007,-1.58,-1.5919,-1.5919,-1.5639,-1.4879,-1.3436,-1.3765,-1.2459,-0.812,-0.7677,-0.828,-0.967,-0.9541,-0.8667,-0.7164,-0.3191,-0.3406,-0.8695,-0.3025,0.2821,0.8742,0.2952,0.0,0.0,0.0,0.0,0.0135,0.2148,0.4054,0.5747,0.8045,0.984,1.1261,1.1558,1.1543,1.1663,1.2141,1.2463,1.2505,1.2628,1.2775,1.3102,-1.3269,-1.3003,-1.2261,-1.0941,-0.6022,-0.0923,0.3308,0.8962,1.348,1.5483,1.6116,1.6455,1.66,1.1394,0.4626,-0.3192,-0.9993,-1.3909,-1.4111,0.2469,1.9674,3.6145,2.0094,0.6766,-0.1722,-1.013,-1.5908,-1.8935,-1.2523,-1.2028,-1.7058,-1.9385,-2.1587,-2.358,-2.1169,-1.6297,-0.9389,-0.0416,0.5807,1.0281,1.7301,1.8309,1.5295,1.2766,1.1039,0.9559,0.7543,0.2371,-0.4555,-1.2866,-1.9289,-2.497,-3.1514,-3.3027,-3.1771,-2.8477,-2.5119,-2.1412,-1.7184,-1.4832,-1.3247,-1.2417,-1.2191,-1.2299,-1.3068,-1.3768,-1.4158,-1.3675,-1.4079,-1.4195,-1.3128,-1.0289,-0.9498,-1.3767,-1.7003,-1.8604,-1.7604,-1.6839,-1.5872,-1.469,-1.2104,-0.9813,-0.8182,-0.7456,-0.751,-0.8307,-0.8735,-0.8337,-0.7116,-0.258,-0.1626,-0.5077,-0.5384,-0.2158,0.5133,0.1756,0.0,0.0,0.0,0.0,0.0,0.1901,0.3839,0.5869,0.7729,0.966,1.1518,1.1523,1.1663,1.1663,1.2271,1.2429,1.2447,1.2496,1.2795,1.3157,-1.5352,-1.508,-1.4309,-1.3302,-0.7458,-0.0952,0.505,1.2192,1.713,1.7643,1.9815,2.1197,2.1076,1.6495,0.9845,0.0808,-0.7952,-1.4009,-1.6446,-0.6182,1.5037,4.8828,3.8051,2.3579,0.7294,0.3648,-0.156,-0.8716,-0.466,-0.7659,-1.7211,-1.9061,-2.117,-2.3091,-1.7606,-1.1927,-0.5956,0.2858,0.8139,1.1106,1.7,1.7502,1.4558,1.1754,0.9199,0.716,0.6982,0.0496,-0.8336,-1.1405,-1.8739,-2.7021,-3.0067,-3.0154,-2.8268,-2.3727,-2.0309,-1.7147,-1.325,-1.1494,-1.0672,-1.0672,-1.0672,-1.0773,-1.105,-1.2009,-1.259,-1.2152,-1.2739,-1.2846,-1.1101,-0.9075,-0.8581,-1.1286,-1.572,-1.8455,-1.7352,-1.5728,-1.4363,-1.3457,-1.0039,-0.7232,-0.621,-0.5731,-0.5968,-0.7021,-0.7878,-0.8059,-0.7358,-0.3993,-0.15,0.0,-0.5444,-0.6451,-0.2528,-0.1623,-0.109,-0.0816,-0.0271,0.0,0.0138,0.2341,0.418,0.598,0.8106,1.0037,1.1626,1.1623,1.1616,1.1768,1.2381,1.2553,1.2427,1.2529,1.2816,1.3374,-1.878,-1.7499,-1.6347,-1.6915,-1.066,-0.3358,0.3466,1.2906,2.1063,2.6092,2.6697,2.7546,2.9899,2.7331,2.0843,0.9479,-0.6936,-1.7365,-1.9033,-0.7134,1.3998,4.5407,3.363,2.7373,2.9519,2.2871,1.4856,0.5676,0.1881,-0.5139,-1.518,-1.9852,-2.1032,-1.8978,-1.2643,-0.6192,0.0272,0.6317,1.192,1.6821,1.8772,1.7778,1.4768,1.183,0.813,0.4275,0.343,-0.351,-1.2989,-1.6281,-2.0982,-2.6064,-2.8976,-2.8201,-2.4998,-1.9164,-1.5798,-1.3297,-1.0093,-0.923,-0.9154,-0.9154,-0.9154,-0.9154,-0.9147,-0.949,-0.9816,-0.9715,-0.9954,-0.9975,-0.9266,-0.8242,-0.8027,-0.9401,-1.0701,-1.2043,-1.3488,-1.1878,-0.9964,-0.7926,-0.8891,-0.6308,0.2371,0.0845,-0.2406,-0.6818,-0.867,-0.9137,-0.7948,-0.8478,-0.6194,-0.0239,-0.0628,-0.4018,-1.0431,-0.6749,-0.4428,-0.3546,-0.1109,0.0,0.014,0.3765,0.5477,0.598,0.9536,1.1335,1.1626,1.1623,1.1925,1.2387,1.2539,1.2461,1.2568,1.2569,1.2876,1.3343,-2.5187,-2.4566,-2.4183,-2.4906,-1.8018,-1.062,-0.549,1.2048,2.6387,3.0991,3.1328,3.1112,3.1184,2.8058,2.2304,1.3211,0.061,-1.0431,-1.8958,-0.7266,1.1904,3.8659,2.5281,2.0771,2.8287,2.7061,2.128,1.076,0.9968,0.1794,-1.3151,-1.4651,-1.5088,-1.4355,-0.934,-0.3304,0.3384,1.0037,1.4711,1.7928,1.9968,1.8525,1.47,1.0889,0.5634,-0.0206,-0.3494,-0.9422,-1.6126,-2.0641,-2.4152,-2.6506,-2.5334,-2.3511,-2.0452,-1.3793,-1.1289,-1.0249,-0.8128,-0.8251,-0.894,-0.894,-0.894,-0.894,-0.894,-0.9096,-0.9273,-0.9361,-0.8891,-0.828,-0.8078,-0.6602,-0.6215,-0.8094,-0.8482,-0.8913,-0.9935,-0.8367,-0.6584,-0.4649,-0.4148,-0.308,-0.0577,0.0221,-0.0432,-0.2621,-0.6124,-0.8156,-0.7954,-0.9463,-0.7165,-0.0246,0.3112,0.0667,-0.8086,-0.6405,-0.4271,-0.1532,-0.0552,0.0556,0.1841,0.3252,0.5263,0.763,1.037,1.1565,1.1626,1.1623,1.1925,1.2536,1.2539,1.2567,1.2467,1.2874,1.3164,1.3408,-3.1043,-3.1038,-3.0804,-3.009,-2.3896,-1.6394,-0.8778,0.9337,2.463,3.1427,3.2976,3.3423,3.3445,3.1036,2.5842,1.7029,0.8743,-0.0855,-1.2242,-0.7355,0.6707,3.0808,1.9813,1.6973,2.5159,2.7309,2.4145,1.552,1.6412,0.7659,-0.9982,-1.1397,-1.2162,-1.2013,-0.6343,0.0,0.6934,1.3367,1.7595,2.0091,2.1771,1.9535,1.4792,1.0289,0.3459,-0.4292,-0.9429,-1.4024,-1.8085,-2.1139,-2.2523,-2.2537,-1.9761,-1.7711,-1.4893,-0.8138,-0.7216,-0.7943,-0.6482,-0.7482,-0.894,-0.894,-0.894,-0.894,-0.894,-0.9083,-0.9158,-0.8877,-0.8096,-0.7245,-0.6785,-0.4993,-0.4279,-0.5866,-0.5567,-0.5192,-0.5497,-0.4086,-0.2483,-0.1269,0.0247,0.0846,-0.0238,0.0909,0.1997,0.2809,-0.2061,-0.5631,-0.7182,-0.7225,-0.5492,-0.174,0.3148,0.2157,-0.5133,-0.4538,-0.3051,-0.0832,0.0278,0.1542,0.2995,0.4147,0.6471,0.9579,1.1031,1.164,1.1694,1.169,1.1993,1.2449,1.245,1.244,1.2596,1.3027,1.3318,1.3394,-3.566,-3.556,-3.4375,-3.0456,-2.6916,-1.9126,-0.2804,0.4385,1.2852,2.6581,3.1098,3.4585,3.8743,3.9283,3.4346,2.2018,1.6257,1.0225,0.2893,-0.7585,-0.2503,2.2136,1.915,1.9216,2.4277,2.5276,2.4369,2.1545,2.0304,1.1148,-0.5225,-1.2102,-1.4601,-1.2833,-0.3543,0.46,1.1698,1.6247,2.0772,2.4863,2.4427,2.0806,1.5129,1.0369,0.2126,-0.7731,-1.3036,-1.6634,-1.8446,-1.6636,-1.4272,-1.2125,-1.195,-1.085,-0.8396,-0.2174,-0.3421,-0.6606,-0.4938,-0.67,-0.894,-0.894,-0.894,-0.894,-0.894,-0.9164,-0.8987,-0.7675,-0.7357,-0.6903,-0.5254,-0.3558,-0.2581,-0.2621,-0.1193,-0.0134,-0.0134,0.1467,0.2609,0.2583,0.3749,0.5249,0.7285,0.4965,0.5032,0.9391,0.3635,-0.1612,-0.529,-0.1214,-0.0858,-0.5165,-0.1793,-0.1179,-0.3934,-0.1386,-0.0997,-0.2849,0.0997,0.2851,0.2995,0.6921,0.9718,1.1619,1.1619,1.1701,1.1843,1.1844,1.1992,1.2146,1.244,1.2434,1.2581,1.2901,1.3212,1.3363,-3.8805,-3.6328,-3.3874,-3.2355,-3.1488,-2.5592,-0.95,0.4437,1.6161,2.4774,2.9233,3.2109,3.3486,3.4363,3.2615,2.722,2.1277,1.4003,0.5056,0.4014,0.4831,0.7403,1.4682,1.9745,2.1914,1.9942,1.8732,1.8397,1.7008,1.017,-0.1848,-1.4099,-1.5785,-0.8318,-0.3865,0.3215,1.2081,1.6255,2.2248,2.853,2.5515,2.2295,1.8123,0.8073,-0.1705,-1.0509,-1.4451,-1.8137,-2.0269,-1.3709,-0.6608,-0.0477,-0.0587,-0.2442,-0.3816,0.0344,-0.0907,-0.3597,-0.3022,-0.4355,-0.6144,-0.7149,-0.7432,-0.7832,-0.8858,-0.8499,-0.7427,-0.5993,-0.479,-0.394,-0.3341,-0.1884,-0.0383,0.0904,0.1441,0.265,0.5072,0.4948,0.5409,0.7612,0.61,0.556,0.7393,0.6729,0.6168,0.6155,0.5298,0.2253,-0.325,-0.2598,-0.2832,-0.4749,-0.3288,-0.2037,-0.1236,0.1383,0.14,-0.0855,0.2134,0.3999,0.5039,0.8971,1.1031,1.1626,1.1721,1.1789,1.1843,1.1999,1.2149,1.2139,1.2186,1.2447,1.2603,1.2868,1.315,1.3226,-3.8643,-3.6103,-3.3613,-3.1715,-2.9121,-2.2512,-0.8481,0.6696,1.8394,2.3387,2.7382,3.0162,3.0961,3.1702,3.082,2.7766,2.3507,1.7155,0.8348,1.0668,1.0242,0.5506,1.2859,1.7948,1.9821,1.7088,1.6019,1.6814,1.6133,1.1506,0.3048,-0.8365,-1.0564,-0.4894,-0.3632,0.2469,1.2328,1.7862,2.4757,3.1791,2.9562,2.5179,1.8711,0.7583,-0.2457,-1.1101,-1.5021,-1.793,-1.8924,-1.1232,-0.2885,0.4255,0.399,0.2252,0.0695,0.2756,0.0682,-0.2143,-0.2143,-0.327,-0.4743,-0.5677,-0.5956,-0.623,-0.7268,-0.6439,-0.4889,-0.3393,-0.1825,-0.0488,0.0124,0.1125,0.228,0.3357,0.4177,0.5405,0.7616,0.6564,0.6329,0.9068,0.6724,0.5571,0.7368,0.8,0.7755,0.6593,0.6996,0.5189,0.0577,0.0502,-0.0523,-0.2832,-0.0403,0.0969,0.0981,0.333,0.3477,0.1413,0.3543,0.5862,0.8107,1.0443,1.1619,1.1626,1.1714,1.1782,1.1843,1.1999,1.2149,1.2139,1.2345,1.242,1.2535,1.2847,1.2956,1.3003,-3.5579,-3.4553,-3.2657,-2.8411,-2.0706,-1.1671,-0.1352,1.0572,1.9445,2.2293,2.5656,2.8651,3.0843,3.1018,2.9199,2.4751,2.3433,1.9906,1.2789,1.2942,1.346,1.3886,1.3578,1.4892,1.8018,1.6586,1.6088,1.6711,1.6885,1.4129,0.8681,0.3605,-0.0,-0.2268,-0.3621,0.1054,1.0501,1.8754,2.6496,3.3479,3.5325,2.9101,1.7743,0.8795,-0.0734,-0.9968,-1.4313,-1.587,-1.4847,-0.8877,-0.2312,0.3302,0.2948,0.3738,0.4925,0.4725,0.1487,-0.206,-0.1948,-0.2976,-0.4249,-0.4318,-0.4454,-0.4574,-0.4578,-0.3393,-0.1876,-0.0119,0.1316,0.2895,0.4611,0.489,0.4936,0.5209,0.6675,0.7898,0.8005,0.656,0.6141,0.779,0.6111,0.5734,0.7819,0.9097,0.9882,1.0012,0.8764,0.7277,0.5716,0.7037,0.5461,0.0268,0.5364,0.643,0.2941,0.4753,0.5169,0.4192,0.5507,0.8154,1.1619,1.1619,1.1619,1.1619,1.1633,1.1708,1.1843,1.1858,1.2005,1.2305,1.2447,1.2508,1.2549,1.2523,1.2802,1.3017,-3.1545,-2.7665,-2.3692,-2.0388,-1.2118,-0.395,0.2069,1.1731,1.9268,2.1554,2.4765,2.7613,2.9706,2.9294,2.8385,2.7115,2.443,2.1386,1.7934,1.5197,1.4184,1.5317,1.5261,1.5573,1.6347,1.6048,1.6059,1.6693,1.2628,1.0004,0.8964,1.1973,0.9642,0.2315,-0.8553,-1.2716,-1.0788,0.1348,1.2833,2.3666,3.2669,3.1568,2.308,1.0523,0.0172,-0.7857,-0.8864,-1.102,-1.226,-0.4386,0.049,0.3687,0.5647,0.562,0.4838,0.4702,0.2179,-0.0226,0.0799,0.0115,-0.1382,-0.2456,-0.3752,-0.4353,-0.3217,-0.1891,-0.0235,0.1556,0.312,0.4222,0.48,0.494,0.5342,0.6832,0.7429,0.7781,0.7893,0.7583,0.7944,0.9621,0.9354,0.9735,1.1587,1.2009,1.1518,1.0005,0.9536,0.913,0.8654,0.9425,0.7515,0.2707,0.5023,0.5951,0.5103,0.694,0.8535,0.9775,1.009,1.0706,1.1619,1.1619,1.1619,1.1626,1.1735,1.1803,1.1857,1.2121,1.2257,1.2457,1.2447,1.2569,1.2534,1.2562,1.2862,1.3315,-2.4881,-2.1929,-1.914,-1.7556,-0.9154,-0.0108,0.7106,1.3561,1.9002,2.2715,2.5701,2.817,3.0063,2.9347,2.8378,2.7325,2.4006,2.1105,1.8999,1.571,1.422,1.503,1.4967,1.5204,1.5832,1.5832,1.6236,1.7155,1.4151,1.2258,1.1576,1.3009,0.9587,0.2144,-0.555,-0.7851,-0.6389,-1.2766,-0.6616,0.7995,1.4473,1.3068,0.6349,-0.0214,-0.5769,-0.9867,-0.9372,-1.0703,-1.1766,-0.549,-0.2316,-0.0485,0.2932,0.4872,0.6155,0.6759,0.4674,0.2435,0.3272,0.2345,0.0823,-0.083,-0.1424,-0.1301,-0.0589,0.1398,0.3246,0.4337,0.5789,0.6931,0.7089,0.7163,0.7604,0.8609,0.8284,0.7817,0.7832,0.7899,0.8625,1.0148,1.1113,1.2427,1.4061,1.3541,1.2656,1.1378,1.0685,1.0229,1.0222,1.0588,0.9198,0.5587,0.7427,0.7969,0.7115,0.8959,1.0426,1.1368,1.1586,1.1619,1.1619,1.1619,1.1653,1.1721,1.1796,1.187,1.1959,1.2038,1.2132,1.2311,1.2522,1.2494,1.2594,1.2809,1.3105,1.3363,-1.8115,-1.7251,-1.6825,-1.6685,-0.8639,0.1083,1.0704,1.4733,1.8596,2.4019,2.6598,2.8602,3.0394,2.9397,2.7867,2.6187,2.2794,1.992,1.8183,1.5525,1.4072,1.4248,1.3889,1.4268,1.5395,1.5652,1.6413,1.7612,1.7154,1.6206,1.4601,1.0724,0.5393,-0.0961,-0.2901,-0.1752,0.0098,-2.5067,-2.7187,-1.3664,-1.3594,-1.415,-1.5036,-1.5219,-1.4803,-1.3862,-1.3211,-1.2931,-1.2421,-0.908,-0.735,-0.5749,-0.0487,0.4111,0.7999,0.9787,0.8379,0.6248,0.5757,0.4208,0.2535,0.1088,0.1688,0.2626,0.2556,0.4714,0.6774,0.6909,0.8274,0.9503,0.9802,0.9964,1.008,1.0168,0.8811,0.7905,0.8001,0.8324,0.9131,1.1034,1.2872,1.4604,1.6022,1.49,1.3769,1.3225,1.1811,1.1052,1.0941,1.1084,1.0416,0.8528,1.0429,1.0703,0.8986,1.0561,1.1281,1.1281,1.1558,1.1619,1.1619,1.164,1.1714,1.1837,1.1857,1.1945,1.2223,1.1763,1.1821,1.2166,1.2454,1.2581,1.2635,1.324,1.3356,1.3398,-1.5885,-1.4808,-1.3847,-1.2898,-0.6832,-0.0109,0.6074,1.2216,1.7767,2.25,2.4444,2.5994,2.7584,2.5658,2.4183,2.391,2.0832,1.8783,1.8453,1.603,1.4548,1.426,1.3323,1.3089,1.363,1.5059,1.6341,1.7571,1.5211,1.419,1.4636,1.0761,0.4079,-0.5165,-1.6388,-2.5785,-3.354,-3.6845,-4.1137,-4.5935,-4.7902,-3.3529,-1.2004,-2.2083,-2.2283,-1.7181,-1.7051,-1.5625,-1.3452,-1.1135,-0.9627,-0.7189,0.3024,0.7659,0.9954,1.2967,1.3461,1.2456,0.9557,0.676,0.441,0.4166,0.4367,0.4438,0.4535,0.5777,0.7148,0.7246,0.8479,0.9666,0.9958,1.0032,0.9978,0.9747,0.8688,0.8193,0.929,0.9843,1.1408,1.4566,1.6604,1.7825,1.8058,1.7837,1.6421,1.3544,1.3046,1.2359,1.0941,1.1084,1.1074,1.0888,1.1348,1.1435,1.1149,1.1435,1.1586,1.1586,1.1606,1.1619,1.1619,1.1742,1.1809,1.1837,1.1972,1.204,1.2223,1.2072,1.2291,1.2477,1.278,1.3137,1.3276,1.3443,1.3425,1.339,-1.3487,-1.3335,-1.273,-1.0584,-0.5158,0.0884,0.6689,1.2143,1.6685,1.9747,2.2095,2.3791,2.4856,2.3466,2.23,2.1955,1.994,1.8182,1.6909,1.4789,1.3869,1.4572,1.2537,1.2587,1.5028,1.5856,1.5139,1.287,1.1611,1.2008,1.3806,0.8796,0.2633,-0.4863,-2.0499,-3.0996,-3.7152,-4.0641,-4.6543,-5.345,-5.4256,-4.5749,-3.3073,-3.7929,-3.5688,-2.9336,-2.4473,-2.0877,-1.7681,-1.4113,-1.0198,-0.5215,0.4331,0.9573,1.272,1.5161,1.5311,1.4084,1.1565,0.9213,0.7322,0.6413,0.6846,0.7159,0.6287,0.788,0.9374,0.8636,0.9129,0.9788,1.0012,1.0181,1.027,1.0215,0.9638,0.9494,1.0082,1.2049,1.4029,1.5603,1.8186,1.9941,1.9941,1.8244,1.6431,1.4874,1.3029,1.1701,1.1056,1.1206,1.1355,1.1511,1.1586,1.1619,1.1619,1.1619,1.1619,1.1619,1.1619,1.1619,1.1626,1.1769,1.1283,1.0316,1.0445,1.0539,1.0767,1.1926,1.242,1.2594,1.2896,1.3228,1.3318,1.3384,1.3562,1.3881,-1.0356,-1.129,-1.1765,-0.9265,-0.3978,0.2006,0.8033,1.2181,1.5371,1.7513,1.9782,2.1503,2.2351,2.1461,2.0456,1.9709,1.8628,1.7208,1.5079,1.3205,1.2668,1.381,1.1417,1.149,1.4839,1.4907,1.2946,0.8927,0.8946,1.0069,1.211,0.5406,-0.0217,-0.5558,-2.2163,-3.111,-3.434,-4.1884,-4.826,-5.3327,-5.3459,-5.2815,-5.1623,-4.9745,-4.526,-3.8811,-3.0485,-2.4711,-2.0377,-1.5482,-0.9266,-0.2227,0.5506,1.1462,1.5847,1.7196,1.6738,1.53,1.3223,1.179,1.0561,0.9347,0.9801,1.0384,0.9111,1.0383,1.1579,1.0347,1.0307,1.0414,1.012,1.0714,1.102,1.0555,1.0229,1.0343,1.1463,1.3651,1.5666,1.6892,1.9497,2.1136,2.1203,1.8337,1.6405,1.6065,1.3319,1.1467,1.1206,1.1328,1.1463,1.1613,1.1619,1.1619,1.1619,1.1619,1.1619,1.1619,1.1619,1.1345,1.0938,1.1046,0.9991,0.8328,0.8711,0.9116,0.9371,1.1597,1.2535,1.2528,1.284,1.2963,1.3164,1.3295,1.3672,1.4154,-0.5622,-0.7758,-0.9757,-0.9056,-0.3951,0.1997,0.8017,1.1121,1.3789,1.6675,1.7666,1.8737,2.0179,1.9178,1.7896,1.6806,1.5794,1.4721,1.3578,1.1977,1.1115,1.1221,0.9572,0.8983,0.9465,0.9479,0.9275,0.8955,0.892,0.896,0.9078,0.0331,-0.6027,-1.0941,-2.4141,-3.2152,-3.609,-4.2454,-4.7725,-5.2144,-5.4399,-5.3811,-5.131,-4.8454,-4.398,-3.8283,-3.1286,-2.4646,-1.826,-1.2904,-0.6162,0.1052,0.753,1.3917,1.9037,1.9166,1.9127,1.8402,1.5311,1.4361,1.4232,1.4094,1.4094,1.4212,1.4074,1.3122,1.2225,1.2159,1.2331,1.1961,1.0663,1.1751,1.2306,1.0392,0.9098,0.9688,1.4194,1.4014,1.5228,2.0157,2.0969,2.1216,2.1496,1.9658,1.7906,1.6654,1.4656,1.2988,1.1502,1.1389,1.1463,1.1613,1.1619,1.1619,1.1619,1.1619,1.1619,1.1619,1.1619,1.0661,0.8861,0.9019,0.809,0.6288,0.7684,0.8352,0.8585,1.1436,1.2535,1.2528,1.2516,1.2628,1.2661,1.3124,1.3665,1.3823,-0.2006,-0.1301,-0.1531,-0.3253,0.1469,0.6255,0.8601,1.0357,1.2116,1.3957,1.5034,1.5843,1.6531,1.6117,1.5307,1.4402,1.3887,1.307,1.1801,1.1107,1.0396,0.9463,0.8918,0.8662,0.894,0.894,0.894,0.8933,0.523,-0.0332,-0.7552,-1.0841,-1.4506,-1.8571,-2.5081,-3.0975,-3.6344,-4.1844,-4.652,-5.0566,-5.3536,-5.4019,-5.2269,-4.6065,-4.4348,-4.4406,-3.7643,-3.1042,-2.3803,-1.3583,-0.5572,0.1427,0.93,1.4381,1.7493,1.804,1.8171,1.8052,1.7933,1.6973,1.6138,1.6138,1.6138,1.5784,1.4837,1.5059,1.4821,1.2847,1.2674,1.2369,1.0855,1.1084,1.1403,1.074,1.1045,1.1964,1.3829,1.453,1.6063,1.9382,1.8747,1.8592,1.9915,1.7395,1.5413,1.4955,1.3303,1.2021,1.1389,1.1484,1.1558,1.1619,1.1619,1.1619,1.1619,1.1619,1.166,1.1603,1.1623,0.9911,0.6872,0.6176,0.517,0.4153,0.5269,0.5761,0.5932,0.8764,1.0958,1.2528,1.2675,1.2795,1.3003,1.3397,1.3634,1.3961,0.403,0.5911,0.6327,0.3144,0.6586,0.9647,0.8984,0.9684,1.0617,1.1606,1.2689,1.3512,1.4048,1.3857,1.2819,1.0732,1.0439,0.9553,0.7503,0.7404,0.7364,0.718,0.634,0.5955,0.6144,0.5456,0.4554,0.3324,-0.077,-0.6931,-1.4864,-1.6617,-2.0483,-2.5838,-2.6218,-3.0626,-3.8031,-4.1693,-4.5583,-4.9424,-5.1894,-5.2343,-5.1087,-4.6743,-4.5246,-4.3793,-3.1338,-2.4831,-2.0428,-0.8994,-0.1155,0.4821,1.0215,1.3075,1.459,1.6079,1.6616,1.6857,1.7961,1.7708,1.7185,1.7701,1.7385,1.6736,1.5666,1.5718,1.5289,1.303,1.2868,1.2548,1.0939,1.1038,1.1408,1.086,1.1703,1.2716,1.3369,1.4376,1.5813,1.7817,1.6981,1.684,1.8295,1.5729,1.3846,1.4043,1.2374,1.1463,1.1463,1.1565,1.1619,1.1619,1.1031,1.1031,1.1619,1.1529,1.161,1.1563,1.0417,0.8244,0.515,0.4281,0.3242,0.2025,0.2656,0.3448,0.4554,0.8342,1.0993,1.2542,1.2942,1.3233,1.3415,1.37,1.3961,1.4105,1.332,1.3969,1.2384,0.9537,1.0587,1.1177,0.9196,0.8954,0.9261,1.0289,1.0906,1.1728,1.3008,1.2652,1.034,0.5435,0.5126,0.3797,0.043,0.0215,0.1294,0.3994,0.1428,-0.0111,-0.0111,-0.1975,-0.4939,-0.8866,-0.9019,-0.9033,-0.9125,-1.4969,-2.3026,-3.2357,-2.754,-3.1369,-4.1548,-4.2427,-4.5083,-4.8793,-4.9337,-4.8287,-4.6859,-5.0955,-4.6239,-3.4205,-0.8946,-0.2567,-0.4979,0.2416,0.8159,1.184,1.0335,1.0016,1.083,1.3892,1.4791,1.4801,1.4801,1.6013,1.7661,1.9076,1.8264,1.7241,1.7241,1.4848,1.2826,1.2884,1.3046,1.2588,1.0955,1.2157,1.2676,1.0982,1.0724,1.1372,1.3062,1.3361,1.4138,1.586,1.6315,1.6526,1.6746,1.5117,1.4097,1.4415,1.2602,1.1619,1.1619,1.1619,1.1619,1.1619,0.9723,0.9579,1.1619,1.1497,1.1596,1.1482,0.7959,0.5468,0.385,0.385,0.2499,0.0,0.0,0.1574,0.477,1.0849,1.2998,1.2562,1.3166,1.348,1.3739,1.4027,1.4119,1.4249,1.7102,1.7316,1.6427,1.6662,1.4471,1.2507,1.211,1.0303,0.9493,1.0949,1.1181,1.0805,0.9602,0.695,0.4368,0.1889,0.0722,-0.0817,-0.2866,-0.2177,-0.3242,-0.6417,-0.6246,-0.7979,-1.2098,-1.2753,-1.4624,-1.7795,-1.7911,-1.7907,-1.7977,-2.1628,-2.4775,-2.7594,-2.9491,-3.2894,-3.729,-4.0786,-4.2938,-4.3614,-3.9215,-3.4022,-2.8651,-2.537,-2.0631,-1.4312,-0.2109,0.348,0.5642,0.9372,1.0528,1.0415,0.9916,0.993,1.0229,1.1418,1.2515,1.3706,1.4972,1.5638,1.6085,1.6219,1.6952,1.7131,1.5894,1.5077,1.437,1.3165,1.3126,1.2797,1.1135,1.1277,1.1411,1.088,1.088,1.1015,1.1538,1.1811,1.2627,1.4516,1.3628,1.3456,1.5026,1.3373,1.2415,1.2459,1.19,1.1619,1.1619,1.1619,1.1619,1.1619,1.1128,1.0292,0.9113,0.8108,0.6223,0.3437,0.2423,0.1697,0.1104,0.1106,0.0797,0.0161,0.3378,0.5139,0.6264,1.113,1.3054,1.302,1.3247,1.3376,1.3556,1.4009,1.4034,1.4089,2.2282,2.3273,2.3249,2.3427,2.0107,1.7237,1.6778,1.3665,1.1529,1.2028,1.0301,0.8568,0.7197,0.2983,-0.0,-0.0843,-0.4229,-0.7214,-0.9191,-0.8221,-1.0038,-1.5585,-1.4353,-1.4803,-1.7252,-1.7893,-1.908,-2.0877,-2.1718,-2.2164,-2.2249,-2.4632,-2.6581,-2.8299,-3.144,-3.385,-3.5754,-3.7647,-4.025,-4.262,-3.7541,-2.7108,-1.4159,-1.0287,-0.4829,0.1662,0.8239,1.1803,1.3268,1.2817,1.1405,0.9842,0.9964,1.0005,1.0032,1.0294,1.1158,1.2147,1.3268,1.4061,1.4308,1.3506,1.4566,1.5513,1.4383,1.3916,1.331,1.235,1.2265,1.2142,1.1083,1.0995,1.1016,1.0955,1.0995,1.1029,1.1029,1.1158,1.1699,1.2897,1.2136,1.1938,1.3159,1.2323,1.1619,1.1619,1.1619,1.1619,1.1619,1.1674,1.1701,1.1701,1.1097,1.0423,0.9678,0.7769,0.6162,0.4848,0.1533,0.0,0.0,0.1761,0.2261,0.2119,0.7185,0.8811,0.8127,1.1739,1.3192,1.3164,1.3417,1.3539,1.3546,1.3994,1.4163,1.4177,2.8833,3.0734,3.1745,2.9858,2.6729,2.3938,2.2261,1.8433,1.4976,1.2896,0.9404,0.7434,0.8632,0.2955,-0.0946,-0.1046,-0.905,-1.5318,-1.8258,-1.7355,-1.889,-2.3865,-2.2955,-2.136,-1.9089,-1.9938,-2.0366,-2.0178,-2.223,-2.326,-2.3295,-2.4948,-2.7913,-3.2035,-3.2333,-3.3492,-3.5136,-3.3213,-3.677,-4.2922,-3.5493,-1.959,-0.0468,-0.1251,0.4708,1.4312,2.0168,2.08,1.8083,1.3746,1.1163,0.989,1.0188,1.027,1.0397,1.029,1.0392,1.0493,1.0507,1.166,1.2467,1.1073,1.165,1.2693,1.2693,1.1657,1.0758,1.09,1.0941,1.0955,1.0962,1.1077,1.1124,1.1009,1.1097,1.1185,1.1185,1.1454,1.155,1.1409,1.1674,1.1763,1.1619,1.1619,1.1619,1.1619,1.1619,1.1619,1.1619,1.1742,1.1816,1.183,1.0334,1.0266,1.1795,0.9796,1.002,1.2372,0.4818,0.11,0.1271,0.5477,0.6526,0.5602,1.1072,1.2231,1.0219,1.2546,1.3139,1.2747,1.3297,1.3265,1.303,1.3436,1.3584,1.3584,3.6442,3.6252,3.544,3.5637,3.213,2.8152,2.4804,2.1039,1.6611,1.1173,1.3279,1.9541,3.0832,2.074,1.2713,1.1747,-1.0314,-2.5683,-2.8857,-2.9213,-3.0272,-3.2153,-3.1415,-3.1447,-3.2493,-2.9049,-2.675,-2.5836,-2.5237,-2.4982,-2.5088,-2.5487,-2.6191,-2.7207,-2.7254,-2.7504,-2.7998,-2.7471,-3.0483,-3.1755,1.2006,2.8803,2.6972,2.0606,2.0877,2.4633,2.4837,2.2432,1.8416,1.3927,1.1341,1.0032,1.0089,1.0069,1.0015,1.0507,1.0466,1.0514,1.0636,1.0927,1.1197,1.0843,1.0955,1.119,1.119,1.0955,1.0731,1.0765,1.0867,1.0982,1.1097,1.1138,1.1192,1.128,1.1321,1.1341,1.1341,1.2723,1.3255,1.1708,1.2866,1.3167,1.1763,1.1619,1.1619,1.1619,1.1619,1.1619,1.1619,1.1647,1.1714,1.183,1.1639,1.106,0.9767,1.1082,1.2011,1.2179,1.0849,1.0231,1.0528,1.1486,1.1776,1.154,1.2893,1.3052,1.2688,1.3311,1.2328,1.064,1.1096,0.9966,0.8395,0.8526,0.8575,0.8575,4.2748,4.288,4.1811,4.1204,3.7604,3.3518,2.9571,2.3689,1.8181,1.4215,1.3622,1.6958,2.5852,2.3257,1.6468,0.5512,-1.0131,-2.2115,-2.8519,-2.878,-2.9227,-3.0402,-3.0013,-3.1668,-3.586,-3.555,-3.3763,-3.0518,-2.9658,-2.8457,-2.6841,-2.6055,-2.572,-2.5633,-2.2973,-2.3271,-2.4612,-0.8131,-0.0694,0.258,3.1414,4.0367,3.5769,3.021,2.9188,3.0349,2.698,2.2045,1.6674,1.3766,1.1587,1.0188,1.0203,1.0196,1.0163,1.0446,1.0541,1.0616,1.0697,1.0717,1.0717,1.0717,1.0717,1.0717,1.0717,1.0717,1.0744,1.0812,1.0948,1.1077,1.1151,1.128,1.1382,1.1389,1.145,1.1497,1.1497,1.2408,1.3024,1.2888,1.3031,1.2745,1.1763,1.1681,1.1694,1.1626,1.1681,1.1721,1.1721,1.1789,1.1898,1.2047,1.2271,1.1837,1.0873,1.2127,1.2615,1.263,1.2793,1.3116,1.3443,1.3363,1.3466,1.3431,1.3431,1.3458,1.3345,1.2402,1.1272,1.0134,0.9083,0.8085,0.6868,0.7119,0.7146,0.7146,4.724,4.772,4.6601,4.3866,4.0355,3.6673,3.3122,2.5926,1.9648,1.6148,1.2314,1.1003,1.3822,2.0154,1.5727,-0.5322,-1.0502,-1.6551,-2.5793,-2.5763,-2.6111,-2.7721,-2.7544,-2.9849,-3.4986,-3.8334,-3.838,-3.5003,-3.3827,-3.1405,-2.7687,-2.5414,-2.4798,-2.5507,-2.1279,-2.3742,-2.849,0.9563,2.9604,3.5849,3.6253,3.6075,3.535,3.3362,3.2704,3.2431,2.7515,2.1031,1.4666,1.3771,1.2035,1.0344,1.0487,1.0514,1.0493,1.0521,1.0616,1.0717,1.0717,1.0717,1.0724,1.0751,1.0758,1.0765,1.0792,1.0778,1.0806,1.0955,1.1084,1.1172,1.1199,1.1409,1.1545,1.145,1.1538,1.1763,1.2043,1.2043,1.2602,1.4148,1.2745,1.1626,1.1653,1.1464,1.1192,1.1083,1.09,1.0816,1.0798,1.0928,1.1214,1.1821,1.1491,1.1485,1.1646,1.1671,1.1592,1.1403,1.1726,1.243,1.3343,1.3037,1.2966,1.3437,1.3437,1.3526,1.3492,1.1119,0.9978,0.9548,0.7199,0.5998,0.5651,0.5881,0.5898,0.5898,4.7642,4.5936,4.2868,3.8067,3.4677,3.1835,2.9522,2.6774,2.0504,0.7965,1.0802,1.509,1.7989,2.0576,1.4819,-0.3279,-1.4954,-2.4249,-3.1299,-3.2107,-3.3518,-3.614,-3.5613,-3.5235,-3.5113,-3.3434,-3.4942,-3.978,-3.5307,-3.0685,-2.5946,-2.0992,-2.1204,-2.574,-2.6505,-3.6381,-4.8971,0.3461,2.8733,3.3719,3.5663,3.4809,3.2416,3.3191,3.2149,2.9905,2.6849,2.1176,1.4968,1.4778,1.2893,1.0487,1.0643,1.0595,1.0384,1.0649,1.0704,1.0717,1.0717,1.0717,1.0751,1.0887,1.0921,1.0948,1.1077,1.1009,1.0955,1.1104,1.1151,1.1206,1.1335,1.1396,1.1457,1.1572,1.1606,1.2187,1.3729,1.4014,1.4148,1.4432,1.2745,1.1667,1.1789,1.0193,0.916,0.9296,0.7608,0.6582,0.6662,0.6586,0.7574,0.9508,0.8075,0.711,0.7102,0.734,0.6598,0.4674,0.6673,0.9623,1.3343,1.1311,1.1599,1.36,1.36,1.3682,1.3646,1.1334,0.9284,0.7202,0.4977,0.286,0.0895,0.0897,0.0897,0.0897,4.7345,4.5109,4.14,3.5267,3.3482,3.127,2.6414,2.2744,1.8334,1.2049,1.0752,1.1804,1.5519,1.5655,1.0393,-0.2248,-1.0572,-1.8065,-2.5018,-2.5672,-2.5991,-2.6426,-2.6249,-2.4365,-2.0567,-1.9621,-2.2345,-2.8822,-3.7392,-3.7578,-2.966,-2.1436,-1.5349,-1.1215,-0.8667,-1.1324,-1.6034,1.1085,2.5985,3.1474,3.1747,3.2795,3.4024,3.1241,2.9635,2.8331,2.5147,2.0795,1.6588,1.5833,1.4024,1.1926,1.0962,1.0677,1.0629,1.0697,1.0778,1.0846,1.0853,1.0907,1.0982,1.105,1.107,1.1104,1.1253,1.124,1.1185,1.1027,1.1226,1.1307,1.1235,1.1457,1.1538,1.1606,1.1619,1.19,1.2745,1.2888,1.2888,1.2888,1.3115,1.2467,1.034,0.9371,0.8513,0.7323,0.6458,0.5882,0.5892,0.5922,0.643,0.7594,0.6704,0.6326,0.6472,0.6506,0.6092,0.5198,0.4863,0.7183,1.147,1.0592,1.1356,1.3634,1.3715,1.2962,1.1698,0.9472,0.7058,0.4797,0.2504,0.0897,0.0,0.0,0.0,0.0]}]]